GFSGBSN_925_thetae_000.txt.gz
Theta_e
316 315 318 316 317 318 318 316 316 316 315 315 314 314 314 314 313 314 313 313 314 314 315 314 315 315 316 318 318 318 315 315 318 321 322 323 323 321 327 330 329 330 330 328 327 327 326
315 317 317 316 315 317 317 316 315 314 316 316 315 314 314 314 314 314 314 313 314 315 315 313 313 313 316 316 314 314 316 316 317 319 322 322 323 321 321 326 330 329 329 330 328 327 326
317 316 317 316 314 316 317 317 316 314 312 316 315 314 313 314 313 314 313 314 314 314 314 314 313 314 314 314 313 313 315 315 315 315 317 321 321 323 322 323 326 329 332 330 329 328 327
317 317 316 316 315 315 317 317 316 315 313 313 315 314 312 312 313 312 312 312 313 313 313 312 312 314 314 313 313 313 312 312 312 312 314 316 317 321 323 323 326 330 331 334 331 329 328
318 316 316 315 314 315 317 317 316 316 315 313 313 314 313 312 313 312 312 311 311 312 312 312 313 313 313 312 312 312 312 312 312 313 314 314 315 320 322 324 328 331 334 334 333 330 328
318 317 316 314 315 315 316 316 316 316 316 315 314 313 313 310 312 311 311 310 311 311 311 312 312 314 312 312 312 311 312 312 312 312 313 316 317 320 322 324 327 330 334 331 334 330 330
314 318 315 314 313 314 315 315 316 315 315 316 314 312 314 310 311 312 311 311 312 312 312 311 312 313 313 312 311 311 311 312 312 313 314 315 319 320 319 321 323 325 329 334 330 330 330
313 314 316 315 313 313 314 315 316 315 315 315 314 312 313 309 310 311 312 311 312 311 314 312 312 312 312 312 313 312 311 312 313 315 314 316 318 317 317 318 323 324 329 332 330 330 329
309 312 315 316 314 313 314 314 316 315 315 315 314 312 311 309 310 311 312 311 310 311 313 312 312 313 313 312 313 313 312 312 313 314 314 315 316 316 316 317 320 324 328 332 332 330 328
307 308 311 312 315 314 314 314 316 316 316 315 314 311 310 309 310 311 312 312 311 310 312 313 311 313 312 311 313 312 312 313 313 314 313 315 314 314 317 317 318 323 324 328 332 334 333
305 307 308 310 311 314 314 315 315 316 316 315 313 310 309 308 313 312 312 311 311 309 318 313 313 310 311 312 312 312 311 313 314 313 313 315 313 314 315 318 317 321 323 328 331 333 333
305 306 307 309 307 311 314 315 315 316 316 315 313 310 308 309 310 312 310 310 308 313 317 314 313 313 314 312 312 312 313 312 312 314 312 312 313 314 315 316 318 319 323 325 333 330 338
304 305 306 308 307 307 308 314 314 316 316 316 314 311 308 310 310 310 309 309 314 317 313 317 315 313 313 315 314 313 313 314 314 316 317 315 315 315 313 317 319 323 326 331 335 332 332
303 304 305 307 305 305 307 313 314 315 316 316 314 311 309 309 311 310 308 311 317 315 315 313 313 313 316 314 315 313 314 314 313 313 315 315 316 316 314 316 322 325 326 330 338 335 329
301 303 305 306 306 304 306 313 314 315 316 316 315 313 311 310 311 308 311 314 316 317 317 316 315 315 317 315 314 313 313 315 312 312 316 321 317 316 315 315 323 324 324 320 334 324 327
301 302 304 305 304 302 306 313 313 315 316 316 314 312 312 310 311 310 312 315 315 315 314 315 319 313 315 314 313 312 312 312 313 313 312 314 320 318 320 320 321 325 324 329 333 331 333
300 302 302 303 305 302 305 308 314 316 316 316 311 313 312 311 311 312 314 314 314 314 314 315 316 315 313 313 312 311 311 312 312 313 312 314 316 320 319 326 327 330 330 332 333 329 330
300 301 302 303 304 302 305 306 313 316 316 313 312 316 312 312 314 314 315 314 314 316 316 316 315 316 312 313 312 312 313 314 312 312 313 315 316 322 322 323 324 328 330 331 330 330 327
298 300 302 303 304 305 304 308 313 315 315 312 314 316 313 312 317 316 314 315 314 316 319 318 318 314 313 312 311 311 314 314 312 315 316 315 318 324 323 326 326 330 330 328 328 326 328
297 299 301 302 303 303 304 306 315 315 315 313 314 318 315 313 314 317 316 317 316 314 315 316 318 316 314 313 311 317 314 316 314 314 321 319 322 320 330 328 327 331 331 328 327 328 326
296 299 300 301 303 302 304 306 314 315 315 312 313 316 316 316 315 316 318 317 318 318 318 317 318 316 317 316 315 314 315 316 315 312 318 318 325 325 324 326 327 328 328 327 327 325 327
296 298 299 301 303 301 304 305 306 315 314 311 313 313 316 319 314 316 316 318 319 318 318 320 318 321 320 317 315 316 315 316 315 316 314 318 323 324 324 323 325 327 327 326 326 325 325
295 297 299 300 302 302 303 303 305 313 314 312 312 312 314 316 318 319 319 318 319 317 317 317 318 317 322 320 318 315 314 315 317 317 319 320 323 324 323 323 323 325 324 325 325 324 324
296 296 298 300 301 302 302 302 305 312 314 312 310 312 315 316 313 317 318 318 320 319 319 320 320 321 321 318 319 317 318 316 316 317 318 321 322 324 322 322 325 321 317 320 322 322 321
295 296 298 299 300 302 301 303 304 306 312 312 310 311 314 317 315 314 313 319 318 316 320 319 320 316 316 317 323 324 323 322 317 313 315 319 322 325 326 325 325 322 316 319 320 322 320
295 295 297 299 300 302 301 301 305 308 311 312 310 310 310 314 314 313 315 317 317 317 316 315 310 309 312 317 324 326 324 324 323 320 316 321 321 326 323 324 327 318 316 314 317 320 314
295 295 297 299 300 301 301 301 304 306 311 312 311 311 310 313 313 311 312 316 317 315 315 312 312 313 314 317 325 324 325 322 325 324 323 324 324 326 326 326 323 317 314 314 319 320 313
295 295 297 298 300 301 301 301 303 306 311 311 310 311 310 313 313 311 310 311 315 315 316 312 315 316 318 321 324 322 323 324 323 320 323 324 324 326 324 327 326 315 315 319 317 314 314
295 295 297 298 299 300 301 302 304 305 311 310 309 310 310 310 312 310 309 309 309 310 312 310 315 318 320 322 320 318 317 315 323 325 319 324 322 323 322 322 316 314 314 313 314 312 313

GFSGBSN_925_thetae_003.txt.gz
Theta_e
318 316 314 315 317 317 315 318 318 316 316 317 315 314 314 314 314 313 314 312 314 315 314 314 314 314 316 318 319 316 314 316 318 318 322 323 323 322 323 325 328 328 328 328 328 328 327
320 318 317 314 314 317 315 316 318 316 315 317 316 315 313 314 314 312 313 313 313 314 315 312 312 313 315 317 312 314 315 316 317 321 321 321 322 321 322 321 323 327 328 327 327 327 326
317 320 318 317 315 315 316 315 317 317 316 314 316 316 313 312 313 312 313 314 314 314 312 312 311 313 315 313 313 313 314 316 316 315 315 322 322 322 323 324 322 326 329 329 330 328 329
314 317 320 318 316 314 316 315 316 317 317 315 316 315 314 311 311 312 311 312 312 314 313 314 311 314 314 312 312 312 312 313 314 314 313 313 317 318 322 322 322 327 329 333 329 329 328
309 313 315 318 316 315 315 315 316 317 317 316 314 314 313 311 311 312 311 312 311 312 312 311 311 313 313 311 312 312 313 312 312 313 313 313 314 318 319 323 325 325 329 330 331 328 329
306 308 312 315 318 315 315 315 316 317 316 317 315 313 313 313 310 312 311 310 311 311 310 312 313 313 312 312 311 312 312 312 312 311 312 316 315 317 318 323 325 325 327 327 331 328 329
306 307 308 310 314 317 314 314 315 315 316 316 316 315 313 313 309 311 311 309 310 310 312 310 311 311 312 312 311 312 311 311 312 312 313 312 317 319 317 318 320 320 323 327 327 328 329
305 306 306 309 313 313 316 314 314 314 316 316 315 316 313 313 308 311 311 312 311 310 313 311 311 311 311 312 313 312 311 312 313 314 312 313 315 315 315 316 319 321 323 324 323 326 329
303 306 307 307 309 310 313 315 314 314 316 316 315 315 313 312 309 311 311 311 311 311 312 313 312 312 312 312 313 313 312 311 313 313 313 314 313 313 315 315 318 319 322 322 323 325 328
303 303 305 306 308 309 311 314 316 314 315 316 315 314 313 310 310 310 310 310 311 312 313 313 310 313 313 313 314 312 312 312 313 313 313 313 312 313 315 316 315 318 317 320 323 326 334
301 302 304 305 306 307 311 310 314 315 315 316 315 314 312 308 309 310 311 311 312 311 313 311 312 310 312 313 313 312 312 313 314 313 313 314 313 314 314 315 315 316 315 318 323 328 329
300 301 302 304 306 307 309 309 311 314 315 316 315 313 311 310 310 312 311 311 310 313 311 315 313 313 313 314 314 312 312 312 313 314 313 312 311 313 313 313 314 316 319 321 324 325 330
298 300 302 303 304 306 307 308 310 310 315 316 315 312 310 309 309 311 310 308 314 314 312 316 315 313 313 315 314 313 314 316 316 316 315 314 314 312 314 315 315 316 319 324 323 327 328
297 299 301 303 303 305 306 306 307 308 315 316 314 311 309 309 310 310 309 313 317 313 313 314 313 313 315 313 315 314 313 316 314 312 313 313 311 314 313 315 315 316 317 322 322 327 325
297 299 301 302 302 303 305 306 304 310 315 316 313 311 309 310 311 309 309 313 314 314 317 317 315 317 317 314 313 315 313 314 313 312 311 316 314 313 313 315 316 316 320 319 323 327 330
297 298 299 301 302 302 303 303 304 306 315 316 313 311 310 310 310 309 313 313 314 315 316 316 319 315 315 313 315 313 314 313 313 311 310 314 315 314 315 315 316 317 319 323 324 331 335
296 297 298 300 300 302 304 303 303 308 315 316 313 313 312 310 310 311 314 313 314 314 315 316 317 317 313 313 313 313 311 311 311 312 311 313 313 314 317 319 321 319 322 323 323 323 334
296 297 298 300 300 303 303 304 305 306 311 314 312 317 312 310 314 313 315 313 314 316 315 316 315 316 316 312 312 310 311 310 312 311 313 314 316 318 315 320 317 320 323 323 323 327 326
296 297 297 299 300 302 300 303 305 311 314 312 315 315 312 311 315 315 314 315 314 316 317 318 317 317 315 314 316 312 312 312 312 313 315 315 317 319 322 323 322 324 323 325 325 326 327
297 296 297 298 300 302 303 303 304 308 314 313 315 318 315 314 314 314 315 316 317 315 315 316 318 317 319 315 313 314 311 313 313 313 316 314 318 320 324 327 325 328 322 327 325 327 322
297 296 296 297 300 301 302 302 303 305 314 313 314 317 314 315 315 316 316 318 319 318 315 316 317 317 318 316 312 313 315 314 314 319 315 315 317 313 316 318 322 325 326 323 320 326 322
296 296 296 297 300 301 302 301 302 303 311 313 314 315 314 315 313 315 316 319 319 318 318 320 319 319 318 320 313 314 315 315 313 316 314 312 316 316 326 326 327 327 326 326 325 326 324
297 296 296 297 299 300 301 302 301 302 306 313 312 312 315 317 316 317 317 315 318 317 317 316 317 319 320 319 319 317 317 312 314 311 313 315 317 325 325 327 328 329 327 325 324 323 324
297 295 296 296 299 300 301 302 301 302 304 308 312 312 314 317 316 318 317 316 317 318 318 317 317 317 317 317 318 318 319 314 314 313 311 313 318 323 324 319 323 319 316 322 323 323 321
296 296 296 296 298 300 301 302 302 303 304 311 311 313 315 318 316 316 314 311 316 317 318 318 317 313 317 319 321 323 321 320 317 314 315 316 317 323 323 322 321 317 315 318 322 322 319
296 296 295 296 298 299 300 302 301 303 304 309 312 312 311 315 316 314 312 315 315 315 316 316 311 309 317 320 323 324 325 323 321 322 316 317 319 324 320 320 327 318 315 313 315 320 313
296 296 295 296 298 299 301 302 301 303 305 310 312 312 311 313 313 314 314 315 315 316 316 313 313 313 314 321 324 321 322 318 322 323 323 323 322 321 322 323 319 316 314 312 320 318 313
296 296 295 296 297 299 300 302 302 303 305 310 311 312 311 312 312 311 309 311 314 314 317 313 316 315 317 321 323 322 323 320 320 319 321 323 324 325 324 325 323 314 314 315 313 313 311
296 296 295 296 297 298 300 301 302 302 305 308 310 311 311 311 312 310 310 310 311 312 313 312 315 316 317 320 320 319 316 319 319 323 317 324 320 323 323 321 316 312 314 313 311 310 310

GFSGBSN_925_thetae_006.txt.gz
Theta_e
316 317 320 319 318 314 315 317 315 317 317 317 317 316 315 314 314 314 313 312 312 315 313 313 314 314 316 319 317 316 317 317 320 325 324 323 322 322 322 322 323 325 324 328 328 328 328
312 314 315 318 320 317 314 314 316 315 318 316 317 316 315 314 314 313 311 313 311 313 314 312 312 313 314 314 312 314 315 316 318 320 320 322 322 320 321 320 321 322 324 326 326 326 327
307 309 310 313 317 319 317 313 316 315 317 317 316 316 315 312 313 313 312 313 314 313 313 313 312 312 315 312 311 312 313 314 315 318 320 320 321 322 322 324 321 322 325 324 324 327 327
308 308 308 309 311 315 318 316 314 315 315 317 317 315 316 314 311 312 311 313 311 314 313 313 311 313 312 310 311 310 311 312 313 315 314 314 315 321 321 321 321 324 325 328 325 326 327
306 306 306 307 309 312 315 317 315 314 314 317 317 315 315 313 311 310 313 311 311 311 312 312 311 312 311 311 312 310 312 312 312 312 313 313 313 317 316 323 324 322 325 325 326 326 328
304 303 305 307 307 308 312 314 317 315 315 316 316 316 314 313 312 311 312 311 311 312 311 312 312 314 312 312 311 311 312 312 311 311 311 314 315 315 316 322 325 324 324 322 323 327 327
303 303 303 305 307 307 309 312 312 316 314 316 316 317 315 313 312 311 312 309 308 309 312 310 310 311 309 311 311 311 312 311 312 311 312 311 316 317 315 316 317 319 321 321 320 321 325
301 302 303 303 305 306 307 309 311 312 314 314 316 316 316 313 312 310 311 309 308 309 311 310 310 311 311 311 313 312 311 312 313 314 311 313 315 313 314 314 317 318 319 319 319 319 322
299 298 301 303 303 304 306 308 310 312 316 314 315 316 316 313 312 311 311 311 311 310 311 312 311 311 311 311 313 313 311 311 313 313 313 313 312 311 314 316 317 317 318 318 319 319 320
299 299 299 301 302 303 305 306 307 310 314 314 314 316 316 313 311 311 311 311 310 311 312 311 311 313 313 313 314 312 311 312 313 313 312 312 312 312 313 315 314 317 315 318 319 322 323
299 300 298 300 301 303 304 306 308 310 309 314 314 315 315 312 308 310 310 310 311 310 301 309 311 310 313 313 314 313 312 312 314 312 312 312 313 313 313 313 314 315 314 315 317 319 320
299 298 298 300 301 303 303 303 305 308 309 311 315 315 314 309 309 309 310 310 310 306 305 313 312 312 314 314 314 312 313 313 313 313 313 311 310 312 312 311 311 314 315 315 317 320 323
298 298 298 299 300 303 303 303 304 307 307 310 312 315 313 309 310 311 311 309 309 307 310 315 314 313 313 314 314 314 314 315 315 315 314 314 313 311 314 315 313 313 315 321 321 319 321
298 298 297 298 299 301 302 302 305 306 307 308 309 315 312 309 311 311 309 309 309 309 312 312 312 313 314 313 315 314 315 315 314 313 316 315 314 313 312 313 315 315 315 318 317 318 318
299 298 297 297 299 300 302 301 305 305 305 306 309 313 310 309 311 310 310 312 307 311 313 314 313 315 315 315 314 315 315 313 310 312 314 314 313 312 311 312 313 315 315 314 318 319 323
298 298 297 298 298 300 301 301 304 305 304 306 307 311 310 309 310 309 311 310 311 313 315 315 317 316 315 315 314 313 314 311 313 312 310 309 310 312 313 313 312 314 313 317 317 319 324
298 298 298 297 298 298 301 300 303 304 305 307 310 311 309 310 309 310 312 309 312 313 314 317 318 318 315 311 312 312 311 311 311 311 310 310 312 313 312 315 315 315 315 316 314 318 326
298 297 298 297 297 298 300 302 302 304 305 306 311 312 310 310 312 311 314 313 312 314 314 316 316 316 315 311 313 311 311 309 310 310 312 311 315 315 314 312 314 313 314 314 318 318 323
298 297 297 296 297 298 300 302 302 304 308 311 313 314 310 310 314 313 313 313 313 316 316 317 318 315 314 314 313 311 310 310 310 311 312 314 317 317 317 316 314 319 315 317 318 322 323
298 297 297 296 297 297 300 301 303 302 304 311 313 316 313 312 313 313 313 314 315 315 315 316 318 316 317 317 312 313 312 312 312 311 315 314 316 317 318 322 318 319 319 317 318 323 322
298 297 297 296 297 297 300 301 303 302 303 311 314 315 313 313 314 314 313 316 316 317 315 316 315 317 318 318 314 314 313 311 314 316 315 314 316 314 315 315 317 317 323 320 323 322 321
298 297 297 296 297 297 300 301 302 301 305 312 315 316 313 312 313 316 314 317 317 318 318 319 318 318 316 319 313 314 313 314 314 315 315 313 315 314 316 321 320 322 323 322 323 320 320
297 297 297 296 296 298 299 300 303 302 303 304 312 311 314 313 314 315 316 316 316 315 316 316 318 317 319 317 316 316 316 314 313 317 313 313 315 318 326 326 326 329 324 324 316 316 317
297 297 297 296 296 298 299 301 303 301 303 305 310 310 315 318 316 316 316 315 315 315 316 316 316 317 316 317 318 318 318 317 313 312 311 313 315 317 324 327 326 319 321 320 322 321 320
297 297 297 297 296 298 299 301 303 301 302 305 308 310 311 317 316 315 315 314 312 314 316 317 316 316 314 317 321 320 320 320 316 314 310 311 316 319 322 321 320 318 315 321 323 323 317
296 297 297 297 296 297 299 300 302 301 303 306 309 312 310 315 316 315 314 313 314 313 315 316 313 310 316 320 322 324 322 318 319 320 314 315 316 321 319 320 325 317 315 312 315 321 313
297 297 296 296 296 297 298 300 301 302 303 305 311 311 311 314 312 312 313 313 312 313 314 313 313 315 315 321 323 323 321 317 319 318 320 319 320 319 318 322 317 315 314 312 322 318 313
296 296 296 295 296 297 298 300 301 302 302 305 308 312 312 313 312 310 309 312 312 312 315 314 316 316 318 322 322 323 320 317 319 316 319 320 323 321 320 322 319 314 313 315 312 311 310
296 296 297 295 296 297 297 299 300 301 302 304 309 312 312 311 312 310 310 310 310 311 313 312 315 316 318 320 320 321 317 315 321 320 316 321 319 323 318 317 314 312 314 312 309 309 308

GFSGBSN_925_thetae_009.txt.gz
Theta_e
308 309 309 311 312 315 317 318 315 315 316 316 318 317 317 315 314 314 314 314 313 315 313 313 314 314 318 318 317 316 318 320 325 326 325 323 322 321 321 321 321 323 323 323 325 327 327
307 308 308 309 310 311 313 315 318 315 316 315 318 317 316 315 315 314 313 313 313 314 315 312 312 314 314 313 311 315 316 316 319 324 324 322 322 319 321 320 320 320 321 322 324 324 324
305 306 306 307 308 309 310 313 314 317 314 315 317 317 317 315 314 313 313 313 313 313 313 312 311 311 313 312 311 312 312 313 314 319 319 321 322 321 321 323 320 321 323 322 321 323 325
304 305 305 305 307 308 308 309 311 316 316 314 315 317 317 315 314 312 312 313 314 313 313 313 312 313 311 310 310 310 311 311 313 316 315 315 318 320 321 320 320 323 322 325 321 322 323
302 303 303 304 305 307 308 308 309 313 314 315 314 316 316 316 315 311 311 311 311 311 313 312 312 311 311 310 312 310 310 312 311 312 312 313 313 317 316 322 323 321 322 323 323 321 325
301 301 301 301 303 304 305 306 308 310 312 314 314 315 316 316 315 311 310 312 311 312 312 312 312 313 311 312 311 311 311 312 311 310 311 313 316 317 318 321 322 322 324 321 321 324 323
301 301 300 300 301 302 303 304 306 309 309 311 315 314 316 316 314 311 312 310 307 308 311 311 311 312 310 310 311 311 311 311 311 310 312 311 317 319 317 315 318 317 319 321 320 318 319
300 300 300 300 300 300 302 304 305 306 308 309 312 314 316 316 313 311 312 308 307 308 310 309 310 311 310 311 312 312 311 312 312 314 311 313 314 312 312 312 314 315 318 319 317 317 319
300 300 299 300 299 300 301 303 304 306 307 309 309 314 315 316 313 312 310 310 310 310 310 310 310 310 310 310 313 313 311 311 313 313 312 313 312 312 312 313 316 315 316 316 316 316 316
300 300 299 299 298 300 301 303 304 305 306 306 309 313 314 316 313 312 310 310 310 310 306 308 311 312 311 312 313 312 310 311 312 313 314 314 312 312 311 312 313 315 314 316 316 316 317
300 300 299 299 298 299 301 301 304 304 305 306 308 312 314 315 310 311 309 310 310 306 302 308 310 310 312 312 313 312 311 312 313 312 311 314 312 312 312 312 312 313 313 313 316 318 316
300 300 299 299 298 298 300 302 304 303 303 305 308 308 313 312 310 310 309 310 310 303 304 312 311 313 315 314 314 312 313 312 312 313 312 310 309 311 311 311 310 312 313 314 314 315 318
300 300 300 298 298 299 301 302 303 302 304 306 307 307 309 310 309 309 310 309 309 305 309 313 313 312 312 315 314 314 315 316 316 316 315 316 312 311 312 312 311 311 313 317 319 318 318
299 299 299 299 298 299 300 300 302 302 305 306 307 306 306 311 308 309 310 310 307 307 310 312 312 312 312 312 313 314 315 315 314 312 315 315 316 312 311 312 314 313 312 314 316 319 314
300 299 299 299 298 298 299 300 301 303 304 305 305 308 305 310 309 310 310 311 308 307 310 313 312 314 314 313 314 314 315 313 312 311 314 312 312 311 311 311 312 315 317 312 313 315 322
300 300 299 298 298 297 298 300 301 303 304 304 307 305 307 310 310 310 311 308 307 310 312 312 314 314 314 314 314 314 313 311 312 310 310 311 313 310 312 311 311 312 312 317 315 319 320
299 299 299 298 298 297 298 300 302 302 303 303 306 308 308 310 310 311 312 307 309 311 314 315 315 316 313 314 313 311 311 310 310 310 311 311 308 309 311 313 313 314 314 314 312 314 315
299 299 299 298 298 297 298 300 302 303 303 305 306 306 310 309 312 312 312 310 311 312 313 315 315 315 315 312 312 310 310 310 309 309 313 311 312 312 311 310 312 313 312 313 317 309 312
299 298 299 298 298 297 298 300 302 303 303 303 309 311 310 309 312 311 311 311 312 314 315 315 317 315 315 313 313 311 310 309 310 310 312 311 316 314 317 315 312 314 312 312 312 315 315
298 298 298 298 298 297 298 300 302 303 302 305 309 310 310 310 312 310 310 312 313 313 313 315 317 316 316 316 311 313 311 311 309 311 313 312 315 316 315 318 316 314 316 313 312 315 314
298 298 298 298 297 296 299 300 302 303 302 306 310 311 309 311 313 311 311 313 314 315 315 314 316 316 317 317 315 313 312 312 313 313 313 313 315 315 315 314 315 317 318 315 315 314 316
297 297 298 297 297 296 298 300 301 302 301 308 313 314 310 310 312 311 312 313 317 315 316 318 318 316 317 319 314 312 313 313 313 315 314 314 316 314 316 315 314 315 315 318 316 316 317
297 297 297 298 297 296 298 299 301 302 302 304 305 311 311 311 313 313 313 313 315 316 317 316 316 317 318 318 314 313 314 314 314 315 316 313 314 317 318 321 320 319 316 317 319 318 319
297 297 297 297 297 296 297 299 301 302 303 304 305 306 314 314 313 314 315 314 315 315 315 316 315 317 316 315 316 315 316 317 316 314 313 314 314 316 318 320 329 322 321 319 320 318 317
297 297 297 297 296 296 297 299 301 302 303 304 306 309 314 316 313 314 314 315 314 313 315 314 314 314 314 315 320 320 320 319 317 311 313 312 314 319 325 321 320 320 323 322 321 320 317
297 297 297 297 296 296 297 298 301 301 302 304 306 309 310 315 315 314 315 313 315 314 314 315 313 310 314 318 321 323 320 317 317 318 310 310 312 318 320 322 322 316 317 314 318 323 320
297 297 297 297 296 296 297 298 300 301 301 303 305 309 310 311 312 312 314 313 311 311 311 313 313 315 314 318 321 321 319 315 318 318 319 318 318 318 319 322 316 314 313 310 323 319 311
297 297 297 297 297 296 297 298 300 300 300 302 305 309 311 312 312 311 310 311 311 311 314 314 315 315 317 320 320 320 317 316 316 314 316 318 319 318 316 320 316 313 313 315 312 309 310
297 297 296 297 297 296 297 297 299 300 300 301 306 308 311 310 311 310 310 309 311 311 312 312 315 316 317 319 317 319 319 313 315 317 313 318 316 317 315 315 312 311 312 311 308 308 307

GFSGBSN_925_thetae_012.txt.gz
Theta_e
306 307 307 307 307 309 310 311 312 313 316 317 317 317 319 317 315 315 314 314 314 314 313 313 314 314 319 319 320 316 318 321 325 326 324 323 322 319 320 319 320 323 322 323 322 322 324
305 305 305 305 307 307 308 310 311 311 314 317 317 315 318 317 316 314 313 313 314 313 314 313 313 314 314 314 311 314 316 317 325 326 324 322 321 319 320 320 319 319 320 320 320 323 322
304 303 304 304 305 304 306 306 309 310 311 313 316 315 316 317 316 314 313 312 312 313 312 312 312 312 312 312 311 312 312 314 317 323 320 323 321 320 319 321 319 320 322 320 320 320 321
303 303 303 302 302 302 304 305 305 307 309 312 313 315 315 316 316 314 312 311 313 313 314 312 313 312 309 309 310 310 311 311 313 315 316 317 320 320 322 319 319 323 322 323 319 319 320
302 302 302 301 302 303 302 302 304 305 307 310 312 312 314 315 316 314 311 311 311 311 313 312 313 310 310 310 312 310 311 311 312 314 314 313 317 317 317 320 320 321 319 321 320 319 321
302 301 301 301 301 301 301 301 303 304 305 308 310 310 314 314 316 315 310 311 311 311 312 312 311 311 310 311 311 311 310 311 310 310 311 312 315 316 316 317 316 318 321 321 321 320 317
301 300 300 301 300 299 299 301 303 303 304 306 308 309 310 315 316 314 310 311 308 310 312 311 311 310 310 311 311 311 311 311 310 310 313 311 316 319 318 315 315 317 318 319 319 317 318
301 300 301 301 301 299 299 300 302 303 304 305 306 307 309 313 316 313 310 308 307 307 309 309 310 310 310 310 312 311 311 312 312 313 310 313 313 312 314 315 316 316 317 317 314 314 315
302 302 301 301 300 300 299 299 301 302 304 305 306 306 309 311 316 313 310 309 309 309 308 308 309 310 310 310 312 312 310 310 312 312 313 313 312 311 312 313 315 314 314 313 313 312 312
302 301 301 301 300 299 300 298 301 302 303 304 304 306 308 309 315 312 311 310 310 309 300 306 311 310 310 310 312 311 310 311 311 313 312 313 312 312 311 312 311 314 312 314 315 315 314
302 301 301 301 300 299 299 300 301 302 303 303 304 306 307 310 313 311 311 309 310 305 304 308 311 310 311 311 311 311 310 311 312 311 312 313 312 312 313 312 310 312 312 313 314 316 314
302 301 301 300 300 299 299 300 301 301 301 302 305 306 307 305 311 311 310 310 309 301 303 311 310 314 314 312 314 312 312 311 311 313 312 310 309 310 310 310 310 311 311 312 313 316 317
302 301 301 300 300 299 299 299 300 300 301 304 305 306 307 305 310 310 310 308 308 307 309 312 312 312 314 314 314 314 314 314 315 317 316 315 313 311 311 311 310 311 313 315 319 318 314
301 301 300 300 300 299 299 299 299 300 302 303 305 305 306 305 305 309 309 307 311 307 308 310 310 311 312 313 313 315 316 316 314 315 315 315 311 313 310 312 312 311 312 315 315 316 312
301 300 300 300 300 299 299 298 299 302 302 304 304 305 305 304 305 309 309 311 309 307 311 312 311 311 312 312 313 313 315 315 312 314 315 315 309 310 310 310 312 316 314 310 313 312 315
300 300 299 299 299 299 298 299 300 302 303 304 304 306 305 303 307 309 309 309 307 308 311 311 312 312 314 314 313 315 314 311 313 312 310 312 313 309 310 310 310 313 313 317 314 315 314
299 299 299 299 299 299 298 298 300 302 303 303 304 305 305 304 309 309 312 309 307 311 312 312 313 313 313 314 313 314 310 309 310 309 310 311 312 309 312 312 311 314 314 315 315 316 314
299 299 299 298 299 298 298 298 301 302 303 302 305 307 308 306 310 308 312 308 310 311 313 315 314 314 314 312 313 310 309 308 308 309 312 311 314 311 310 309 310 310 312 311 314 310 310
299 298 298 298 299 298 297 299 301 302 303 302 307 309 309 308 311 312 310 310 311 313 314 315 315 315 315 314 313 310 309 309 308 310 310 311 315 315 313 313 313 314 312 311 311 312 310
298 298 298 298 298 298 297 298 300 302 303 303 307 309 311 308 310 311 310 311 312 311 313 314 316 315 315 316 311 312 311 310 309 310 311 311 314 315 314 316 314 316 315 313 312 314 312
298 298 298 298 298 298 297 298 300 302 301 304 309 308 306 308 310 310 310 311 312 314 313 313 316 315 316 319 317 314 311 310 310 310 313 312 315 314 314 313 314 315 316 315 314 312 312
298 298 298 298 298 297 297 297 300 302 302 305 310 311 308 307 311 309 310 313 313 313 315 315 315 315 316 319 316 314 313 312 314 312 312 313 314 314 315 315 315 317 315 314 316 313 312
298 298 298 298 298 296 297 297 300 302 303 302 302 305 308 310 312 310 311 311 311 314 314 313 314 317 317 317 316 315 313 314 315 315 314 314 313 316 317 316 318 318 316 316 315 316 313
298 298 298 298 298 296 296 298 299 302 302 304 303 306 311 313 312 311 312 310 313 314 314 315 315 316 316 314 315 313 313 313 315 316 314 313 313 315 317 318 326 322 318 314 314 314 315
298 298 297 297 297 297 296 298 299 301 302 302 304 307 313 313 312 311 314 312 312 313 315 314 313 314 313 315 318 320 320 317 317 316 314 314 313 317 322 323 321 322 319 316 314 316 314
298 298 297 297 297 297 297 297 298 301 301 302 303 307 310 312 311 311 313 313 315 315 314 315 312 310 314 317 319 322 319 317 316 316 309 313 312 316 317 324 322 314 320 318 318 325 316
297 297 297 297 297 297 297 298 298 300 300 301 302 306 309 313 311 312 313 314 312 312 313 312 312 313 314 318 319 320 319 314 316 318 319 315 315 316 317 320 316 313 312 316 325 321 311
297 297 297 297 297 297 297 297 297 300 300 301 302 306 309 311 310 311 310 310 310 310 312 312 314 314 315 318 319 319 318 314 314 312 315 315 316 318 317 320 316 312 311 315 312 309 309
297 297 297 297 297 297 297 297 297 299 300 300 301 303 308 308 310 310 309 309 310 309 312 312 314 315 315 319 317 319 319 311 313 316 312 316 313 315 314 314 310 311 311 310 307 308 307

GFSGBSN_925_thetae_015.txt.gz
Theta_e
305 305 305 305 304 304 304 306 307 308 309 313 315 317 318 318 318 316 315 314 313 312 314 312 313 313 318 319 321 316 317 320 324 326 323 323 320 318 319 319 320 323 322 322 321 321 322
304 304 304 304 304 303 304 303 304 305 306 309 312 314 316 316 317 317 315 312 312 313 313 314 312 314 314 316 313 314 316 319 325 325 323 321 321 318 319 320 319 318 320 320 320 321 322
304 304 303 303 302 302 303 303 303 303 305 306 310 313 313 316 316 317 315 311 311 313 312 313 311 312 312 311 310 311 313 315 324 323 323 322 321 319 319 321 319 320 323 320 320 320 321
303 303 302 302 303 302 301 301 301 302 304 305 307 310 311 314 315 316 314 312 310 313 314 312 313 311 309 309 310 310 311 312 314 320 317 320 321 320 321 318 317 322 321 323 318 320 320
301 302 301 302 302 303 302 301 301 301 304 304 305 307 310 311 314 316 315 311 310 313 311 314 312 309 310 310 311 310 311 311 312 314 313 318 317 317 319 319 319 319 319 321 320 318 320
301 301 302 302 302 302 302 301 301 300 303 304 305 306 308 309 312 315 314 311 311 311 312 313 311 311 310 311 310 310 310 311 310 310 311 312 314 316 317 319 318 317 321 319 320 319 317
303 304 303 302 302 302 301 301 301 300 302 303 304 305 306 306 310 314 313 312 310 311 311 310 310 311 310 310 310 310 310 310 309 310 314 312 317 318 316 315 314 316 318 318 317 316 316
303 303 302 303 302 301 301 300 300 301 301 302 304 305 305 306 309 312 311 310 308 308 310 310 310 310 310 310 311 311 311 311 311 313 310 313 316 314 313 315 317 317 318 318 316 313 314
303 303 303 302 302 301 301 300 300 300 301 302 303 303 304 306 309 310 310 309 309 309 307 308 309 310 310 310 311 312 310 310 311 312 312 314 311 310 313 314 315 316 316 315 314 313 312
303 303 303 302 302 301 301 300 300 301 301 302 303 303 304 305 307 311 310 309 309 308 301 306 310 310 309 310 312 311 310 311 311 314 313 313 311 312 311 313 313 315 311 313 314 314 314
303 302 302 302 301 301 301 300 300 301 301 301 302 302 303 306 307 312 310 309 309 305 302 307 309 309 310 311 310 311 310 311 312 312 311 312 312 312 313 312 310 312 310 312 313 316 315
302 302 302 301 301 301 301 300 300 300 300 301 300 304 305 305 307 307 309 309 306 304 306 311 310 313 313 311 313 311 312 311 311 311 311 309 309 310 311 310 310 311 312 312 313 315 317
301 301 301 300 301 300 300 300 300 300 301 300 303 304 305 305 307 308 310 308 310 305 308 312 312 315 313 313 314 313 314 314 316 315 315 314 313 311 310 311 310 311 314 316 316 317 315
300 299 300 300 300 300 300 299 299 300 301 302 300 304 305 306 304 304 309 309 311 307 308 310 311 313 314 312 313 314 314 315 313 314 315 312 310 313 312 311 312 312 313 315 315 314 314
299 299 300 300 300 299 299 299 299 299 301 303 302 305 306 305 305 304 308 313 309 307 311 311 311 312 312 312 313 314 315 315 314 313 315 313 312 309 309 310 311 313 314 311 314 313 315
298 299 300 299 299 299 299 299 298 301 302 303 302 304 305 304 304 304 307 312 307 309 310 310 313 311 312 312 313 314 314 311 313 312 312 311 312 307 310 310 310 313 312 314 314 315 315
300 299 299 299 299 299 299 298 299 301 302 303 302 306 305 303 304 306 311 308 308 310 310 311 312 312 311 314 311 314 311 309 310 310 311 311 312 308 311 312 312 313 314 315 314 316 316
299 299 299 299 299 298 299 298 299 301 302 302 301 308 305 306 305 304 311 308 310 312 313 314 312 312 311 312 313 313 311 307 307 308 313 311 313 312 309 310 310 311 312 312 315 313 313
299 299 299 299 299 299 298 297 299 301 303 303 303 307 305 304 310 311 310 311 311 312 314 314 314 314 313 312 314 311 309 308 307 309 310 311 314 311 311 312 311 313 312 312 312 312 313
299 299 299 299 299 299 297 297 299 301 303 304 304 307 308 308 309 310 310 311 311 311 313 313 315 314 315 315 311 312 310 309 308 309 311 311 312 312 313 314 314 315 313 312 313 316 313
299 299 299 298 298 298 297 297 299 301 301 305 306 305 306 309 310 310 309 309 312 313 312 311 316 316 314 317 316 314 310 310 309 310 312 312 314 313 313 312 312 313 316 314 314 313 314
299 299 299 298 298 298 297 297 299 299 302 302 305 309 307 308 309 310 311 309 309 312 314 314 313 313 315 317 315 315 313 311 312 309 312 313 315 314 315 314 314 314 314 314 314 314 313
299 299 298 298 298 298 297 297 298 299 302 303 302 304 308 310 310 310 308 311 311 311 312 314 313 314 316 315 315 315 314 313 312 312 313 314 314 316 317 316 317 319 317 316 315 314 313
298 299 298 298 298 298 298 297 298 299 302 302 303 304 310 310 310 310 309 309 311 312 314 314 312 315 315 314 314 314 314 315 314 313 313 315 312 314 317 317 324 323 317 315 315 314 312
298 298 298 298 297 297 298 297 298 299 301 301 302 305 311 311 310 310 308 308 309 311 314 314 313 313 313 315 315 319 319 318 316 314 315 315 315 318 319 320 320 320 318 317 316 316 312
298 298 298 298 297 298 298 297 298 298 300 301 302 305 308 309 310 309 312 310 313 312 314 314 312 309 312 314 316 321 320 315 314 314 308 314 314 318 317 320 325 316 317 313 316 322 314
298 298 298 298 298 298 298 297 298 297 300 301 301 303 306 313 310 309 311 312 312 313 314 312 312 312 312 314 316 320 320 312 315 316 316 315 315 318 317 319 316 313 311 316 322 318 309
297 297 297 297 297 297 297 297 298 297 299 300 300 303 302 310 310 310 309 310 309 309 313 311 313 313 315 316 318 318 319 312 313 311 313 314 315 316 316 318 315 311 315 317 311 307 308
296 296 297 297 297 297 297 298 297 297 299 300 300 299 300 307 310 309 309 309 310 309 311 311 313 314 314 316 316 318 317 310 311 315 310 314 312 314 313 313 310 310 309 308 306 306 307

GFSGBSN_925_thetae_018.txt.gz
Theta_e
305 306 304 305 304 303 304 304 304 304 304 305 307 309 313 314 316 317 317 316 315 314 312 313 312 313 318 322 323 316 317 319 324 325 324 323 323 322 323 322 322 324 322 322 322 323 323
304 304 303 303 304 304 303 302 302 302 302 304 305 307 310 312 314 316 317 315 315 314 311 314 312 313 315 321 315 316 316 320 324 325 324 323 323 320 321 321 322 320 322 322 322 322 321
303 303 304 303 304 304 304 303 303 302 301 302 305 306 307 310 311 315 316 315 315 314 311 313 312 313 314 312 311 311 314 316 323 325 324 322 320 322 322 322 321 320 321 320 320 320 320
303 303 303 303 303 303 304 304 303 302 302 301 304 305 306 308 310 313 316 316 314 312 313 313 312 311 312 309 311 311 312 314 321 320 322 322 322 319 318 320 319 320 321 323 320 321 321
303 305 305 303 304 303 303 303 303 302 301 302 303 304 305 307 308 309 315 316 313 312 313 314 313 311 314 310 312 311 311 314 316 315 318 320 319 319 320 319 321 320 322 322 321 319 321
305 303 304 304 304 304 303 303 302 301 302 302 302 303 305 306 307 306 313 316 312 313 313 313 311 313 312 313 311 311 311 312 314 315 316 317 317 317 317 321 324 322 322 320 320 319 320
304 304 304 304 304 303 303 303 302 302 301 301 302 303 304 305 306 307 308 315 311 313 313 313 313 312 312 311 311 311 311 311 313 316 318 316 317 319 318 318 318 318 319 320 318 317 317
304 304 304 304 304 303 302 302 302 302 301 301 302 302 304 304 305 306 307 310 310 311 312 312 311 311 311 311 313 312 311 313 314 316 316 316 317 316 315 316 317 317 319 319 317 316 316
304 303 303 303 303 303 302 302 301 301 301 301 302 302 303 303 304 305 308 311 310 309 312 311 312 312 312 311 313 313 312 312 315 316 316 317 315 313 315 316 317 318 318 317 316 314 314
301 302 303 302 302 302 301 301 301 301 301 301 301 301 302 303 304 305 308 308 309 307 315 311 312 312 311 312 313 312 311 313 314 316 315 316 314 313 314 316 316 318 314 315 315 315 317
301 301 302 301 301 301 301 301 301 300 301 301 301 299 300 303 304 306 309 309 309 307 318 310 310 310 311 311 312 312 311 312 314 314 314 316 313 314 314 314 313 315 312 312 313 315 315
301 301 301 301 301 301 300 300 301 300 300 301 302 302 303 303 304 305 308 309 307 311 316 311 311 314 313 311 312 312 313 312 312 313 313 313 311 312 313 313 312 312 313 313 313 314 319
300 300 300 300 300 300 300 300 300 300 300 302 302 303 303 304 305 306 306 306 310 319 309 311 311 313 312 312 314 313 314 314 315 316 316 314 313 312 311 312 312 313 313 316 318 319 317
300 301 300 300 300 300 300 300 299 300 301 302 303 302 304 305 305 307 308 307 316 312 312 310 312 312 314 311 314 314 314 316 313 313 315 315 318 314 312 313 313 312 313 315 316 315 314
301 301 300 300 299 299 300 299 299 300 301 302 303 302 305 306 304 304 305 314 315 310 311 311 313 313 314 311 313 313 314 313 313 313 316 315 313 311 312 312 312 314 315 313 316 315 317
300 300 300 299 299 299 299 299 299 300 301 302 301 303 305 305 303 304 305 315 309 311 310 311 313 311 313 313 313 313 314 313 313 313 312 314 315 310 312 312 312 313 312 315 316 315 316
300 300 300 299 299 299 299 298 299 300 302 303 301 304 305 305 301 304 312 312 312 310 311 312 313 313 313 312 312 313 314 312 312 314 313 313 313 312 311 313 313 313 314 317 314 316 315
300 300 300 299 299 299 299 297 299 301 302 303 302 304 303 304 307 306 312 310 311 312 314 314 312 313 313 313 313 314 314 312 310 313 314 313 313 314 313 310 311 311 312 313 317 316 316
300 300 299 299 299 299 299 297 299 300 301 302 303 302 304 306 311 312 310 312 313 314 315 315 315 314 312 313 315 313 313 310 310 312 313 313 314 314 315 314 311 312 312 312 314 314 317
300 300 299 299 299 298 299 297 299 300 301 305 303 307 307 307 309 311 312 313 314 313 314 314 315 315 314 314 313 314 313 311 310 311 311 312 313 314 316 318 316 317 314 313 315 316 316
300 299 299 299 299 299 299 298 299 300 302 303 304 306 307 311 311 311 311 312 313 314 314 314 315 316 315 316 315 315 313 312 311 311 312 312 315 314 313 313 314 315 315 315 315 315 315
298 299 299 299 298 298 298 298 298 299 301 301 303 307 308 310 310 311 311 311 312 313 314 314 314 315 315 316 315 316 314 314 315 312 312 313 315 315 315 315 315 317 316 316 316 315 315
298 299 299 299 298 298 298 298 298 299 301 301 302 303 308 310 311 311 311 311 311 313 312 314 314 315 314 314 314 314 313 313 313 313 314 314 315 316 318 317 319 321 318 317 316 316 315
298 299 299 298 298 298 298 298 298 299 301 301 302 303 309 311 311 311 310 311 312 310 315 314 313 314 315 314 315 315 316 316 316 316 313 315 314 315 317 319 325 321 318 318 318 317 315
298 298 298 298 298 298 298 298 298 298 300 300 301 303 308 312 311 310 310 310 312 313 313 314 313 313 313 314 316 316 319 318 318 316 317 314 316 319 321 321 319 320 318 321 319 319 315
298 297 297 297 297 298 298 298 298 298 299 299 302 303 306 312 311 310 311 309 311 312 313 314 313 312 314 316 316 316 320 317 318 317 314 315 316 318 319 321 323 322 316 315 315 322 314
297 297 296 297 297 298 297 298 298 297 299 300 300 300 302 312 312 310 312 313 313 314 315 313 314 314 313 317 317 316 318 316 319 318 316 316 316 318 317 319 318 316 313 317 322 320 312
297 297 296 296 296 296 297 297 296 297 298 299 299 300 300 306 312 311 311 313 312 314 315 313 314 314 316 316 316 317 319 317 318 316 317 318 319 319 318 318 322 313 316 320 316 313 311
297 296 296 295 295 295 295 295 296 297 297 298 299 298 298 302 312 309 309 309 310 310 313 313 315 315 315 315 315 317 318 315 318 320 313 320 317 319 317 319 315 312 315 313 311 311 310

GFSGBSN_925_thetae_021.txt.gz
Theta_e
305 304 305 305 305 305 306 305 304 304 304 303 303 305 307 308 310 314 315 318 317 316 315 315 312 312 315 322 324 319 318 320 325 325 323 323 323 322 323 322 322 323 321 320 321 322 323
304 304 305 305 305 305 304 305 305 305 304 303 303 304 306 306 308 311 313 316 318 316 315 315 312 312 317 324 318 318 316 320 322 325 324 323 324 322 323 323 323 322 322 323 323 323 322
305 305 306 305 305 304 305 304 304 304 304 303 303 303 304 305 307 309 311 315 317 316 315 314 312 313 314 317 313 313 315 319 323 325 325 323 322 322 323 324 322 323 325 323 323 323 323
306 307 306 305 306 305 305 305 305 304 304 303 303 303 304 304 306 308 309 312 317 316 315 314 313 313 315 312 313 312 313 319 322 324 324 322 321 321 321 320 321 322 322 326 322 322 321
306 305 305 306 305 305 305 305 304 304 304 303 302 302 302 303 305 307 308 307 313 314 314 314 313 313 316 311 311 312 313 318 320 319 321 322 322 321 320 323 322 321 324 324 323 321 321
305 305 305 306 306 305 305 305 304 303 303 303 303 302 303 304 305 306 307 305 312 313 314 314 313 315 313 315 313 312 312 317 318 318 320 320 319 320 321 322 325 323 324 323 322 321 321
306 305 305 305 305 304 304 304 303 303 303 302 302 302 302 302 304 305 306 306 315 314 315 315 315 314 314 313 312 312 312 316 316 318 319 317 319 321 320 319 320 320 320 321 320 319 319
303 302 303 303 303 303 303 302 302 302 302 302 302 302 303 302 304 304 305 305 308 311 315 313 313 313 313 313 314 313 312 316 317 319 317 318 320 318 317 317 319 319 320 320 318 317 317
303 303 303 302 302 302 302 302 302 302 302 301 302 302 302 302 303 303 305 304 306 309 314 314 313 313 313 313 315 314 313 314 317 318 318 319 318 316 317 317 318 318 319 319 319 317 316
302 302 302 301 302 302 302 301 301 301 302 301 301 301 300 302 303 305 306 305 304 309 316 314 313 312 313 313 315 313 313 314 315 317 316 318 316 314 316 317 317 319 316 317 317 317 320
303 302 302 302 301 301 301 301 301 301 301 301 301 302 301 302 304 303 306 305 307 308 323 313 313 311 312 313 314 314 312 313 316 316 316 318 315 316 315 315 315 316 314 314 314 316 316
301 302 302 301 301 301 300 301 301 301 300 301 302 303 303 304 304 304 305 307 305 313 322 313 312 314 313 312 313 313 313 313 313 314 314 315 313 314 315 313 314 313 314 314 314 314 318
301 302 301 301 300 300 300 300 300 300 301 302 303 303 304 304 304 306 305 307 310 318 311 313 312 313 313 312 314 314 315 315 316 317 316 314 314 312 312 314 313 314 314 318 320 320 318
301 301 301 300 300 300 300 300 300 300 301 302 303 303 304 304 305 306 304 309 315 315 313 310 313 312 313 312 313 313 313 315 313 313 316 316 320 314 313 314 315 314 314 316 316 315 315
301 301 301 301 300 300 300 300 299 300 302 302 303 303 306 305 306 305 307 312 318 314 312 313 312 314 314 313 314 314 314 314 313 313 318 318 317 313 313 313 313 314 315 314 316 314 316
301 301 301 300 300 300 300 299 299 301 301 302 303 302 305 306 305 305 309 315 312 311 311 312 314 313 314 312 315 313 313 313 312 313 313 315 318 312 313 313 313 314 313 316 316 316 316
301 301 301 300 300 300 300 299 298 301 302 302 303 303 305 303 305 307 313 313 312 311 312 313 313 313 312 312 312 312 314 314 313 314 313 313 314 314 312 313 314 314 314 315 314 316 318
300 301 300 300 300 299 299 299 299 301 302 304 302 306 304 304 308 309 312 313 311 311 314 313 313 313 313 313 313 315 315 314 313 313 314 313 314 316 315 312 311 312 313 312 317 316 316
300 300 300 300 300 300 299 299 299 301 303 305 303 301 305 305 312 311 310 313 312 314 315 315 315 314 313 314 315 314 314 312 311 314 314 313 315 316 318 315 312 313 313 312 314 316 319
299 300 300 300 299 299 299 299 300 301 303 304 304 307 306 307 310 310 313 314 315 314 315 315 315 313 314 314 315 315 314 312 311 312 313 313 314 316 318 318 316 319 315 314 316 319 317
299 299 300 299 299 298 299 299 300 300 302 302 304 308 308 310 312 311 313 314 315 314 314 315 315 315 315 316 315 315 314 313 312 312 312 312 317 315 314 314 315 317 317 317 317 317 318
298 299 299 299 299 299 299 299 299 299 301 303 304 306 307 309 311 311 312 314 314 314 313 314 315 315 315 316 316 316 315 315 315 313 313 313 317 316 315 315 315 317 317 318 319 319 318
299 299 298 298 299 299 299 299 299 299 301 302 301 303 306 310 311 312 312 313 313 313 315 314 314 315 315 315 315 315 314 313 313 314 314 314 315 316 318 316 318 323 321 320 319 318 318
298 298 297 297 297 298 298 298 299 298 300 300 302 303 309 312 311 311 311 311 311 312 315 314 314 314 316 314 314 315 315 316 315 315 313 315 315 316 320 319 326 324 318 318 321 320 316
298 297 297 298 298 298 298 299 299 298 300 300 302 303 307 312 311 311 311 312 312 311 313 314 314 314 313 315 317 316 318 318 317 316 317 313 315 319 321 321 319 322 320 319 321 321 316
298 297 297 297 296 296 298 298 297 297 299 299 301 300 304 310 312 311 311 312 315 314 314 313 314 314 314 316 316 316 316 319 319 317 314 316 314 319 320 322 323 321 317 316 317 324 315
298 297 297 296 296 296 296 296 296 297 298 299 300 299 301 309 313 310 312 312 311 313 315 315 315 315 314 317 319 316 315 317 318 319 317 316 317 319 319 320 318 317 316 317 323 321 315
298 297 297 296 296 296 296 296 296 297 296 297 299 299 299 303 307 311 311 313 314 315 316 315 315 315 315 317 316 316 319 318 318 317 318 319 319 318 317 318 321 316 318 321 318 316 314
297 297 297 297 296 296 296 296 296 296 297 297 298 297 298 300 306 311 311 311 312 313 314 314 316 315 315 315 314 316 319 317 317 320 316 320 318 320 319 320 318 316 316 315 314 314 313

GFSGBSN_925_thetae_024.txt.gz
Theta_e
306 306 306 307 306 306 305 306 306 306 305 305 305 304 304 304 305 307 310 313 315 318 317 316 314 313 314 320 323 321 321 324 325 325 324 322 321 321 322 319 319 320 321 321 320 321 321
306 307 308 307 306 306 306 307 307 306 306 305 305 305 304 305 305 306 308 311 313 317 317 316 313 312 316 321 320 317 317 319 322 325 325 323 321 320 322 321 321 321 322 321 321 321 321
308 307 307 306 306 307 307 307 307 306 305 305 305 305 304 304 304 305 306 309 311 313 316 315 314 313 314 317 315 317 317 318 322 324 325 323 323 323 323 324 322 322 324 323 322 321 322
309 306 306 308 307 307 306 306 306 306 305 305 305 304 304 303 303 304 306 308 309 311 316 315 315 313 315 313 314 312 315 319 321 324 324 324 321 321 321 320 321 323 323 325 321 321 321
305 308 305 305 304 305 306 305 305 304 304 304 304 304 303 303 304 304 306 307 308 308 316 315 315 314 315 312 312 313 313 318 321 322 324 322 321 322 321 322 323 321 322 323 323 321 322
308 304 304 305 304 304 304 304 303 303 303 303 303 303 303 303 302 303 304 306 305 307 315 314 314 314 313 315 312 312 312 316 319 320 323 324 322 322 322 323 325 323 322 321 322 321 321
304 304 304 304 304 303 303 303 303 303 303 303 303 303 302 302 303 304 304 305 310 316 314 315 315 314 313 314 313 313 312 317 318 320 322 322 323 322 321 321 322 321 321 320 320 319 318
303 303 304 304 303 303 303 302 302 302 302 302 303 302 302 301 303 304 304 305 305 309 315 314 314 314 313 313 315 313 313 318 318 321 319 319 320 318 318 318 319 319 320 320 319 317 317
303 302 304 304 303 302 302 302 301 302 302 302 302 302 301 302 303 302 304 305 303 303 314 315 313 314 314 313 315 315 314 316 318 319 318 319 318 317 317 318 318 318 319 318 318 317 315
303 303 303 303 302 302 301 301 301 301 301 302 301 302 301 301 301 304 304 306 304 304 312 316 315 314 313 315 316 313 313 315 317 319 318 318 317 315 317 318 317 318 316 316 317 316 317
303 303 303 302 301 301 301 301 301 301 301 301 302 303 304 304 302 303 304 305 304 306 321 314 314 312 313 315 315 315 313 314 317 317 316 319 317 316 316 316 315 316 315 314 315 315 313
301 302 302 302 301 301 301 301 301 300 301 302 303 303 303 304 304 304 304 305 305 311 318 315 312 314 315 314 315 314 314 313 314 316 316 316 313 314 315 314 314 313 314 314 314 314 313
301 302 302 302 301 301 301 301 300 299 301 302 303 302 305 304 305 304 305 306 310 313 312 314 314 313 313 314 315 315 315 316 316 317 318 315 314 313 313 315 314 315 314 316 317 318 313
301 302 302 302 301 301 300 301 300 299 301 302 303 303 305 305 305 305 304 307 312 315 314 310 313 313 313 313 314 314 315 316 315 314 317 316 317 314 312 313 315 314 315 316 317 317 315
300 302 302 302 301 301 300 301 299 299 301 302 303 303 305 305 305 305 308 311 314 314 311 313 314 315 313 313 314 314 315 314 313 313 316 316 317 313 313 312 314 315 315 313 315 313 311
301 301 302 301 301 300 300 301 299 300 302 302 304 303 305 305 304 305 309 313 311 311 312 312 313 313 313 314 314 314 314 312 312 312 312 315 317 313 314 313 312 313 312 314 314 310 313
301 300 301 301 301 300 300 300 299 301 302 304 303 304 304 305 305 308 311 310 313 312 311 314 313 313 312 313 314 313 313 313 312 312 312 313 314 314 312 313 314 313 314 314 314 315 312
301 300 301 300 300 299 300 300 300 301 303 304 301 305 303 305 308 309 311 309 312 314 314 313 312 312 311 311 313 312 313 313 311 312 313 312 314 315 313 311 311 312 313 312 315 311 312
300 299 301 300 300 299 300 300 300 301 304 304 303 304 304 304 310 311 308 313 313 315 315 315 314 313 311 312 313 314 315 312 313 313 314 312 315 312 315 314 311 312 312 312 312 313 314
300 300 300 299 300 299 299 299 300 300 303 304 305 307 307 307 310 310 311 314 317 315 315 314 314 313 313 313 315 315 315 312 312 313 313 313 314 313 313 316 315 314 315 314 314 317 316
300 299 299 299 300 300 299 299 299 299 302 303 305 309 308 313 313 310 313 314 314 314 315 314 315 314 314 315 315 315 314 313 312 313 312 312 315 311 314 313 313 314 315 315 317 317 318
299 299 298 298 298 298 299 299 299 299 301 303 306 306 306 311 312 312 313 314 314 315 315 314 316 315 315 315 316 315 314 314 314 312 312 312 311 316 314 313 314 314 314 315 317 319 319
299 298 298 298 299 299 299 299 298 299 301 302 302 303 305 310 311 312 313 313 314 314 314 314 314 314 315 316 315 315 313 313 313 313 313 315 315 316 317 316 315 320 318 320 320 318 320
299 298 298 298 297 297 298 298 298 298 300 300 301 303 307 312 311 312 312 312 313 313 315 314 314 315 316 314 313 315 314 315 315 313 312 315 315 315 317 316 320 324 318 318 319 320 320
298 299 298 297 297 296 296 297 297 298 298 299 301 302 306 312 311 311 311 312 311 314 314 314 314 314 313 314 317 317 318 317 317 316 314 313 315 318 320 320 316 318 320 319 320 319 316
299 298 298 297 297 296 296 296 297 297 297 298 300 300 303 308 312 312 311 313 313 312 314 314 314 313 314 316 316 316 315 320 319 317 314 315 314 318 318 320 320 322 316 315 316 323 315
299 297 298 297 297 297 296 296 296 297 297 297 299 299 300 307 311 311 312 312 312 312 315 314 315 315 314 316 318 316 315 316 317 320 317 318 317 317 317 320 316 314 315 316 323 318 314
299 297 297 297 297 297 296 296 296 296 296 297 298 299 298 302 304 309 312 312 313 314 315 315 315 315 315 317 317 316 316 318 317 316 317 316 316 317 316 318 315 315 315 319 316 314 313
299 297 297 297 297 297 297 297 296 296 296 296 297 298 297 299 303 304 308 311 311 311 315 313 316 314 316 316 313 316 316 316 317 321 315 317 316 319 315 316 314 315 314 314 312 312 311

GFSGBSN_925_thetae_027.txt.gz
Theta_e
308 309 308 307 307 307 308 308 308 308 307 307 307 306 306 305 305 304 305 306 310 313 315 319 316 315 314 317 319 321 324 323 325 323 323 323 321 320 320 318 317 319 319 320 318 318 318
310 310 308 308 307 308 307 307 307 307 307 307 305 305 306 305 304 304 304 305 307 311 314 318 315 315 315 319 317 318 319 324 324 323 325 323 319 317 319 319 317 318 320 320 319 320 319
307 307 307 305 306 306 305 306 306 306 306 305 305 305 305 305 305 304 304 304 306 309 311 315 313 315 313 317 317 317 317 318 321 323 323 324 322 322 321 322 320 320 322 321 321 321 320
307 309 306 305 305 305 305 305 305 305 304 304 304 304 304 304 304 304 304 305 306 308 310 311 315 314 315 312 313 314 316 318 320 323 322 323 321 320 320 319 320 321 321 324 320 320 320
307 304 305 304 305 305 305 304 304 304 304 304 303 303 304 303 303 303 304 304 306 307 308 310 314 313 315 313 313 313 313 317 320 323 323 322 321 322 320 321 322 320 321 321 321 318 320
304 305 304 305 305 305 304 303 303 303 303 303 303 303 303 303 303 303 304 305 303 306 307 314 314 313 312 314 312 313 312 314 320 322 324 324 323 323 322 322 325 322 321 319 320 320 320
305 304 304 305 304 303 303 303 302 302 302 302 303 303 303 303 303 303 303 303 304 309 312 312 313 313 313 314 312 312 312 317 318 321 325 324 323 325 321 319 320 321 321 319 318 317 316
304 304 304 304 303 303 302 302 302 302 302 302 302 302 303 302 302 303 303 303 304 304 308 313 314 313 313 313 314 313 312 319 319 321 319 319 321 320 320 320 321 318 318 318 316 316 315
304 303 304 304 303 303 302 302 302 302 301 302 302 302 303 302 301 301 302 303 303 303 308 314 315 314 313 313 315 314 313 316 318 320 318 318 317 316 317 317 317 317 318 317 317 314 312
303 303 304 303 303 302 302 301 301 301 301 301 302 303 304 305 302 301 302 304 303 303 310 316 316 315 313 314 315 313 314 315 317 320 318 318 316 315 317 318 316 318 313 315 315 314 315
302 302 303 303 303 302 301 301 301 301 300 301 303 303 304 304 302 302 303 304 302 303 317 313 315 313 313 315 314 314 312 314 317 318 317 319 317 316 316 317 315 316 313 313 313 312 311
301 302 303 303 302 302 301 301 301 300 300 301 302 303 304 305 304 303 303 303 303 307 315 314 313 315 315 315 314 314 314 314 314 317 315 314 312 314 315 313 313 312 313 312 312 311 308
301 301 302 302 302 301 301 301 301 300 300 302 303 303 304 305 305 304 304 305 306 310 311 315 316 315 315 316 315 315 315 316 316 317 319 317 315 312 312 314 313 313 310 306 314 314 311
301 301 301 302 301 301 301 300 301 300 302 302 303 303 304 304 303 304 305 306 308 315 315 313 315 314 315 314 314 315 316 316 314 313 314 317 311 312 311 312 313 313 311 307 315 313 313
301 300 301 301 301 301 299 301 300 302 301 302 304 302 305 305 305 304 307 307 312 315 313 315 313 313 314 314 314 315 314 314 312 312 312 311 313 312 311 311 312 313 312 311 312 311 303
301 301 301 301 301 300 300 301 300 302 302 305 303 302 304 305 304 305 307 312 308 311 312 312 315 313 314 314 314 314 314 312 312 311 310 314 315 313 313 312 312 311 310 308 305 306 312
301 300 301 300 300 300 300 300 301 302 304 302 301 305 303 305 305 307 310 307 310 311 311 313 312 313 311 314 312 312 313 312 311 311 310 312 314 313 313 312 312 313 314 312 311 308 308
301 300 300 299 300 300 300 300 301 303 304 303 301 304 303 304 305 308 309 305 308 312 314 312 310 310 310 311 312 312 312 312 309 311 312 312 313 315 311 310 310 310 311 311 310 306 308
300 300 299 299 300 299 299 300 300 303 304 303 302 304 304 303 308 309 307 310 314 316 315 314 313 311 309 311 311 312 313 311 311 312 312 312 313 307 311 311 311 312 311 312 312 311 312
300 299 298 298 298 298 299 300 299 302 303 303 304 304 303 304 307 308 311 315 315 314 315 313 310 309 311 312 311 313 314 311 311 312 315 311 313 306 309 311 312 310 312 311 313 315 313
300 299 298 299 299 299 300 299 299 300 303 303 301 305 306 304 309 309 311 315 315 315 313 312 314 312 312 314 313 313 313 311 311 312 311 310 311 309 311 311 312 310 312 313 313 314 317
300 299 298 298 297 297 298 298 298 299 303 303 305 305 304 306 307 310 312 313 314 314 314 313 315 315 315 316 315 314 313 312 311 311 311 310 308 311 312 311 312 313 312 312 313 314 315
300 299 298 298 297 297 297 297 298 299 301 301 301 303 305 306 308 308 310 312 313 313 313 313 313 315 317 316 314 313 311 312 311 310 310 313 310 315 310 312 313 316 315 315 318 319 319
300 299 299 298 297 297 296 297 297 298 298 300 301 302 307 309 308 310 311 312 312 314 314 313 313 315 315 312 312 313 312 313 312 310 310 314 314 315 314 314 314 319 317 317 318 318 317
299 299 298 298 298 297 296 296 297 297 298 298 300 301 305 307 308 310 310 311 313 312 313 314 314 312 311 313 315 317 318 317 316 312 312 313 315 317 319 319 314 316 320 318 318 319 316
298 300 297 298 297 297 297 296 296 296 297 297 300 299 301 306 307 310 310 310 309 310 312 314 313 311 312 314 314 314 314 317 319 316 314 314 314 317 318 319 319 317 315 315 315 320 314
298 300 298 297 298 298 297 297 297 296 296 296 299 299 300 305 306 307 312 311 311 310 311 313 313 314 312 313 315 314 311 314 316 318 317 318 317 318 318 320 316 312 312 315 322 317 313
297 299 298 297 297 297 297 297 297 296 296 296 296 299 297 301 301 304 308 313 310 309 311 311 312 313 313 314 314 312 312 314 315 314 315 316 317 318 317 318 315 310 314 318 314 313 313
297 299 298 297 297 297 297 296 296 296 296 295 295 295 297 298 299 301 302 305 307 310 312 311 314 313 312 314 310 312 315 313 313 315 313 317 314 317 313 312 309 313 313 312 310 310 310

GFSGBSN_925_thetae_030.txt.gz
Theta_e
308 307 308 308 308 306 306 306 306 307 307 307 307 306 306 306 306 306 305 305 304 305 308 312 314 317 314 316 317 319 324 324 324 324 323 321 321 319 320 319 319 319 319 319 319 319 317
307 309 308 306 305 305 306 306 306 306 305 305 305 306 305 306 305 305 305 304 304 305 307 310 314 315 314 316 314 318 322 322 323 324 322 322 321 318 318 319 317 316 317 318 319 319 319
309 307 306 305 305 307 306 306 305 305 305 305 305 305 305 305 304 304 304 304 304 305 306 309 312 315 312 313 314 316 321 322 323 323 323 324 322 319 318 322 318 320 321 320 320 320 320
306 306 306 305 307 306 305 304 304 304 304 304 304 304 304 304 304 304 304 304 304 305 307 309 311 315 313 310 314 314 317 319 320 322 321 322 323 320 320 318 319 320 319 322 319 319 318
305 305 305 306 306 305 304 303 303 303 303 303 303 303 303 304 303 303 304 304 304 305 306 308 309 314 312 311 313 313 316 317 319 322 322 321 321 321 319 320 320 319 321 321 320 318 319
305 305 305 306 305 304 304 303 303 303 303 303 303 303 303 303 303 303 304 304 302 305 306 307 308 312 310 313 313 313 313 315 319 321 323 323 323 324 321 319 322 322 321 318 319 317 318
305 305 304 305 305 304 303 303 302 302 302 302 302 303 303 303 303 303 303 302 301 306 308 313 315 313 310 313 313 313 312 313 319 321 327 324 325 326 324 320 319 320 322 319 317 316 315
305 304 303 305 304 304 303 303 302 302 302 301 302 302 303 304 304 302 301 302 303 303 305 309 313 313 312 312 314 313 312 320 320 323 320 321 324 322 323 322 321 321 320 317 315 315 315
304 303 303 304 304 303 303 302 302 302 303 301 301 303 304 304 304 301 302 302 303 303 306 310 313 313 313 313 314 314 314 317 320 320 319 322 319 319 318 319 317 316 317 317 316 313 311
303 303 303 304 303 303 302 302 302 302 301 300 302 303 303 304 304 302 301 303 303 303 308 315 316 314 314 314 314 312 315 315 318 319 318 317 314 316 316 318 315 317 313 314 313 313 314
303 302 303 303 303 302 302 302 301 302 301 302 302 303 304 305 304 303 302 303 303 303 313 310 313 313 313 314 313 314 313 315 317 318 317 318 317 315 317 317 314 315 312 312 312 311 309
301 302 302 303 302 302 301 300 301 301 301 302 303 304 304 304 303 303 303 303 303 306 314 313 314 315 315 314 314 314 315 313 315 318 316 314 312 314 314 312 313 312 311 310 310 308 306
302 302 301 303 302 302 300 301 301 301 303 303 304 304 304 304 304 303 303 304 305 307 310 312 317 314 314 315 315 316 316 315 317 320 319 317 315 311 312 313 312 310 309 306 306 306 310
301 301 301 302 301 301 301 301 301 303 304 305 304 304 305 305 304 304 303 303 307 314 315 313 315 314 316 315 316 316 316 316 314 312 313 313 317 313 311 312 313 311 309 307 310 312 311
301 301 301 300 301 301 301 301 302 303 304 303 303 304 304 304 304 304 307 307 310 312 314 315 313 314 315 313 316 315 315 315 313 311 312 309 312 311 310 311 311 313 310 309 310 309 303
302 301 300 300 301 301 300 301 301 304 304 302 302 303 303 304 304 304 307 311 308 311 312 312 312 312 315 313 315 314 314 312 312 311 310 312 312 313 312 311 311 310 309 311 305 301 310
301 300 299 299 299 299 300 301 301 303 304 302 302 302 303 304 305 306 309 307 310 311 312 312 312 311 313 312 311 312 312 311 310 310 310 311 310 313 313 312 312 312 313 310 307 304 305
301 300 299 299 300 300 300 300 301 303 304 302 300 299 303 304 306 308 309 306 307 312 312 312 309 309 310 312 311 311 311 310 309 309 311 311 312 306 313 310 309 310 310 309 305 304 305
300 300 299 299 298 299 299 299 300 302 305 303 302 302 304 304 304 310 307 308 309 315 314 313 310 309 309 310 311 310 311 311 309 310 311 311 310 307 310 311 310 312 310 310 310 310 303
301 300 299 298 298 298 298 299 299 301 303 303 300 300 302 305 305 309 310 313 314 312 311 309 309 309 310 311 309 312 313 312 311 312 314 311 309 305 308 308 309 308 311 310 311 309 310
300 300 299 299 298 297 298 298 299 300 303 303 299 305 305 303 308 308 310 312 314 314 312 311 311 310 313 314 313 314 312 311 311 312 312 310 306 305 309 309 310 309 311 310 310 311 312
300 300 299 299 298 297 297 297 298 298 302 303 302 305 304 304 305 308 309 312 313 313 313 314 315 316 314 316 314 314 311 310 311 310 309 309 305 309 311 310 310 310 311 310 311 312 312
299 300 299 298 298 297 297 297 298 298 300 302 302 303 305 305 306 308 309 311 312 312 312 312 313 315 316 316 314 311 310 309 309 309 309 310 308 313 311 310 311 315 313 313 314 312 313
298 300 298 299 298 297 297 297 297 297 298 299 300 302 306 306 306 308 310 311 312 313 313 313 313 314 314 311 311 310 311 311 309 309 310 312 313 315 312 310 312 315 314 313 314 316 316
298 299 299 298 298 298 297 297 297 297 297 297 300 300 304 306 306 309 310 311 312 310 312 313 313 311 310 313 314 317 317 316 315 311 312 312 314 315 316 316 314 315 318 318 318 316 315
298 299 300 297 298 297 297 297 297 297 296 296 300 298 300 305 304 307 311 308 309 309 310 313 312 310 311 312 313 313 318 313 319 316 312 313 314 316 318 317 319 314 314 314 314 317 313
297 298 300 298 297 297 297 296 297 296 296 295 298 298 299 304 304 305 310 312 310 307 308 311 312 312 310 311 314 312 309 312 318 317 318 317 317 318 318 319 315 311 311 313 320 314 313
297 297 299 298 297 297 297 296 296 296 296 295 294 297 297 299 299 301 306 312 311 307 309 308 310 310 310 311 311 311 310 311 314 313 314 317 317 317 318 318 316 309 314 318 312 311 312
298 297 298 300 297 296 297 297 297 296 296 296 294 294 295 297 297 298 299 300 304 309 309 308 310 311 310 309 308 309 313 314 311 313 310 316 312 314 313 313 309 309 312 311 309 309 309

GFSGBSN_925_thetae_033.txt.gz
Theta_e
307 311 307 307 306 306 308 308 307 306 306 305 305 306 306 306 306 306 306 306 306 305 305 306 308 312 316 315 314 316 322 325 323 323 322 321 320 319 321 319 319 319 319 319 319 318 318
309 307 307 306 306 308 307 306 305 304 304 305 304 305 305 305 305 305 305 305 305 305 305 305 308 313 315 313 311 310 321 323 324 324 322 320 319 317 318 318 319 317 318 318 318 318 318
309 306 306 306 307 307 306 305 304 304 304 304 304 304 304 304 304 304 304 304 304 305 305 305 308 312 313 313 312 316 318 323 324 324 321 321 319 318 317 320 316 319 319 319 319 319 319
307 306 305 306 306 306 305 305 304 304 304 303 304 304 304 304 304 304 304 304 304 305 305 306 309 311 314 311 313 313 321 322 322 322 322 321 322 320 319 318 318 320 319 321 318 318 318
306 306 306 304 306 306 305 305 304 304 303 303 303 303 303 303 304 304 304 304 304 305 305 306 307 310 313 311 312 312 316 318 321 322 321 321 320 320 318 318 319 318 320 321 320 317 318
306 305 305 304 306 305 305 304 304 303 303 303 303 302 303 303 304 303 304 304 302 304 304 306 307 312 312 312 312 312 313 317 319 321 323 321 321 321 318 319 322 321 321 318 318 317 317
306 304 304 304 305 305 304 303 303 303 303 304 302 302 303 304 304 304 301 301 299 304 305 306 311 310 312 312 312 313 312 316 319 320 326 323 326 326 323 319 317 317 319 319 317 315 314
305 304 304 303 304 304 303 303 303 303 303 303 301 302 303 304 304 304 302 300 301 302 304 305 310 313 312 312 314 314 312 319 321 324 321 323 325 322 322 320 322 321 322 319 315 314 314
304 303 303 304 304 303 303 303 302 302 303 302 301 302 303 304 304 303 301 301 302 302 306 306 309 314 313 312 313 314 314 318 320 321 321 322 322 322 323 324 324 316 317 316 316 312 310
303 303 303 303 303 303 303 301 301 303 302 302 303 303 304 305 304 302 302 302 303 303 307 312 312 315 313 312 313 312 314 316 319 321 319 318 318 321 321 322 315 316 312 314 313 313 315
302 303 302 302 303 302 301 301 302 302 303 304 304 305 305 304 302 303 302 303 303 303 314 310 313 312 313 313 313 313 313 315 318 318 318 318 316 319 320 318 314 315 311 312 311 310 309
302 302 302 303 301 302 302 302 303 304 305 305 305 304 303 303 304 303 302 303 302 306 312 311 314 316 314 313 314 315 315 314 316 317 315 314 311 313 313 312 312 311 310 308 308 308 306
302 302 301 300 302 302 301 302 303 305 305 304 304 304 303 303 303 303 303 303 306 306 309 313 316 314 314 316 316 316 316 316 319 320 320 316 314 311 311 312 311 309 309 306 305 305 309
302 302 301 300 301 300 300 303 302 304 304 303 304 304 304 303 303 303 303 304 309 312 314 314 315 314 316 315 316 316 316 316 313 314 318 317 319 313 311 312 312 311 310 308 307 309 309
302 301 300 299 299 300 301 301 303 304 304 302 303 304 304 304 304 304 306 305 309 310 314 315 314 315 314 314 317 317 315 314 313 311 313 309 312 311 310 310 311 312 308 308 309 307 303
302 301 300 300 300 301 301 300 302 303 305 302 302 303 303 304 304 304 303 311 310 311 312 309 312 313 314 315 316 316 314 312 312 311 309 310 312 312 311 310 310 310 308 308 301 303 308
301 301 300 299 299 299 299 300 302 303 305 302 302 300 302 304 305 302 306 308 312 311 311 311 311 311 311 311 312 313 312 310 311 310 309 310 309 313 312 311 311 310 311 307 306 304 304
302 301 300 299 298 298 299 300 301 303 304 302 299 298 304 305 303 304 309 307 307 311 311 310 308 309 310 309 310 310 311 310 308 308 311 310 309 310 312 310 308 309 310 308 305 304 304
302 301 300 299 299 298 298 299 300 302 303 302 298 300 303 304 310 311 309 309 309 314 313 311 309 308 309 309 310 309 309 309 309 309 310 310 307 303 311 309 308 311 309 308 307 307 301
301 301 300 299 299 298 298 299 299 301 303 303 299 299 301 302 305 309 310 312 313 310 309 308 308 308 309 310 308 311 311 312 309 309 312 310 308 305 307 308 307 307 310 309 307 306 307
300 301 300 299 299 298 298 298 299 300 303 303 298 304 303 304 306 307 309 310 313 313 310 309 309 309 311 313 313 313 312 311 312 313 311 308 307 304 308 308 308 308 310 309 307 310 308
299 301 300 299 299 298 298 297 298 299 302 302 305 305 304 303 303 306 308 311 312 312 312 313 311 312 313 315 313 313 310 310 312 310 310 308 308 307 306 309 309 309 309 309 309 310 310
299 300 300 299 299 298 298 297 297 298 300 302 301 302 305 304 304 306 308 311 311 311 311 312 313 314 315 315 312 309 308 307 308 309 309 309 307 312 311 308 310 313 311 310 310 310 310
299 299 301 298 298 298 298 297 297 297 297 299 300 301 305 305 304 307 308 309 312 312 312 313 312 313 314 311 310 310 309 308 308 308 309 310 312 314 313 307 309 311 311 310 311 312 311
298 298 300 299 298 297 297 297 297 297 296 297 298 300 304 306 304 306 309 311 311 310 312 313 312 310 309 311 313 316 316 315 313 310 312 311 313 314 314 315 311 314 316 316 316 315 313
298 298 299 300 298 297 297 297 297 297 296 295 298 298 299 304 303 304 307 308 308 309 309 312 311 309 309 310 312 315 314 314 318 316 312 312 312 316 317 316 318 314 313 314 313 316 312
298 297 298 300 298 297 297 296 296 296 296 295 296 296 298 303 302 304 306 308 307 306 306 308 312 311 308 309 312 311 308 311 317 316 318 317 317 316 318 319 314 311 310 312 318 314 313
298 298 297 299 299 297 296 297 296 297 296 295 295 295 295 299 298 299 302 307 308 306 309 307 309 308 308 310 310 310 309 310 312 312 316 318 317 318 315 318 314 309 314 317 312 310 311
298 298 297 297 298 298 297 297 296 297 296 297 295 294 293 294 294 297 297 299 302 306 307 306 307 308 307 307 306 307 311 311 309 312 309 315 312 312 312 312 309 308 311 310 308 308 308

GFSGBSN_925_thetae_036.txt.gz
Theta_e
310 310 307 307 308 307 308 307 306 306 305 305 305 305 305 305 305 305 306 306 306 306 307 306 306 308 312 315 313 315 318 324 318 323 322 323 320 318 320 319 317 319 318 318 318 318 318
309 308 307 307 308 307 307 307 306 306 305 305 305 304 304 304 304 304 305 305 305 306 306 306 305 308 312 316 312 313 310 324 319 323 321 321 320 317 318 318 318 317 318 318 317 317 317
307 307 308 308 305 307 307 306 306 305 305 304 304 304 304 304 304 304 304 304 304 305 305 305 305 307 313 314 312 313 315 323 320 323 321 321 319 318 316 318 316 316 319 318 317 318 318
307 308 307 305 305 306 306 306 305 305 304 304 304 304 303 304 304 304 304 304 304 304 304 305 306 308 314 312 313 311 316 321 322 322 321 321 320 318 318 316 317 319 319 321 318 318 318
306 306 306 305 304 306 305 305 304 304 304 304 304 304 303 303 304 304 303 303 304 304 305 305 306 307 314 311 313 313 311 321 321 320 320 321 320 320 318 317 319 317 319 320 320 316 318
306 306 305 304 305 305 305 304 304 304 304 304 304 303 302 303 304 304 304 303 303 304 304 304 306 308 311 313 312 311 312 319 321 320 321 320 322 320 317 319 320 321 321 318 319 315 316
306 304 305 304 304 305 304 304 304 303 303 303 304 303 302 304 304 303 304 301 298 303 304 303 306 310 312 313 312 312 313 319 320 321 323 321 324 323 320 318 317 317 318 318 316 314 315
304 304 304 304 304 304 303 302 302 303 304 303 303 302 302 303 304 304 303 300 300 302 302 303 304 308 312 312 314 314 313 319 321 324 317 322 324 319 318 318 320 320 320 320 316 313 313
304 304 303 303 304 302 302 303 303 304 305 305 305 304 304 304 304 304 301 301 301 302 304 306 307 311 313 312 314 315 315 318 320 322 321 323 322 321 322 321 322 317 319 317 317 312 309
304 303 304 303 302 304 303 303 304 305 306 306 306 305 305 305 302 302 301 301 302 303 298 310 311 314 314 313 314 312 315 317 319 320 317 318 320 323 323 324 318 321 313 314 313 314 316
303 304 303 301 303 303 301 303 304 305 306 305 304 304 303 302 302 303 302 303 302 302 306 310 311 311 313 312 312 314 313 316 319 319 319 318 321 322 323 320 317 318 311 311 310 310 309
303 303 302 301 301 301 302 304 304 305 305 305 305 303 303 302 302 302 302 303 302 301 313 311 312 315 314 313 314 315 315 315 315 316 315 315 313 317 318 315 314 310 309 307 306 307 306
302 302 301 300 302 302 303 302 304 305 305 304 304 303 303 303 301 303 303 302 303 306 309 313 315 313 314 316 316 316 317 316 319 319 319 316 314 311 311 312 310 309 310 308 306 303 309
302 302 301 300 300 300 301 302 304 304 305 303 303 304 303 302 303 303 303 300 306 314 316 313 314 313 316 315 317 316 316 317 313 315 317 316 319 313 310 312 313 311 310 309 311 308 309
302 302 301 300 299 300 300 302 303 304 303 303 302 303 303 304 304 304 301 306 309 311 314 315 313 315 315 315 317 315 314 315 313 310 313 309 311 310 310 310 310 311 309 307 307 304 303
302 301 301 300 299 299 300 301 303 304 304 303 301 302 303 303 304 303 305 313 313 311 310 309 312 312 314 314 314 316 314 312 312 310 308 309 311 312 311 309 309 310 307 307 300 303 308
302 302 301 300 299 299 299 300 302 303 305 302 301 299 303 305 305 303 308 310 313 310 310 310 310 310 310 311 311 313 312 310 310 310 308 308 309 313 311 311 311 310 310 306 304 303 304
302 302 301 300 300 299 299 300 301 303 304 302 298 302 304 304 305 306 311 308 308 311 311 308 308 308 309 309 309 310 311 310 308 308 311 309 308 309 312 309 308 309 309 306 304 303 304
301 301 301 300 300 299 299 299 300 302 304 302 298 298 303 304 311 310 310 310 309 312 311 309 308 308 308 309 310 308 309 308 308 309 310 309 306 304 310 308 307 310 308 307 305 304 301
301 301 301 300 300 299 298 298 299 301 302 302 298 302 301 301 302 309 310 310 312 309 309 307 307 308 308 309 307 309 310 311 308 308 311 309 306 305 306 306 307 307 309 307 306 304 306
300 300 301 300 300 299 298 298 298 299 302 301 298 304 304 305 304 304 306 309 312 312 309 307 308 308 309 311 312 312 311 311 311 313 309 308 306 304 307 307 307 307 310 308 305 307 307
300 300 301 300 299 299 299 298 298 298 302 302 301 304 304 302 301 303 305 309 311 312 311 311 309 311 313 312 310 311 310 309 312 309 309 307 307 306 305 309 308 308 308 308 308 308 308
299 299 300 301 299 298 298 298 298 297 300 300 301 301 303 303 303 305 306 308 310 310 311 311 313 314 315 314 311 308 307 306 308 308 309 310 307 307 305 307 308 310 310 309 309 308 310
299 299 299 301 299 298 298 298 297 297 296 299 299 301 302 304 303 306 306 307 311 311 312 312 311 313 313 309 308 308 306 307 307 308 307 309 310 310 312 308 310 310 309 310 311 310 308
299 299 298 300 299 298 297 297 297 297 296 298 297 299 303 304 303 304 307 308 310 309 311 312 312 309 307 310 311 315 315 314 312 310 311 310 311 310 312 313 310 313 313 312 313 315 310
298 298 298 299 300 298 297 297 297 297 296 295 296 297 298 304 301 303 305 306 307 307 308 311 310 308 308 308 310 314 312 312 317 315 311 312 309 313 315 317 316 313 314 313 312 317 312
299 297 298 298 300 299 298 297 297 296 297 295 295 295 297 301 301 303 304 306 305 305 305 306 311 310 307 308 311 310 307 309 315 316 316 316 316 316 314 317 313 310 310 312 318 314 311
298 298 298 298 298 300 297 297 296 296 297 296 295 294 293 293 294 297 301 304 307 304 307 306 308 307 306 312 312 309 307 308 310 312 313 314 315 317 314 317 315 310 313 317 312 309 310
297 297 297 296 296 297 299 298 298 297 297 296 295 294 294 292 290 294 295 296 298 301 308 305 306 306 306 306 305 305 310 307 307 311 308 313 310 311 311 310 308 308 311 309 307 308 307

GFSGBSN_925_thetae_039.txt.gz
Theta_e
310 307 307 308 308 307 307 308 307 307 306 306 306 305 305 305 305 305 305 305 305 306 306 306 307 306 307 312 315 314 313 316 318 320 322 320 323 322 323 319 317 319 319 318 319 318 318
307 308 308 308 307 305 307 307 307 306 306 306 305 305 305 304 305 304 304 305 305 305 306 305 306 306 307 314 313 314 313 313 317 321 322 320 320 318 319 319 320 318 318 318 318 318 317
307 308 308 307 306 305 307 306 306 306 305 305 305 305 305 305 304 305 305 304 304 305 305 305 305 305 307 310 313 313 314 316 318 321 322 321 318 318 316 318 316 316 319 318 318 317 318
306 307 307 306 305 306 306 306 305 305 305 305 304 305 305 304 303 304 304 303 304 304 305 305 305 305 307 311 312 313 312 319 318 321 321 321 318 316 317 315 317 319 318 321 318 318 317
307 306 305 306 304 306 306 305 305 304 303 304 304 305 305 303 303 304 303 304 305 305 305 305 305 306 311 311 312 313 312 319 320 320 320 321 319 320 317 318 320 318 320 319 320 317 318
306 305 305 304 304 306 304 304 303 305 305 306 305 304 304 302 304 303 303 303 303 304 304 304 304 306 308 312 313 312 311 316 319 319 320 320 320 320 318 319 322 321 319 319 318 315 316
305 304 305 304 304 303 305 305 304 305 306 306 306 303 304 303 303 303 303 301 298 301 303 302 303 307 311 312 312 312 316 319 319 319 322 320 321 322 322 318 315 317 318 319 317 313 314
304 304 304 304 303 306 303 304 305 306 306 306 305 306 305 304 304 304 303 299 299 301 301 302 303 305 307 312 314 313 315 320 320 321 321 321 321 318 318 317 318 318 319 319 317 312 313
304 304 304 302 303 303 303 304 305 306 306 306 306 305 304 305 305 304 302 300 301 302 302 306 307 309 310 312 314 314 315 318 311 315 320 319 321 319 320 320 320 318 320 317 318 312 309
304 304 303 302 302 302 304 304 305 306 306 306 305 304 302 303 301 301 301 301 301 302 299 309 310 313 312 313 315 313 315 317 320 311 318 319 320 321 321 321 319 321 313 314 313 315 318
303 304 302 301 302 302 303 303 305 306 306 304 305 305 302 302 301 302 302 302 302 303 302 311 311 310 311 312 314 315 314 316 319 319 318 317 321 323 323 322 318 319 311 311 310 311 310
303 303 302 302 301 301 302 303 305 305 305 303 303 302 302 302 302 302 303 302 302 298 310 311 311 314 313 314 315 315 316 315 315 315 314 315 314 318 318 316 314 309 308 307 306 308 314
303 303 302 301 300 301 301 302 304 305 305 303 302 303 303 302 302 302 302 301 299 307 308 312 314 313 314 315 317 317 317 317 319 319 319 317 313 312 314 314 312 311 314 316 311 312 317
303 303 302 301 301 301 301 302 303 305 305 303 302 302 304 304 303 303 303 297 312 315 315 313 314 314 316 314 317 316 317 317 312 315 318 317 319 313 311 312 314 312 312 314 315 309 310
302 303 302 301 301 300 300 301 303 304 304 305 302 302 304 303 303 303 302 311 310 313 314 314 311 313 314 314 316 316 315 315 312 310 315 311 314 310 309 309 310 311 313 305 308 304 308
302 303 302 301 301 300 300 301 302 304 304 304 301 301 302 303 304 302 302 313 313 311 309 308 312 311 314 314 315 314 313 311 312 309 308 309 315 312 310 309 308 310 307 311 305 307 311
302 302 302 301 301 300 300 300 301 303 304 303 300 300 303 304 303 303 307 309 311 309 309 309 309 310 311 312 311 312 311 310 310 309 307 307 310 314 311 312 311 310 310 306 305 305 309
301 301 302 301 300 300 299 299 300 302 304 302 298 303 305 305 304 307 311 309 308 310 310 307 307 308 308 308 309 310 310 309 308 308 310 308 308 314 311 308 307 308 309 306 308 307 304
301 301 302 301 300 300 299 299 299 301 303 302 298 298 304 304 305 307 306 310 309 310 308 308 308 308 307 308 310 308 309 308 307 308 310 308 306 305 308 308 307 310 308 305 304 304 305
301 301 302 301 300 300 299 299 299 300 302 301 298 301 301 300 300 308 308 309 311 308 308 306 307 307 307 308 306 309 308 310 307 308 311 307 306 306 306 307 308 309 309 306 306 307 306
300 300 301 302 300 299 299 299 298 298 302 301 297 303 303 302 303 304 305 308 311 312 309 307 308 308 309 310 311 310 310 310 309 312 308 308 307 304 307 307 307 308 309 308 305 306 308
300 300 300 301 300 299 298 298 298 297 301 302 300 302 304 301 300 303 305 309 311 311 311 310 308 310 311 309 308 310 309 309 310 308 308 307 309 306 305 309 308 309 308 308 308 308 307
300 300 300 300 301 299 298 298 298 297 300 298 299 301 303 302 302 304 306 308 310 309 310 310 311 313 314 313 311 308 306 306 307 308 308 309 306 306 306 308 308 311 309 309 309 307 309
299 299 299 299 301 299 298 298 297 297 296 299 298 300 303 303 302 304 305 306 310 311 311 311 310 312 312 307 306 305 306 306 307 307 306 309 309 306 309 307 311 309 308 308 309 309 308
299 299 298 298 299 299 298 298 297 297 295 297 296 298 302 303 301 302 305 306 307 307 311 311 311 310 307 308 310 314 314 312 311 310 310 309 310 311 312 313 310 313 310 310 312 315 309
299 299 298 298 299 300 299 297 297 297 296 295 295 295 298 302 300 301 304 304 306 306 307 310 309 307 307 309 311 314 312 310 315 313 311 310 307 309 313 313 315 311 314 312 312 318 311
300 299 298 299 298 299 299 298 298 297 297 296 294 294 295 298 297 301 303 305 305 304 304 304 310 309 306 306 311 311 308 307 314 313 315 315 315 315 314 314 310 309 311 313 319 317 310
300 298 298 297 297 298 298 299 298 297 297 296 295 294 293 291 292 295 299 302 306 305 305 304 307 306 305 310 312 312 306 306 309 309 312 313 314 315 314 315 312 309 312 318 315 309 309
300 298 297 297 296 296 298 298 298 298 297 297 295 295 294 292 292 293 294 294 295 297 302 305 304 304 305 305 304 304 308 305 305 311 307 314 308 310 309 309 306 307 311 310 307 308 308

GFSGBSN_925_thetae_042.txt.gz
Theta_e
309 308 309 309 308 307 308 308 308 307 307 307 306 306 306 306 305 305 305 305 305 305 306 307 305 306 306 308 312 315 313 315 321 318 320 321 322 324 324 322 321 320 321 319 319 321 321
308 308 308 308 307 306 308 307 307 306 306 306 306 306 306 306 305 305 305 305 305 305 305 305 304 306 306 308 311 314 313 315 319 318 320 321 319 321 322 322 321 319 320 320 319 320 320
307 309 307 307 306 306 307 306 306 305 305 305 305 305 305 306 303 304 305 305 305 305 305 305 304 305 306 306 312 313 313 315 319 317 319 320 318 321 320 321 320 320 321 321 321 320 320
308 307 306 306 306 306 305 305 305 306 306 306 307 306 305 305 304 303 305 305 305 305 305 305 305 305 305 305 307 309 313 314 317 317 318 320 320 319 320 318 320 321 320 323 318 320 320
307 306 306 306 305 304 306 306 305 306 307 307 306 307 304 305 303 304 303 305 305 305 305 305 305 306 306 310 312 312 314 317 317 318 320 320 320 320 319 320 321 320 318 318 319 319 318
305 305 306 305 303 306 305 305 306 307 307 307 306 306 304 304 302 304 303 303 303 304 305 305 305 306 307 311 313 313 313 314 319 319 320 320 320 322 320 319 317 319 317 318 317 318 320
306 305 306 304 303 304 304 306 306 307 307 306 306 306 306 304 303 304 303 302 303 304 304 302 303 306 310 312 313 314 314 315 319 319 320 320 323 324 321 318 316 318 317 316 317 315 318
305 305 304 303 304 305 305 305 306 307 307 306 306 305 305 304 303 303 302 302 301 303 303 303 303 303 304 310 315 314 314 319 318 320 320 320 322 319 320 319 318 318 317 317 319 316 317
304 305 304 303 302 303 304 304 306 307 307 306 306 305 304 302 303 303 302 302 301 303 305 306 307 307 310 313 315 315 315 313 319 320 321 320 319 318 320 320 320 320 319 320 319 317 314
304 304 303 303 302 303 303 304 305 306 306 306 305 302 303 301 302 302 302 301 301 302 310 310 310 312 313 314 316 314 314 313 312 319 320 320 320 318 318 320 319 322 318 318 318 320 320
304 304 303 303 302 302 302 303 305 306 306 305 303 302 301 301 303 303 303 302 302 304 314 310 310 310 312 314 315 315 313 317 315 313 317 319 321 321 320 320 320 318 316 315 315 318 318
303 304 303 303 302 301 302 303 304 305 306 306 304 303 303 302 303 302 303 302 303 310 315 312 312 313 314 314 316 316 317 315 315 316 315 315 314 318 319 315 318 312 313 312 313 316 325
303 304 303 303 302 301 301 302 303 304 305 306 306 302 304 303 304 302 302 305 314 316 310 313 315 315 315 317 316 316 318 318 320 319 318 315 315 315 314 315 313 315 319 325 325 325 324
303 304 303 302 302 301 301 301 302 304 304 305 305 302 304 303 303 303 305 309 317 315 313 312 315 315 318 316 316 316 318 319 315 318 320 322 321 315 314 316 317 318 320 323 323 317 315
302 303 303 302 302 301 301 301 301 302 303 305 303 301 303 303 303 304 308 315 315 315 314 314 314 315 316 316 317 317 316 318 315 314 320 319 319 311 312 311 315 316 320 310 314 310 317
302 302 303 302 302 301 301 301 301 302 303 303 302 302 304 302 304 305 315 315 315 312 311 311 314 313 315 315 317 317 318 313 313 311 311 313 319 313 311 311 311 314 311 318 317 321 319
302 302 303 302 301 301 301 300 300 301 303 303 302 310 304 304 303 312 312 314 313 311 310 311 312 313 314 314 315 315 313 313 312 311 310 312 316 315 313 315 315 313 314 311 313 312 316
302 302 302 302 301 301 300 300 300 300 303 303 303 318 304 304 315 313 314 311 309 313 311 309 310 311 312 312 313 314 312 313 310 311 313 310 315 318 315 310 309 311 314 312 316 315 311
301 301 301 303 301 300 300 300 300 299 302 302 307 308 305 306 317 315 312 312 311 312 310 309 310 310 309 311 313 312 311 310 310 311 312 311 313 316 314 312 311 313 312 311 309 311 315
301 301 301 302 301 300 300 299 299 299 301 301 306 316 311 309 307 312 313 313 312 310 310 308 309 309 309 310 310 311 312 312 309 311 311 310 310 313 313 313 313 314 313 310 313 317 314
301 301 301 301 302 300 299 299 299 298 301 301 305 307 305 315 311 309 310 311 313 313 311 309 310 309 310 311 311 312 312 311 311 312 310 311 316 311 311 310 311 312 313 311 312 313 316
300 300 300 300 301 301 299 299 298 297 300 302 305 305 305 307 305 308 308 312 313 313 312 311 310 310 312 312 310 312 312 312 312 311 311 310 315 311 313 311 311 312 311 312 312 312 311
300 300 300 299 299 300 299 299 298 297 298 301 300 301 304 305 307 309 311 311 312 311 312 312 311 313 314 313 312 311 310 310 311 311 311 312 313 314 315 310 312 315 313 312 312 311 312
299 299 299 298 299 300 299 298 298 297 295 298 298 300 303 309 307 309 308 308 311 312 313 313 312 313 311 308 308 309 310 310 311 310 311 312 313 313 315 312 318 313 311 311 312 311 311
299 299 300 299 299 299 300 298 299 298 295 296 294 298 302 305 305 305 306 308 309 310 312 313 313 311 311 311 314 313 313 312 312 311 311 311 313 315 314 313 313 312 311 312 314 315 311
300 300 300 299 297 297 299 299 298 298 296 295 294 293 298 301 303 302 304 305 311 312 311 312 311 309 310 313 314 315 316 313 315 314 312 311 312 314 314 314 317 316 314 312 314 321 313
301 300 299 297 297 297 298 299 299 298 298 296 295 294 296 298 299 300 303 306 307 307 311 309 312 313 309 315 315 314 315 311 315 313 315 315 314 315 314 314 313 312 314 315 323 321 312
301 300 299 297 297 297 298 298 298 298 298 297 296 294 295 296 295 295 300 302 306 308 311 308 312 311 312 316 315 315 313 312 314 312 313 313 314 316 314 315 314 310 315 319 317 312 311
302 300 298 298 297 298 297 298 297 298 299 298 296 295 295 294 296 293 294 295 296 297 300 306 309 309 312 315 313 313 313 310 314 316 311 314 313 313 313 313 310 311 313 312 311 311 311

GFSGBSN_925_thetae_045.txt.gz
Theta_e
309 310 309 308 308 307 308 308 307 307 307 307 307 307 306 306 307 306 306 306 305 306 306 306 306 306 307 308 308 316 319 322 321 319 318 320 318 322 323 320 320 321 321 320 320 321 321
308 309 308 308 307 307 307 307 307 307 307 308 307 307 307 306 306 305 306 306 306 306 306 306 305 305 307 310 307 315 314 317 321 320 316 319 318 321 322 320 320 320 321 320 319 321 321
308 307 307 307 307 306 308 308 306 307 308 308 307 307 307 306 306 305 305 305 306 305 305 306 305 305 307 308 308 314 313 315 318 320 317 318 316 321 321 321 320 320 320 321 320 320 321
308 307 307 306 305 306 307 306 307 308 308 308 307 306 307 306 304 305 304 306 306 306 306 306 305 305 306 305 306 311 314 315 319 320 316 318 319 319 320 320 320 321 321 322 320 320 320
307 307 306 306 305 305 306 307 307 308 308 307 307 306 307 304 304 303 304 305 306 306 306 305 305 305 307 306 306 308 313 315 317 319 317 319 320 320 320 321 322 320 321 320 320 319 320
307 306 306 305 305 306 306 306 307 308 308 307 306 306 306 304 303 303 303 302 303 304 305 305 305 306 305 309 311 312 315 316 318 317 318 320 322 322 319 320 321 319 319 317 318 320 319
306 306 306 304 304 304 305 305 306 308 308 307 306 305 306 304 303 303 304 303 306 305 304 304 304 306 308 310 313 315 314 317 318 319 321 321 324 323 320 317 316 315 317 316 316 317 319
306 306 305 304 304 304 305 305 306 307 307 307 307 304 304 304 303 303 304 304 304 305 303 303 303 303 304 306 315 315 314 316 320 320 318 322 323 319 318 317 317 318 317 316 317 317 317
305 306 305 304 304 303 304 305 306 306 306 307 307 305 303 303 304 302 304 303 303 304 307 305 306 307 310 313 314 316 313 314 319 319 320 320 320 319 319 318 318 317 317 316 318 318 317
305 305 305 304 304 303 303 304 305 306 305 306 307 305 301 301 304 303 303 303 303 304 312 309 310 311 313 314 316 313 311 314 314 320 320 320 318 320 321 320 317 318 318 318 319 319 316
305 305 305 304 303 303 303 303 304 305 305 305 306 306 302 304 304 304 304 304 304 305 317 308 307 310 313 315 316 317 313 315 316 317 318 320 321 320 321 320 317 319 319 319 318 320 320
304 305 304 304 303 303 303 303 303 303 305 305 306 305 304 306 305 304 305 305 306 313 317 314 313 314 316 316 317 315 316 315 314 315 315 316 316 317 318 318 318 316 317 317 317 319 325
304 304 304 304 303 303 303 303 302 303 304 304 306 305 304 305 308 305 305 307 315 318 312 315 317 316 316 317 317 317 317 319 318 318 318 314 313 315 315 318 316 317 319 323 324 327 323
303 304 304 303 303 303 303 302 302 302 303 304 304 302 305 305 306 305 306 312 318 315 316 314 316 316 319 317 316 318 319 321 318 318 320 322 320 311 313 317 318 319 320 325 322 323 321
303 303 304 303 303 303 303 302 302 302 302 304 303 305 307 307 305 306 310 315 318 316 314 315 315 317 317 318 318 318 318 319 317 317 322 323 320 312 313 314 317 318 324 314 316 313 317
303 303 303 303 303 302 302 302 302 301 301 303 305 306 309 305 306 307 316 316 317 313 312 313 315 315 317 318 318 318 318 316 315 313 313 317 321 315 313 314 312 317 316 320 321 325 319
303 303 303 304 303 302 302 302 301 301 301 303 307 312 308 305 307 315 316 315 313 312 312 313 314 314 315 316 317 316 316 315 314 312 313 315 317 316 314 316 318 315 317 315 317 316 321
302 302 302 303 303 302 301 301 301 300 301 306 308 319 308 306 317 316 316 314 310 313 311 311 312 313 314 314 316 315 315 316 312 313 314 313 317 318 318 313 312 314 316 316 319 320 314
302 302 302 302 303 302 301 300 300 300 301 303 310 312 309 309 319 317 314 314 313 313 311 311 312 312 312 313 315 314 313 312 312 313 314 313 316 318 317 315 313 314 315 314 313 314 320
301 301 302 301 302 302 301 300 299 299 300 303 309 315 315 312 313 315 314 314 314 312 311 310 311 311 312 312 312 314 313 313 311 312 310 311 313 316 318 316 316 316 315 314 314 321 317
301 301 301 301 300 301 300 300 299 298 300 304 309 313 308 319 314 314 314 313 313 313 312 310 311 311 311 313 312 312 313 312 312 311 312 313 318 314 312 312 313 315 314 314 315 315 319
300 300 300 299 299 301 300 299 299 297 301 304 305 305 307 311 310 312 311 314 314 314 313 312 311 311 311 312 311 312 312 313 313 313 312 312 316 314 315 312 312 313 313 313 313 313 313
300 300 300 299 299 300 300 299 299 298 298 301 300 303 305 310 311 312 313 314 313 313 313 313 311 312 312 313 312 313 311 311 311 312 312 313 315 315 316 312 313 316 314 313 313 313 313
299 299 301 300 300 300 300 299 299 298 296 298 298 300 303 312 310 312 311 311 313 313 314 312 313 312 311 310 311 311 311 311 312 312 312 313 314 315 316 314 318 315 313 313 313 313 312
299 299 301 300 299 299 299 299 299 299 296 297 296 298 301 305 307 308 309 310 312 312 314 313 314 313 311 313 313 313 313 313 313 312 312 312 313 316 315 316 314 312 313 313 315 317 312
299 300 300 299 298 298 299 299 298 299 297 297 297 296 299 301 304 304 306 307 312 313 313 313 313 312 313 315 314 314 315 313 314 314 313 312 312 314 314 314 317 317 314 313 314 321 314
300 301 300 298 297 298 298 298 299 298 298 297 297 295 297 299 298 301 304 306 308 311 313 313 314 314 313 315 314 313 312 313 315 314 314 314 313 315 315 314 313 312 315 315 321 321 314
301 301 300 298 297 298 299 298 298 298 298 298 298 295 296 298 298 297 299 301 303 308 312 312 314 314 315 315 314 313 313 313 313 312 313 313 313 314 313 316 314 312 316 319 317 315 316
301 300 299 298 297 298 298 298 299 298 297 298 298 296 296 296 297 296 295 295 296 299 301 307 310 312 313 314 314 314 314 312 312 314 312 314 312 313 313 313 312 312 314 315 314 315 313

GFSGBSN_925_thetae_048.txt.gz
Theta_e
309 309 308 308 309 307 308 309 308 308 308 309 309 308 308 308 305 307 307 307 306 306 306 306 305 305 307 307 309 312 314 317 320 321 319 321 316 322 322 322 320 322 320 319 319 320 320
309 309 308 309 307 307 308 307 309 309 309 309 308 307 307 307 305 306 306 306 306 307 306 306 306 305 307 310 307 309 315 319 321 321 318 320 315 319 320 320 320 319 320 320 318 321 321
309 309 308 307 306 307 307 308 308 308 309 309 308 307 306 307 307 305 305 305 306 306 306 306 306 305 306 308 308 314 314 316 320 320 318 318 317 318 321 321 319 320 320 320 320 320 321
308 308 308 306 306 307 307 307 307 308 309 308 307 306 306 305 305 303 305 305 305 306 306 305 306 305 306 306 306 308 312 313 315 319 318 317 318 317 320 319 320 321 321 322 320 319 320
308 307 307 306 306 306 306 307 307 308 309 308 307 306 307 303 304 304 304 303 304 306 306 305 305 306 306 306 305 307 310 314 318 319 320 318 320 320 320 321 322 320 321 321 321 319 320
308 307 307 306 305 305 306 306 307 308 308 308 307 305 306 304 303 303 303 302 303 305 305 305 305 305 305 308 306 305 309 313 318 319 320 320 321 322 321 322 325 321 320 319 320 319 320
307 307 306 306 305 304 305 305 306 307 307 307 308 305 306 304 303 302 305 305 306 305 304 305 305 305 306 307 309 308 314 315 318 319 320 320 321 323 321 319 318 317 317 317 317 319 320
307 307 306 305 305 305 304 305 305 306 307 307 307 307 304 304 304 302 304 304 304 304 305 303 303 303 304 305 313 315 315 317 319 321 318 321 323 318 320 318 318 316 315 316 316 318 317
306 306 306 305 305 304 304 304 304 305 306 306 306 306 304 303 304 303 304 303 304 305 307 306 306 308 310 311 313 316 314 314 319 318 319 320 318 319 319 318 318 316 316 315 317 318 317
306 306 305 305 305 304 304 304 303 304 304 305 306 306 306 304 304 304 304 304 304 305 310 310 310 311 312 314 317 312 311 315 316 318 317 319 318 319 320 320 318 318 315 316 318 319 319
305 305 305 305 305 305 304 304 304 303 304 304 305 306 305 303 306 305 305 304 304 306 317 308 310 309 313 316 314 313 313 312 316 319 319 321 320 321 323 322 317 318 318 319 319 320 319
305 305 305 305 305 305 305 304 303 303 303 304 305 306 305 308 306 304 305 305 306 310 317 313 313 311 316 316 316 313 316 313 312 316 315 316 316 319 319 321 319 318 317 317 318 318 322
304 304 305 305 305 304 304 305 304 303 303 304 305 304 304 306 308 306 306 307 313 315 312 315 316 316 316 318 317 313 313 315 316 318 317 314 314 315 316 321 319 318 318 321 319 318 319
304 304 304 305 304 304 304 304 304 303 302 302 304 302 306 306 306 306 306 311 316 315 316 314 316 316 318 317 318 315 316 318 318 317 319 320 318 315 312 318 319 318 317 320 320 320 318
304 304 304 304 305 304 303 303 303 303 299 302 306 307 307 308 307 306 309 315 314 315 315 316 316 317 318 317 317 319 319 320 317 319 321 321 318 312 312 315 316 320 322 313 317 312 314
303 304 303 304 304 303 303 302 302 302 297 305 305 308 309 306 306 306 315 315 315 314 313 313 316 316 319 318 319 318 318 316 315 315 314 317 320 314 314 314 314 316 316 320 318 320 318
303 303 303 303 304 303 302 302 302 302 297 305 308 312 307 307 308 312 315 313 313 312 312 313 314 315 316 316 317 316 317 315 314 312 313 316 317 318 314 316 318 317 317 315 316 315 319
302 303 303 303 302 303 302 301 301 301 299 303 310 317 308 308 318 320 318 314 311 313 312 312 313 313 315 315 316 315 316 315 313 313 315 313 316 318 317 313 314 316 318 317 320 319 313
302 302 302 302 302 301 301 301 300 300 300 302 309 313 310 310 319 318 314 313 313 313 312 311 312 312 312 314 315 314 314 312 312 314 314 313 316 315 316 314 313 315 315 317 314 315 319
301 301 301 301 300 301 301 300 300 299 300 303 309 314 316 314 313 316 315 314 314 312 312 310 311 311 312 312 312 314 314 313 311 312 310 311 313 315 316 315 315 314 315 314 314 313 317
300 300 301 300 300 301 301 300 300 297 302 304 309 311 308 317 315 314 314 313 314 314 313 311 311 312 312 313 312 313 314 313 312 311 312 313 313 309 312 312 314 315 315 314 312 314 312
299 300 300 301 300 300 301 300 300 296 301 301 304 305 305 309 311 312 312 315 314 314 313 312 312 311 311 312 312 312 313 312 313 312 312 312 312 313 312 312 312 312 312 312 313 313 313
299 299 301 301 300 300 300 300 300 297 298 300 299 301 304 307 312 312 313 314 314 313 313 313 312 312 312 315 312 312 310 310 311 312 311 312 312 311 313 312 312 313 313 312 312 312 312
299 299 301 300 300 299 300 300 300 298 297 297 297 300 303 309 310 311 311 311 313 314 315 312 313 313 311 310 311 311 311 311 311 311 310 312 314 311 310 312 311 313 312 312 312 312 311
299 300 301 299 299 299 299 299 300 300 296 298 296 298 300 301 302 306 307 309 310 312 313 314 314 312 311 312 311 312 313 312 312 312 311 310 313 316 312 310 313 312 313 313 313 314 311
299 300 300 299 298 299 299 299 299 298 298 298 297 296 298 299 300 299 303 306 309 312 313 314 313 312 313 315 314 314 315 311 314 314 312 311 311 312 314 312 315 318 313 312 313 318 313
300 300 301 300 298 298 299 299 299 298 299 298 298 295 297 298 298 298 302 304 306 309 312 313 314 313 312 314 314 314 313 312 313 313 314 313 313 313 316 315 311 314 313 313 321 318 312
300 301 302 299 298 297 299 298 299 298 298 299 298 296 296 297 298 298 297 298 299 303 310 309 312 313 314 314 314 314 310 311 311 311 312 312 313 313 313 315 312 313 315 319 316 314 313
302 301 299 298 297 298 298 299 298 298 299 298 298 297 296 296 297 297 296 297 296 296 299 304 309 310 312 313 312 311 312 310 311 311 309 312 310 311 310 311 310 311 313 313 312 312 313

GFSGBSN_925_thetae_051.txt.gz
Theta_e
310 309 309 308 308 308 308 309 309 309 309 310 309 308 307 307 307 306 306 306 307 307 307 307 306 306 306 306 307 308 311 313 317 320 319 320 317 323 322 322 321 322 321 322 321 321 322
310 309 308 308 307 307 308 308 308 309 310 309 309 306 307 307 308 306 306 306 306 307 306 306 306 305 306 308 306 310 310 315 319 319 319 319 312 319 320 321 320 319 321 321 319 320 319
309 309 308 307 307 307 307 308 308 309 310 309 309 306 308 307 306 304 305 305 306 306 306 306 306 305 306 306 307 308 312 316 318 318 318 318 317 318 316 319 318 318 321 321 320 318 320
309 308 308 307 306 306 307 307 307 309 309 308 308 305 307 305 304 305 305 304 305 306 307 307 305 305 306 304 305 305 307 313 316 319 318 317 319 317 320 318 318 318 319 322 320 319 319
309 308 308 307 306 306 306 307 307 308 308 308 308 305 306 305 303 304 302 302 304 303 306 305 305 305 306 306 306 306 308 311 314 317 318 317 318 320 319 319 320 320 322 321 321 318 319
308 308 307 307 306 306 305 306 306 307 308 308 307 306 306 305 302 302 303 301 304 305 304 305 305 305 305 307 306 308 308 309 314 318 319 318 318 318 319 318 323 322 321 319 320 319 319
308 307 308 306 306 306 305 305 305 306 307 307 307 307 304 306 301 301 304 305 302 303 304 305 305 305 305 305 308 309 308 313 315 320 320 319 319 321 320 319 317 317 318 318 318 317 319
307 307 307 306 306 305 305 305 305 304 305 306 306 306 304 303 304 302 304 302 304 303 305 305 306 303 303 304 311 309 309 317 319 319 320 320 318 317 318 317 318 317 316 317 316 317 318
307 307 307 306 306 306 305 305 304 305 304 304 305 306 306 302 303 303 303 303 303 305 306 307 306 307 309 310 311 309 314 315 319 320 319 320 318 317 320 318 318 317 313 313 316 316 315
306 306 306 306 306 306 305 306 305 304 304 304 304 305 306 305 304 303 304 304 304 305 308 309 310 311 310 312 313 313 312 315 316 318 318 317 317 319 318 320 316 317 313 314 317 317 318
306 306 306 306 306 306 305 305 305 305 304 304 304 304 306 305 305 305 305 302 304 305 307 310 310 309 311 311 312 312 312 313 317 317 318 318 319 319 321 320 317 317 316 316 316 317 317
305 305 305 306 306 305 305 305 305 305 305 303 304 305 305 307 306 305 304 305 306 303 312 313 312 312 314 315 314 314 314 312 313 315 315 316 314 317 319 320 320 316 315 315 314 314 314
301 305 305 305 306 305 305 305 304 304 304 302 304 305 305 306 307 306 305 305 308 306 311 311 315 316 317 318 314 313 315 316 318 317 317 316 315 314 316 320 318 318 315 321 317 313 314
301 304 305 305 305 305 304 304 304 303 303 298 304 303 305 306 307 306 306 308 311 314 314 314 316 315 317 317 316 315 315 317 315 316 316 316 318 316 313 316 319 319 315 315 317 317 316
303 304 304 304 304 305 304 303 303 303 301 300 306 305 307 308 306 306 308 308 313 313 316 316 316 317 318 317 317 313 313 318 318 317 316 319 318 312 313 315 316 319 321 313 315 312 308
303 304 304 304 304 303 303 303 302 302 300 300 305 307 308 307 306 306 306 308 309 313 312 313 316 315 320 318 317 318 318 317 318 317 316 317 316 314 314 314 314 316 315 319 311 317 315
302 303 303 303 303 302 302 302 302 301 300 300 306 306 307 306 307 310 306 307 313 312 311 312 313 314 315 317 318 317 316 314 313 315 312 315 314 316 315 316 319 318 319 315 315 312 315
301 302 302 302 301 301 302 302 301 301 301 301 303 306 306 307 306 310 307 311 311 312 311 311 311 312 313 314 314 314 316 314 311 311 314 313 314 318 317 316 316 316 317 315 316 316 309
300 302 301 301 301 301 302 301 301 300 301 301 301 305 307 308 312 311 312 313 313 313 311 311 312 311 311 312 314 312 313 312 310 312 312 312 312 315 315 312 313 315 316 318 317 313 314
300 301 301 301 301 301 301 300 299 296 301 302 302 309 309 307 307 313 312 312 314 311 312 310 310 310 311 311 311 313 313 312 311 311 310 310 312 309 311 312 313 314 316 317 317 313 314
299 300 301 301 301 301 301 300 300 295 301 304 301 307 306 309 312 309 311 312 313 314 311 310 310 310 311 311 311 312 312 312 311 310 311 310 307 304 311 313 312 313 313 314 313 314 313
298 299 302 301 301 300 300 300 299 296 299 299 299 303 302 302 306 310 310 313 313 313 312 311 310 310 309 311 310 311 311 311 311 310 311 309 307 307 305 311 311 311 312 312 312 313 312
299 300 301 300 300 300 300 300 300 297 296 297 297 298 302 303 306 308 310 313 313 312 312 311 312 311 311 314 311 310 307 308 309 310 309 311 308 303 307 311 311 311 311 310 311 311 312
299 300 300 299 298 298 299 299 300 298 297 296 296 297 299 303 302 303 307 309 310 311 313 311 312 312 310 309 309 309 308 308 309 308 307 310 310 304 304 307 307 308 310 309 310 310 309
299 300 299 299 298 298 299 299 299 298 298 297 295 296 295 296 298 299 301 306 306 307 311 313 313 311 308 311 310 311 311 311 311 310 310 308 311 313 307 308 306 311 312 312 311 312 309
300 299 300 300 298 297 299 299 299 298 298 298 297 295 294 295 297 298 299 301 305 306 310 313 312 310 311 312 314 314 313 309 313 312 311 311 311 308 313 311 312 314 312 311 313 316 311
299 300 301 301 298 297 298 298 299 298 298 299 298 296 296 294 295 297 298 300 301 305 306 312 311 312 310 310 311 312 308 310 312 313 313 313 312 312 314 315 310 308 311 313 317 314 311
299 301 301 300 297 297 298 298 299 298 299 298 298 297 296 293 294 296 296 296 296 297 306 307 310 309 309 311 310 310 307 307 310 308 310 310 311 314 314 314 311 311 314 317 314 313 311
301 302 300 299 298 297 298 299 298 297 297 298 298 298 297 295 294 296 296 296 296 295 295 300 306 309 310 310 308 307 309 307 307 310 307 310 307 308 308 308 307 310 313 312 311 312 312

GFSGBSN_925_thetae_054.txt.gz
Theta_e
310 309 309 308 307 308 308 308 308 309 310 310 310 306 309 308 308 305 305 305 306 307 306 306 307 305 306 306 306 307 309 311 313 316 319 316 319 321 323 322 324 322 324 324 325 326 325
310 309 309 308 307 307 308 308 308 309 310 309 309 306 307 307 307 306 306 306 306 307 306 307 306 305 306 308 306 307 308 312 313 317 318 317 317 319 319 321 324 321 321 321 322 324 323
310 309 309 308 307 306 307 306 307 308 309 309 308 307 306 306 306 306 306 305 306 307 306 306 306 305 306 305 306 308 306 313 315 319 318 319 315 319 316 319 318 319 322 320 320 318 320
309 309 308 308 307 307 306 307 307 308 309 309 308 306 307 305 304 304 303 305 304 305 306 307 306 305 305 304 304 305 306 313 316 318 318 319 317 316 317 315 317 318 319 322 320 318 319
309 309 308 307 307 307 306 306 305 306 307 308 307 307 306 306 304 303 301 302 305 305 306 304 304 305 305 305 305 305 307 312 315 317 317 317 317 318 318 316 318 319 321 321 321 318 319
308 308 307 307 307 307 306 306 306 305 306 306 307 306 306 305 303 303 304 302 304 305 305 305 305 304 304 306 305 308 308 308 314 317 319 318 317 317 318 319 322 320 320 320 321 319 319
308 308 308 308 307 307 307 306 305 305 305 305 305 306 307 304 303 305 304 304 301 301 303 304 304 305 304 304 306 309 308 311 316 318 321 318 319 321 319 316 315 317 317 320 318 317 319
308 307 308 307 307 306 306 306 306 306 305 304 305 305 306 306 303 303 303 302 303 303 304 305 305 305 305 303 310 309 309 316 315 317 319 320 320 317 317 318 316 316 318 317 316 316 318
307 307 307 307 307 307 306 306 306 306 306 304 304 304 306 306 303 303 303 302 303 304 305 307 306 308 309 310 310 310 311 315 315 319 319 319 317 317 319 318 318 316 315 315 315 316 315
307 306 306 306 306 306 306 306 306 305 305 305 304 304 305 305 305 303 303 303 304 305 305 310 310 309 310 311 310 312 313 315 316 320 319 318 315 317 319 319 316 318 312 313 315 317 319
306 306 306 306 306 306 306 305 305 305 305 304 303 305 305 305 304 304 305 302 304 304 302 311 311 308 307 312 311 312 312 315 317 318 316 319 317 317 319 319 315 317 314 314 315 316 316
305 305 305 305 305 306 305 305 305 305 305 304 303 305 305 305 306 304 303 305 305 299 304 311 312 309 309 311 314 313 313 313 313 316 314 316 314 316 318 318 318 314 315 313 312 312 314
303 305 305 305 305 305 305 304 304 304 304 302 302 306 304 306 306 305 305 304 301 308 309 310 316 316 315 315 314 313 315 316 317 318 315 317 316 314 315 318 317 316 315 317 318 314 317
302 304 304 305 304 304 303 303 304 303 303 300 304 303 303 306 306 306 305 300 307 313 311 312 315 315 317 315 315 314 315 315 315 313 315 315 318 316 313 316 319 318 317 312 317 316 314
301 302 304 304 303 303 303 303 303 302 301 300 306 304 306 306 306 305 302 301 306 307 313 316 315 317 317 316 316 315 315 316 317 314 314 317 318 312 313 315 316 320 318 312 311 310 307
301 302 304 303 303 302 303 303 302 302 301 301 305 306 306 308 306 306 302 306 308 311 312 312 316 314 318 317 317 317 316 317 318 317 312 313 317 315 314 314 314 317 315 316 309 316 313
300 303 303 303 302 302 303 302 302 301 302 303 307 305 306 306 306 308 301 302 311 312 310 311 312 314 315 317 316 316 315 315 316 316 314 313 311 317 315 317 318 317 319 316 315 311 313
300 302 302 302 302 302 302 302 302 301 302 302 301 305 306 306 311 310 304 308 311 312 310 310 310 311 312 314 314 315 314 313 310 311 312 313 311 315 316 314 315 317 317 316 320 317 309
300 300 302 302 301 301 301 301 302 300 302 302 301 302 306 307 314 310 309 312 312 312 310 310 311 311 310 312 314 313 313 311 310 311 312 311 309 312 315 314 315 319 317 317 316 312 309
299 300 301 301 301 301 301 301 300 296 301 304 302 307 308 307 305 311 311 312 312 310 311 309 309 309 310 311 310 312 312 311 310 310 310 310 310 308 310 311 312 313 318 317 316 310 313
298 300 302 301 301 300 300 301 299 295 300 303 297 304 304 309 309 309 309 312 312 313 310 309 310 309 310 310 311 312 312 311 310 310 310 308 307 303 309 313 311 311 313 316 318 316 313
298 300 301 300 299 300 300 300 299 295 297 297 297 300 301 301 302 306 308 313 312 312 311 311 310 310 309 310 309 309 311 310 310 309 310 307 305 305 304 309 310 311 310 313 316 317 316
298 299 300 299 298 299 300 300 299 297 294 294 295 296 302 301 302 306 308 311 311 311 311 311 310 311 311 312 310 309 307 307 308 309 308 309 306 302 303 308 308 310 309 309 311 312 314
298 299 299 299 298 298 299 299 299 298 296 295 295 295 296 301 298 301 302 306 308 308 311 311 312 311 309 308 308 306 306 306 307 308 306 309 307 302 301 305 305 308 308 308 309 309 309
298 299 300 299 298 297 299 300 300 298 298 297 295 295 293 295 296 297 298 302 303 305 309 311 312 310 307 310 308 310 309 310 310 308 307 307 309 310 304 303 305 308 311 310 309 310 308
299 299 300 300 297 297 298 299 299 298 298 298 296 296 293 293 296 296 296 299 304 304 306 311 310 309 309 311 313 312 310 308 310 311 308 310 309 306 312 311 310 308 312 309 311 313 311
299 300 301 300 297 297 298 299 298 298 298 298 297 296 295 294 294 296 296 296 298 300 305 308 307 309 308 308 309 311 306 308 312 311 312 312 312 309 311 312 309 306 307 312 315 312 310
299 300 301 300 297 297 298 299 299 298 298 298 298 297 296 292 293 295 296 295 296 296 302 304 307 309 307 310 309 308 306 306 308 308 308 309 311 313 313 313 309 307 312 314 311 312 310
300 301 301 299 298 297 298 298 298 298 298 296 297 297 297 295 293 296 296 296 296 296 295 297 302 307 306 311 307 305 308 305 306 309 305 309 306 306 308 308 305 306 310 310 310 311 311

GFSGBSN_925_thetae_057.txt.gz
Theta_e
311 310 310 309 308 307 308 309 308 309 310 311 310 307 307 308 307 307 306 305 306 307 306 306 307 305 305 305 306 306 309 309 310 314 316 314 315 319 323 322 322 322 322 323 324 325 325
310 310 310 309 308 307 307 307 308 308 309 310 309 307 307 306 306 306 306 306 306 307 305 306 306 306 305 306 305 306 307 308 310 314 314 317 315 318 320 321 324 323 324 325 325 325 324
310 310 309 309 308 307 307 306 306 307 308 309 309 308 307 306 305 306 306 306 306 307 306 306 306 304 305 305 305 306 307 307 312 313 313 317 315 318 316 319 318 321 324 322 324 325 326
310 309 309 308 308 307 307 306 306 306 307 307 308 308 306 306 305 305 305 305 304 306 306 307 307 305 304 303 305 305 306 312 313 312 315 317 315 316 316 315 316 318 320 324 321 322 322
309 309 308 308 308 308 308 307 306 306 306 306 307 306 307 306 304 303 306 306 305 306 306 306 304 304 303 305 305 305 308 313 314 315 317 316 316 317 317 316 317 318 321 321 321 319 319
309 309 309 308 307 307 307 307 307 306 306 305 305 305 306 306 303 301 304 304 304 305 305 305 305 303 304 304 305 307 308 309 315 317 317 318 316 316 315 316 323 319 318 320 321 319 319
308 308 308 307 307 307 307 307 306 305 306 305 304 304 305 306 306 302 303 303 300 300 302 303 304 304 304 303 307 309 307 310 315 317 320 318 317 319 317 316 315 315 318 319 318 317 319
307 308 308 307 307 307 307 306 306 306 306 305 305 304 305 305 306 303 302 302 302 302 304 305 304 305 306 305 309 309 308 311 317 320 318 318 318 316 316 316 316 316 317 318 317 316 318
305 307 307 307 307 307 307 306 306 306 306 306 305 304 304 305 305 303 303 302 303 304 304 307 306 308 309 309 311 309 309 312 315 320 318 317 316 316 319 318 316 314 315 315 316 315 315
304 307 306 306 306 306 306 306 305 305 305 305 305 304 304 305 305 303 303 302 303 304 300 311 309 308 309 310 312 310 310 312 315 313 318 318 315 318 319 318 315 317 313 314 315 316 318
303 306 306 306 305 305 306 306 305 305 305 305 304 304 305 305 304 304 304 301 304 302 306 309 309 307 308 311 311 310 312 314 316 318 317 317 317 318 319 318 314 316 312 312 313 315 316
303 303 305 305 305 305 304 304 304 304 304 303 303 304 305 305 305 304 303 305 305 298 303 309 311 309 311 312 314 313 315 314 314 316 315 316 313 315 318 317 315 313 313 312 310 311 314
302 303 305 305 305 304 305 304 304 303 303 303 303 305 305 306 306 305 305 304 300 301 305 307 315 311 313 314 313 314 315 315 316 318 319 317 315 314 314 317 316 314 314 314 314 316 314
301 302 304 305 304 304 304 304 303 303 303 303 303 304 304 305 306 305 305 299 303 305 308 310 315 315 315 314 314 314 315 316 315 312 314 316 319 316 313 315 316 316 314 313 317 316 313
300 302 303 304 304 303 303 303 303 303 302 303 304 304 305 305 306 305 302 298 304 305 311 315 315 316 316 316 313 314 314 314 314 312 312 311 314 313 314 314 314 317 319 310 309 307 305
300 301 303 303 303 302 303 303 303 303 302 302 304 305 306 306 306 306 300 306 304 309 312 312 315 314 317 316 316 315 315 314 317 315 310 312 313 313 314 314 313 316 314 317 307 311 314
300 301 302 302 301 302 302 302 303 302 302 302 306 305 306 306 306 307 300 302 309 310 310 311 312 312 314 315 314 315 315 314 316 316 313 310 311 313 315 316 317 318 320 316 313 309 311
300 301 301 302 301 299 299 302 302 301 302 302 301 304 305 305 310 309 302 307 311 311 309 310 309 310 312 313 315 313 315 312 314 315 316 312 310 316 315 314 315 315 318 317 318 313 306
300 300 301 301 300 299 298 301 301 301 301 303 301 303 306 306 308 304 308 311 312 311 311 309 310 310 309 311 312 312 311 310 311 313 314 312 312 316 315 314 315 318 317 317 315 310 307
299 299 301 299 299 299 298 299 300 299 300 303 300 304 309 308 307 310 310 311 310 310 310 308 309 309 310 310 309 312 311 310 309 309 312 311 308 308 312 310 311 318 316 317 317 317 316
299 299 301 299 299 299 298 298 298 296 298 302 296 301 302 302 309 307 308 311 311 312 310 308 309 309 310 310 311 311 311 311 310 310 309 307 308 304 307 310 310 311 312 316 317 318 318
298 300 299 299 298 299 299 298 298 296 295 297 296 298 298 300 301 304 308 312 311 311 311 310 309 309 308 309 308 309 310 310 310 308 309 305 305 303 303 308 309 310 309 312 315 316 316
298 300 299 298 298 299 298 298 298 298 294 294 294 296 298 300 299 304 305 308 311 310 310 310 308 311 309 310 309 307 307 306 307 308 308 307 305 301 302 305 307 309 308 308 312 313 315
298 300 299 299 298 298 299 300 298 298 297 295 295 294 295 301 298 299 299 300 307 306 309 309 311 311 308 306 307 306 305 305 306 307 306 306 304 301 300 304 303 305 305 307 308 309 310
298 300 300 299 297 298 298 299 298 298 298 296 295 293 292 295 295 296 297 301 304 305 308 309 311 309 306 308 307 309 307 309 309 307 306 306 307 304 303 301 304 306 309 309 309 310 307
299 300 300 299 297 297 298 298 298 298 297 297 296 295 292 292 295 295 296 297 302 303 304 308 307 305 308 308 309 310 310 308 309 310 307 309 308 305 307 310 309 305 309 308 308 311 310
300 300 301 299 296 297 297 298 299 297 298 297 297 296 294 294 293 295 295 295 296 297 301 305 301 306 307 308 309 309 306 306 310 309 312 312 311 307 307 312 308 304 304 309 312 309 309
299 300 301 299 297 297 298 297 297 297 297 297 297 297 295 292 292 294 295 296 295 295 300 299 306 309 307 310 309 307 305 304 306 307 308 309 310 312 311 313 308 305 311 313 308 309 310
300 301 301 299 297 297 298 298 297 297 297 297 297 296 296 296 293 295 296 296 296 295 295 295 300 301 305 310 306 305 307 303 304 308 304 308 305 306 307 307 304 304 308 309 308 309 310

GFSGBSN_925_thetae_060.txt.gz
Theta_e
311 311 310 309 309 308 308 307 307 308 309 310 310 309 308 306 307 307 307 307 307 307 306 306 306 306 305 305 305 305 307 310 310 313 315 315 315 314 320 321 322 322 325 323 325 325 324
311 311 310 309 309 308 308 307 307 306 307 309 310 309 307 306 305 306 306 306 306 306 306 307 306 305 305 304 305 306 305 307 307 310 315 316 315 314 318 321 322 320 322 322 325 325 324
311 310 310 309 308 308 308 307 307 306 306 307 308 308 308 307 305 305 305 305 305 306 307 306 306 304 305 303 305 305 305 307 307 307 315 315 315 315 318 320 318 321 323 323 324 323 324
310 310 310 309 308 308 308 308 307 307 306 305 306 305 307 307 306 305 304 306 306 306 306 306 306 305 303 304 305 305 305 306 311 311 313 314 316 316 316 315 317 320 320 326 324 326 325
309 310 309 308 308 308 307 307 307 306 306 307 305 305 305 307 306 306 303 303 305 305 306 306 305 303 303 306 305 304 304 306 313 314 313 315 316 317 315 316 319 320 319 321 325 325 326
308 309 309 308 307 308 308 307 307 306 307 306 305 304 304 305 306 305 303 303 303 304 304 305 305 302 303 305 305 307 308 311 313 314 315 317 317 316 315 317 323 321 318 319 321 323 324
308 308 308 308 307 307 307 307 307 306 306 306 305 304 304 305 306 306 304 302 299 300 302 303 302 303 304 304 307 307 307 311 314 314 316 315 318 319 315 315 314 314 316 319 318 318 319
307 306 308 308 307 307 307 307 306 306 306 306 305 304 304 305 306 306 302 300 301 302 306 304 304 304 305 307 309 309 309 312 317 315 313 317 316 315 315 315 315 315 316 318 317 316 318
306 306 307 307 306 306 306 306 306 306 305 305 304 304 304 304 305 304 302 302 303 304 305 307 306 307 308 309 311 310 309 311 314 316 315 316 314 315 317 315 315 314 315 314 317 315 314
306 305 306 306 306 306 306 305 305 305 305 304 304 304 304 305 304 302 302 301 303 304 297 309 309 307 309 309 310 309 309 310 314 318 317 316 315 317 319 317 314 317 313 313 314 316 318
305 303 305 306 306 306 305 305 305 305 304 304 303 303 304 304 303 303 303 302 304 301 301 306 308 307 308 311 309 310 310 313 314 317 315 318 316 317 319 317 314 316 311 312 313 313 314
305 303 304 305 305 305 305 305 304 304 304 304 303 304 304 305 304 304 302 304 303 298 306 310 311 310 311 313 312 311 314 313 314 315 315 316 313 315 317 316 313 311 311 310 309 311 311
305 302 303 305 305 305 304 304 304 304 304 303 304 305 305 305 305 304 304 302 299 302 303 311 314 309 311 314 313 311 312 313 317 317 319 318 316 313 314 318 315 313 315 316 318 314 313
304 302 302 304 304 304 304 304 304 304 304 303 303 305 305 305 305 305 304 298 302 303 307 309 314 312 313 314 314 315 313 316 314 314 315 315 320 316 312 314 316 314 314 313 316 317 313
304 301 302 302 303 303 303 304 304 304 303 303 303 304 304 306 305 305 303 297 301 303 311 314 315 316 316 315 313 313 314 316 314 311 314 311 315 313 314 313 313 316 313 308 308 305 304
302 301 301 300 303 303 303 303 303 303 302 303 305 304 305 305 305 305 300 306 303 306 311 313 314 314 315 314 315 315 314 313 316 313 309 311 314 314 314 313 312 314 311 314 311 311 314
302 301 300 300 301 300 302 302 303 302 301 303 305 304 305 305 305 306 300 303 307 308 310 310 311 312 313 315 314 315 314 314 315 313 309 309 310 314 314 316 318 318 318 314 311 308 309
301 301 299 300 299 299 300 302 302 302 301 303 301 305 305 305 310 308 301 305 310 310 309 309 309 310 312 312 314 314 313 311 313 313 312 310 310 315 315 314 314 313 317 315 318 312 306
301 300 299 300 299 299 299 299 302 299 300 303 300 305 305 306 307 302 305 310 311 311 310 309 309 309 309 311 312 312 311 309 313 312 312 310 308 315 315 314 314 317 315 316 315 311 305
301 299 300 299 299 299 298 299 300 295 300 304 299 303 308 308 307 309 309 310 310 309 310 308 308 308 309 310 308 311 311 310 310 313 314 310 308 307 310 309 310 315 315 315 316 318 316
300 299 300 299 299 298 298 298 298 295 299 302 295 301 301 303 308 305 307 309 310 312 309 308 308 308 309 310 310 311 310 310 309 313 311 312 308 304 307 307 311 312 313 316 317 317 318
299 300 299 299 299 298 298 298 298 295 295 297 295 298 296 299 300 304 307 310 312 310 310 310 309 309 308 308 308 309 309 309 311 308 308 305 308 303 303 307 309 310 309 310 314 316 316
300 300 299 298 299 299 299 298 298 297 294 293 293 295 296 298 298 304 303 304 309 309 310 309 308 310 308 308 308 306 306 305 306 307 307 307 306 302 301 305 306 308 308 308 310 311 313
300 300 299 298 298 298 298 298 298 297 297 295 294 293 295 302 298 299 298 299 305 306 309 309 310 310 308 305 305 304 303 305 306 305 304 304 303 300 299 302 302 304 305 306 307 308 309
301 300 299 298 297 298 298 298 298 297 297 296 295 293 291 294 295 296 296 299 303 305 308 308 310 308 306 306 307 309 307 308 308 306 306 304 304 304 302 301 304 305 309 307 308 309 306
302 300 299 297 297 298 298 298 297 297 297 297 296 295 291 292 294 295 295 296 299 299 304 306 305 300 307 308 309 311 311 308 309 310 307 308 306 304 305 306 308 303 306 307 307 310 308
302 301 300 297 297 297 297 299 297 297 297 297 296 296 293 293 293 294 294 294 294 294 296 302 301 304 305 308 310 310 306 305 309 308 311 312 311 309 308 307 306 303 304 305 309 308 308
302 302 300 297 297 297 297 297 297 296 297 297 296 296 295 291 292 294 294 294 294 293 296 297 304 306 309 310 311 309 305 303 306 306 307 309 310 308 308 310 307 304 309 312 307 308 309
301 302 300 297 297 297 298 297 297 297 297 296 297 295 296 295 293 295 295 295 295 295 294 293 299 302 303 308 305 304 307 301 302 306 303 307 305 306 306 306 303 303 307 307 307 308 309

GFSGBSN_925_thetae_063.txt.gz
Theta_e
312 312 311 310 309 309 309 308 308 307 307 308 309 310 309 308 306 307 307 307 306 306 306 307 307 305 305 304 305 305 308 310 312 310 315 315 315 317 321 322 322 322 324 322 325 324 324
311 311 311 310 309 308 308 308 308 307 307 306 307 308 309 308 306 305 306 306 306 306 307 307 306 303 304 303 304 304 304 306 309 310 314 316 314 313 319 321 322 320 323 324 324 325 324
308 311 310 310 309 308 308 307 307 307 307 308 305 306 307 308 306 306 305 306 306 306 307 306 306 305 304 302 303 304 304 306 307 308 313 315 315 315 317 321 318 320 323 322 324 325 325
309 309 310 310 309 309 308 308 307 307 307 307 307 305 306 307 308 306 306 306 306 307 306 306 306 304 302 302 305 305 304 306 306 309 311 314 316 315 316 316 318 321 322 326 324 324 324
311 310 310 309 308 308 308 308 307 307 307 306 307 305 305 305 306 307 305 305 307 304 306 304 304 303 304 306 305 304 304 305 308 311 313 314 316 316 315 320 320 321 325 323 324 323 326
313 309 309 309 308 307 307 308 307 306 306 306 305 305 304 305 305 306 306 303 303 303 304 304 304 302 302 306 305 304 305 307 311 313 314 317 317 317 314 321 321 322 322 320 324 326 325
315 309 308 309 308 307 307 308 307 306 306 305 305 304 304 304 305 305 304 301 298 299 302 303 302 303 304 305 305 307 308 311 312 313 314 313 318 320 318 314 315 316 318 320 317 323 325
316 311 307 308 308 307 307 306 306 306 306 305 304 304 304 304 305 305 303 300 300 302 305 304 304 304 305 307 308 309 310 313 313 314 312 315 318 315 314 314 315 317 317 319 317 319 322
316 311 305 307 307 307 307 307 306 305 305 304 304 304 303 304 305 304 302 301 303 303 304 306 306 307 307 308 310 310 310 311 313 312 314 317 316 315 317 314 315 314 317 315 318 316 316
317 311 305 303 307 307 307 306 306 305 304 304 303 303 303 304 304 302 302 301 303 303 297 304 308 307 309 309 310 309 309 311 313 312 314 316 315 317 317 316 314 317 313 313 315 317 322
317 311 304 301 304 305 306 306 305 305 304 304 303 304 304 304 303 302 303 301 303 300 304 305 307 307 309 310 309 310 309 313 312 314 316 317 316 318 318 316 313 315 311 312 313 314 314
316 310 305 302 301 305 306 305 305 304 304 304 304 304 304 304 304 303 302 303 302 298 307 308 310 310 311 313 311 310 314 313 313 316 315 316 312 315 317 315 312 309 311 310 309 312 318
316 311 305 302 302 303 305 304 304 304 304 303 304 306 304 304 304 303 303 301 298 301 301 313 312 309 310 313 312 312 313 316 316 316 318 318 316 313 313 316 313 313 313 318 317 316 318
316 311 305 302 302 300 304 304 304 304 304 303 303 305 305 305 304 304 304 299 302 302 308 310 312 312 312 313 314 314 313 316 314 315 317 319 319 316 313 314 316 314 314 314 317 318 315
315 310 304 301 301 300 302 304 304 304 303 303 304 304 305 305 304 305 303 296 301 302 311 313 313 315 314 314 313 314 314 316 314 312 315 312 318 313 314 313 313 315 315 308 308 304 309
316 310 303 300 300 300 299 302 303 303 303 303 304 304 305 305 305 305 303 305 303 303 311 312 314 313 314 314 314 315 316 313 316 312 309 310 317 314 315 312 313 313 310 315 313 314 316
315 309 302 300 299 299 298 299 303 303 302 303 304 303 305 305 305 306 300 300 306 306 309 310 311 313 312 314 314 314 313 314 314 312 308 307 310 316 315 316 319 316 316 313 311 310 315
314 308 301 300 300 299 299 299 302 302 301 302 301 307 305 305 310 308 302 304 308 309 308 309 308 310 311 313 314 314 313 313 312 311 311 309 309 315 316 314 314 314 316 313 314 312 308
312 306 300 299 299 299 299 299 300 298 299 302 300 306 305 305 308 302 303 309 310 310 310 308 309 309 308 313 312 311 311 308 312 311 311 309 309 314 315 313 313 315 315 316 312 310 307
311 304 299 299 299 299 298 298 298 295 300 303 299 303 308 308 307 308 309 309 309 309 309 307 308 308 309 309 308 311 310 309 311 313 313 309 307 307 310 310 312 315 314 313 315 318 316
309 301 299 299 299 298 298 298 298 295 301 301 295 300 300 306 309 304 306 308 309 311 308 307 307 308 308 309 310 310 310 309 308 314 311 310 307 303 307 308 311 312 313 313 314 315 316
305 301 300 299 298 298 298 298 297 295 297 296 296 298 295 297 299 303 305 308 312 311 310 309 308 308 307 308 309 309 308 308 310 308 309 305 306 303 304 307 308 310 309 311 314 314 314
303 302 300 299 298 299 298 298 297 297 293 293 293 295 296 297 298 303 302 303 309 308 310 309 308 309 308 307 307 305 305 305 307 307 307 306 306 303 306 304 305 308 307 308 309 310 313
301 302 299 299 298 298 298 298 297 297 297 295 294 293 297 300 298 300 297 298 305 305 309 309 310 309 307 305 303 304 303 303 304 304 303 304 305 303 305 303 304 305 304 305 307 307 308
303 302 299 298 298 298 298 298 297 297 297 297 294 292 291 295 295 295 296 299 301 303 307 307 310 306 303 305 307 308 307 308 308 306 305 302 303 304 305 302 303 305 308 305 306 309 305
303 302 299 297 298 298 298 297 297 297 296 296 295 294 290 292 294 295 294 295 296 299 304 303 303 301 306 307 309 310 310 307 308 309 305 306 305 306 305 306 308 302 305 306 306 310 307
302 301 299 297 298 298 299 297 297 297 297 296 295 295 293 293 292 293 293 294 293 293 296 299 297 305 304 307 311 310 306 304 308 309 312 312 311 309 308 307 306 302 303 304 309 308 307
302 301 298 297 297 298 298 297 296 297 297 296 295 295 294 291 292 293 294 294 294 292 295 295 303 304 308 309 310 308 304 302 305 305 306 308 309 308 308 310 307 303 307 311 306 306 308
302 300 297 297 299 298 297 297 297 296 296 296 296 295 295 292 292 294 293 294 295 294 293 292 297 302 302 307 306 303 306 300 301 305 302 308 305 306 306 306 302 302 305 304 304 305 305

GFSGBSN_925_thetae_066.txt.gz
Theta_e
314 312 312 311 310 310 309 309 308 307 308 309 307 308 309 309 308 306 307 307 307 306 307 307 307 303 305 305 306 305 307 310 309 311 313 317 320 318 320 323 324 325 326 325 324 325 324
314 312 312 311 310 310 309 308 308 307 308 308 308 307 307 308 308 306 305 306 306 306 307 307 307 304 304 303 304 306 305 308 310 310 312 316 317 316 318 321 325 324 325 324 325 325 324
316 313 312 311 310 310 309 308 308 307 308 308 308 307 306 307 308 307 306 306 307 307 307 307 307 306 305 302 304 305 305 307 308 310 311 316 316 317 319 321 322 323 325 327 326 325 326
318 314 311 310 310 309 309 309 308 307 308 308 308 307 306 305 307 308 307 306 307 307 307 306 305 305 303 302 305 306 306 306 306 308 310 313 315 317 319 320 322 325 324 327 326 326 325
319 315 312 311 309 309 308 308 308 307 307 308 306 307 306 304 305 306 307 307 307 306 307 305 304 305 305 304 306 306 305 306 308 310 311 310 316 318 319 321 322 323 322 323 327 326 327
321 317 314 309 309 309 308 308 308 307 308 306 305 306 305 304 304 305 306 303 303 303 304 305 305 306 304 306 305 306 306 307 309 311 313 312 318 320 319 320 320 320 320 321 324 326 325
322 318 314 309 308 308 308 308 307 306 306 305 305 304 304 304 304 305 305 302 303 304 303 307 307 306 306 305 303 304 308 309 311 312 315 311 319 320 318 318 315 317 319 320 321 323 325
323 319 314 311 306 308 308 307 307 307 306 305 304 304 304 303 305 305 304 304 303 304 308 305 306 307 307 306 310 308 310 311 313 316 314 313 319 317 318 317 318 319 320 321 320 324 326
324 321 317 311 306 307 308 307 307 306 306 305 304 304 303 303 305 305 303 302 303 303 308 307 308 309 308 309 310 312 311 312 314 315 314 317 318 317 319 317 319 318 319 321 321 325 324
324 321 317 311 305 304 306 307 306 306 305 304 304 303 303 304 304 302 304 301 303 303 311 310 309 309 310 310 311 310 310 311 312 314 315 317 316 318 317 318 316 320 318 320 320 321 321
324 322 317 311 305 301 304 306 306 305 305 304 304 304 304 303 304 304 303 301 303 303 316 309 311 307 309 311 311 311 311 311 313 314 314 318 318 319 320 318 316 317 316 318 319 318 319
325 321 317 311 305 300 304 306 305 305 304 304 303 304 304 304 304 303 302 303 304 312 315 312 311 310 312 312 310 312 313 312 312 314 315 316 315 317 318 316 316 313 316 317 317 318 321
324 321 316 311 305 300 303 304 305 305 304 304 303 305 304 304 306 302 303 304 314 317 306 313 313 311 313 313 312 313 314 314 316 316 317 318 318 316 316 316 314 316 318 320 320 323 319
325 320 316 310 305 299 300 303 304 304 304 303 304 304 305 304 304 303 304 307 317 310 312 312 312 313 315 314 313 314 316 316 315 316 320 320 322 319 315 317 317 317 317 318 318 319 317
325 321 316 310 304 299 300 302 304 304 303 303 304 305 305 304 304 304 306 315 315 312 312 313 313 315 315 314 315 315 315 316 315 316 319 319 318 315 315 315 316 318 319 312 315 311 316
325 320 315 310 302 299 299 299 303 303 302 302 304 305 306 304 305 305 308 311 311 306 312 313 316 315 314 315 316 316 317 315 315 313 311 314 319 316 315 315 315 317 314 319 320 322 318
325 318 315 310 301 299 299 299 301 302 300 303 304 309 305 305 305 308 313 311 310 309 310 313 314 315 315 314 315 315 317 315 315 313 311 312 316 318 317 318 318 317 318 317 317 317 319
321 314 311 308 300 299 299 299 299 301 300 303 305 311 305 305 310 310 312 309 308 311 311 311 311 312 315 315 316 316 317 316 314 312 313 311 315 316 318 315 314 316 317 317 319 319 316
317 314 312 305 299 299 299 299 298 299 299 302 309 307 305 305 309 310 310 310 311 311 311 310 311 311 310 315 316 314 314 311 314 313 313 312 314 317 316 314 312 315 315 316 316 317 319
314 313 311 301 299 299 299 298 298 297 297 303 307 309 308 307 308 309 312 312 311 310 310 308 309 309 310 312 311 313 313 312 313 314 311 311 312 315 316 315 314 315 315 314 316 320 316
313 314 308 300 299 299 298 298 298 295 301 302 303 308 305 309 309 309 309 310 311 312 310 308 309 310 311 314 313 313 312 312 312 314 313 314 316 311 310 312 314 315 314 314 316 315 318
312 308 303 299 299 299 298 298 298 296 302 299 303 305 302 305 305 308 308 311 311 312 311 311 310 309 309 311 312 313 313 313 315 312 314 311 315 310 311 310 311 313 314 315 315 315 314
310 306 301 300 299 298 298 298 298 295 299 298 294 297 304 301 304 308 310 309 310 309 311 310 310 310 310 310 309 308 309 310 312 314 314 315 313 313 316 308 309 312 310 312 313 314 314
310 306 300 300 299 299 298 298 297 296 294 295 296 299 304 304 305 308 302 301 308 307 312 311 311 311 310 308 305 307 308 308 309 308 310 312 313 312 314 309 314 308 305 307 309 309 310
307 304 300 299 299 298 298 297 297 297 297 296 296 295 301 302 301 299 299 302 304 306 309 310 310 307 305 308 311 312 312 311 310 308 308 309 311 312 314 312 310 310 310 310 310 312 310
306 303 303 300 299 298 298 297 297 297 297 297 295 294 295 300 298 297 299 299 304 304 308 306 305 302 308 311 312 314 313 311 312 311 308 307 309 311 310 312 310 310 308 308 309 314 311
304 302 301 302 299 298 298 297 297 297 296 296 295 295 297 298 296 296 297 298 297 298 305 304 300 307 307 312 315 313 311 308 312 313 313 312 312 314 312 311 310 308 305 307 314 314 310
302 301 301 302 301 299 298 297 297 296 296 296 295 295 296 297 295 295 296 297 296 296 303 298 305 306 307 313 313 312 311 309 309 308 311 312 314 313 312 313 311 306 308 313 310 308 309
302 300 301 301 301 299 297 296 297 296 296 296 296 295 295 297 296 294 293 294 295 295 297 296 301 302 303 307 308 308 309 306 308 311 306 310 310 311 311 310 306 305 307 306 306 308 308

GFSGBSN_925_thetae_069.txt.gz
Theta_e
318 316 313 313 312 311 310 310 309 309 309 309 309 309 308 308 310 308 306 307 307 307 307 307 308 306 305 305 305 307 306 311 311 310 314 317 320 320 320 324 326 329 326 326 327 325 325
319 317 315 313 311 311 311 310 309 309 309 309 309 309 307 307 308 309 307 307 307 307 307 308 308 306 306 305 304 306 306 309 310 311 313 316 319 318 317 321 326 325 324 326 328 326 325
321 319 317 313 312 311 310 310 310 309 309 309 309 309 309 306 306 308 309 307 307 308 308 307 307 306 306 305 304 307 307 308 310 308 311 313 317 318 317 320 323 322 324 322 326 328 325
323 321 319 314 312 311 310 309 309 309 309 308 308 308 308 307 305 307 307 308 307 307 308 307 305 305 307 304 305 306 307 307 309 309 309 310 314 320 319 319 323 324 322 325 325 325 325
325 323 320 315 313 311 310 309 309 309 309 309 308 306 306 306 305 305 306 307 308 307 307 307 306 306 307 304 306 307 306 307 309 309 310 311 314 318 320 322 323 325 327 327 325 323 326
326 324 321 318 314 311 310 309 309 308 307 307 306 305 306 304 304 304 306 306 306 304 306 306 306 308 306 305 304 306 307 307 309 312 312 313 317 320 319 321 321 320 321 323 324 324 326
325 324 322 320 316 311 309 309 308 308 307 307 306 305 304 304 304 305 306 306 306 307 305 308 308 308 308 305 303 305 307 308 310 311 312 312 318 321 318 318 316 317 318 319 322 323 325
326 325 323 322 316 311 308 309 308 308 307 307 305 304 304 303 303 306 305 306 306 306 309 308 308 309 309 308 307 307 308 309 311 315 311 315 321 317 316 317 317 316 318 319 320 322 323
323 327 325 322 317 311 307 309 308 308 307 306 305 304 303 303 304 306 306 304 305 305 311 309 309 310 309 310 309 310 310 312 313 315 314 317 319 316 317 318 318 317 318 318 320 322 323
324 326 325 323 318 311 305 307 307 307 306 305 304 304 303 303 305 306 305 304 305 305 313 311 310 310 311 311 311 311 312 312 314 316 316 318 317 318 317 317 316 318 317 318 321 324 323
323 326 326 322 318 311 304 306 307 306 306 304 305 304 304 303 307 306 306 304 304 306 318 311 312 309 311 312 311 312 313 312 314 315 317 319 318 318 318 317 316 318 318 320 321 321 318
322 324 325 323 317 310 304 304 304 304 305 305 304 304 304 305 306 306 304 304 307 313 317 312 312 312 312 311 313 313 313 313 313 314 315 317 316 318 317 317 316 317 318 318 318 317 321
323 323 325 323 317 310 303 302 302 304 305 304 303 305 305 306 308 305 305 307 313 322 310 314 313 313 312 312 313 314 314 314 315 317 317 318 319 317 317 318 316 317 317 321 320 322 320
323 323 324 322 317 310 302 301 301 303 304 303 304 305 305 306 305 306 307 310 319 313 314 313 313 314 316 313 314 314 315 317 314 315 320 322 322 318 317 316 316 318 316 318 318 319 318
323 323 322 322 317 310 302 300 301 302 303 301 304 307 307 306 305 305 308 315 318 315 313 314 314 318 316 315 315 315 316 315 315 314 320 320 320 317 317 317 318 318 320 315 317 315 317
323 323 322 320 317 309 301 300 300 302 303 301 307 308 308 306 305 307 310 314 314 311 313 313 315 316 317 316 315 315 316 315 315 316 314 316 319 316 317 317 317 318 316 318 319 322 315
313 323 322 318 316 307 301 300 300 301 301 303 307 309 307 305 305 310 314 315 313 312 313 315 314 315 314 316 316 316 317 316 315 315 313 316 316 317 318 319 318 318 318 317 317 318 320
312 322 321 313 313 305 300 300 299 300 299 304 308 311 306 306 311 312 313 312 310 314 312 313 313 314 315 315 316 316 318 317 315 313 314 314 317 318 318 316 316 317 317 317 318 319 316
309 323 318 311 311 303 300 300 299 299 302 306 310 308 305 306 310 311 313 312 312 312 313 312 313 313 314 315 317 316 317 313 315 314 314 314 317 319 319 316 315 317 316 317 316 318 322
311 322 313 312 307 302 300 300 299 299 298 305 310 309 308 307 309 311 313 313 313 312 312 310 312 312 313 315 314 316 316 314 315 314 312 312 315 318 319 317 316 316 315 316 317 322 318
307 320 312 313 305 301 300 299 299 298 296 306 309 312 309 310 309 309 312 313 312 313 311 310 311 313 314 315 315 315 315 316 315 314 314 315 319 314 312 315 315 316 316 315 318 316 319
306 315 310 309 304 300 300 299 298 296 299 305 308 308 307 310 310 310 311 313 312 313 312 312 311 311 312 314 314 315 315 316 316 315 316 314 317 313 314 312 313 315 315 315 315 315 315
308 311 309 307 303 301 299 298 298 297 302 303 300 301 308 308 310 311 312 312 312 312 312 312 311 311 312 312 310 310 312 312 313 315 316 316 315 315 319 311 311 313 312 313 314 314 315
313 310 309 304 301 302 299 298 298 297 300 300 300 304 306 307 309 311 308 309 311 311 313 313 312 312 312 310 308 310 311 311 312 313 314 316 316 316 317 311 316 310 307 308 310 311 310
303 307 307 303 302 300 299 298 298 296 300 297 298 302 305 306 307 305 305 308 308 309 312 313 311 309 309 310 312 313 313 312 312 311 312 313 314 316 317 315 312 310 310 310 310 313 312
305 308 305 303 302 299 300 298 297 297 295 296 297 296 300 304 304 303 305 306 309 311 311 309 307 308 310 312 314 313 315 313 314 312 310 310 312 313 312 313 312 312 310 310 310 314 312
309 306 304 303 302 299 298 297 297 297 296 297 296 297 301 301 298 299 303 304 301 305 310 309 306 311 310 313 314 313 313 310 312 312 312 313 313 314 314 313 311 309 307 309 312 315 310
308 305 303 302 301 301 298 297 297 297 296 298 296 297 300 300 298 298 298 299 299 300 308 302 309 309 310 313 313 313 311 310 310 310 312 312 313 313 313 315 312 309 309 312 311 310 310
306 304 303 302 300 300 299 297 297 296 296 297 297 296 298 299 297 295 294 295 296 297 300 302 304 304 304 309 311 311 310 309 309 311 308 311 311 312 311 312 308 308 308 308 308 308 307

GFSGBSN_925_thetae_072.txt.gz
Theta_e
323 321 319 317 314 313 312 311 311 310 310 310 310 310 310 308 307 308 310 308 307 307 308 307 308 308 307 307 306 307 307 311 313 310 310 314 318 320 322 321 324 325 325 326 328 327 327
323 324 321 319 316 313 312 311 311 311 310 310 310 310 310 309 307 307 308 310 307 307 308 308 308 308 307 307 304 306 306 309 310 311 309 313 317 318 320 319 323 318 325 328 328 328 327
322 324 324 321 317 315 312 311 310 310 310 310 309 309 309 308 306 306 307 308 309 307 307 308 307 307 307 306 304 306 306 308 309 309 309 313 312 318 319 318 321 321 323 328 327 327 327
322 324 325 322 320 317 313 311 310 310 310 310 310 309 308 307 306 305 306 307 308 308 308 308 307 306 307 305 303 306 306 307 309 308 307 309 311 316 319 318 322 322 321 328 327 326 324
321 324 327 323 322 319 315 311 310 310 309 308 308 307 306 307 305 305 305 307 307 308 307 308 307 307 307 305 307 307 307 307 309 308 306 310 312 318 320 322 323 325 323 324 325 325 326
321 324 326 324 323 320 316 311 310 310 309 308 307 306 305 304 304 305 305 306 305 307 306 307 307 308 307 308 305 305 307 308 310 310 311 311 316 320 321 321 325 324 324 321 322 324 325
322 323 325 325 323 321 317 312 309 309 309 308 307 306 305 304 304 304 306 308 307 307 306 308 308 309 310 305 304 305 307 308 310 309 311 310 316 322 321 319 317 319 322 323 322 322 323
323 323 324 325 323 321 318 313 307 309 309 308 307 305 304 304 304 304 305 308 307 306 308 309 308 310 309 306 308 307 308 309 311 313 311 316 318 317 317 317 317 316 319 322 323 323 320
319 324 323 324 324 322 320 314 307 309 308 308 306 305 304 304 304 305 307 305 306 306 310 310 309 310 309 309 308 308 309 310 313 313 315 318 319 316 317 318 317 317 317 321 323 324 323
315 319 324 324 324 323 320 313 307 305 308 306 304 305 304 304 305 307 306 305 305 306 313 312 311 311 311 310 311 311 310 312 314 317 316 318 318 318 319 319 316 317 316 318 321 322 324
311 314 323 324 323 322 318 312 306 304 306 306 305 304 304 304 306 307 306 305 305 307 319 312 311 310 311 311 311 312 312 313 315 317 316 319 319 320 318 317 317 320 318 319 321 322 319
309 313 317 324 322 321 318 312 306 303 304 305 304 303 304 304 306 307 305 305 307 312 314 312 312 313 312 312 313 313 313 313 314 315 316 317 317 319 319 317 317 317 319 318 318 318 320
308 310 313 315 323 322 317 311 305 302 304 304 302 305 305 306 308 306 305 308 314 317 311 313 313 312 311 312 313 314 314 314 316 315 317 318 319 318 317 318 317 317 318 320 319 318 318
309 310 312 314 323 322 316 309 304 302 304 303 304 305 306 307 306 306 307 311 315 314 314 312 313 314 314 312 312 313 313 315 315 316 318 320 321 319 317 318 318 317 316 319 318 319 317
308 310 309 312 322 321 314 308 304 303 303 301 304 306 307 307 306 306 310 312 318 315 312 312 314 315 314 314 314 314 316 315 314 316 320 320 320 317 318 317 317 318 318 315 318 314 314
305 308 309 310 320 321 313 308 305 303 302 302 306 307 307 307 306 308 311 314 314 313 313 313 317 317 316 315 314 315 315 315 315 316 315 317 318 317 317 317 317 318 315 316 316 317 315
305 308 308 309 316 320 312 307 304 303 301 304 307 309 307 307 306 309 311 313 314 312 314 315 315 316 315 314 314 315 315 315 315 316 314 315 315 318 317 319 319 318 317 317 317 316 317
302 302 307 307 310 319 310 305 304 303 299 305 309 312 307 306 311 312 312 313 310 313 313 313 313 315 314 316 315 316 316 316 314 314 314 314 316 315 318 316 316 317 316 315 317 317 313
302 303 304 306 312 313 308 304 303 303 302 307 310 308 305 307 310 310 311 313 313 313 314 313 314 313 314 316 316 316 316 315 314 314 315 313 316 318 315 315 314 316 317 317 316 317 317
302 301 303 306 313 311 308 304 302 302 304 308 308 309 308 307 308 310 311 311 314 313 313 311 312 313 314 315 314 315 316 314 315 314 313 313 315 317 320 317 315 315 315 316 317 316 318
301 300 302 303 311 310 307 304 302 300 305 306 310 311 308 308 308 309 312 312 312 313 312 311 312 313 314 316 315 315 315 315 315 314 313 314 316 309 313 314 315 316 315 314 314 316 315
299 300 301 302 310 308 306 303 302 300 301 306 308 309 308 310 309 309 311 313 311 313 312 312 312 313 313 316 314 315 315 314 316 314 315 314 313 312 310 312 312 314 314 314 314 315 314
298 299 300 309 309 306 305 303 302 300 302 305 302 304 307 309 309 310 311 312 312 313 313 312 311 311 312 311 309 309 310 312 313 314 315 316 313 312 315 311 311 311 311 312 313 313 313
298 299 299 301 308 306 304 302 302 299 301 302 301 305 307 308 309 310 311 311 312 312 313 312 312 312 311 310 308 309 310 311 312 313 313 315 315 313 313 309 310 310 306 308 310 312 311
298 299 299 301 303 305 303 302 301 297 300 300 301 304 305 306 306 308 308 310 309 310 313 312 311 308 309 310 311 312 312 312 312 311 312 312 316 316 314 313 312 308 308 309 309 310 311
298 299 298 302 304 304 303 301 302 298 300 297 299 299 300 304 302 304 306 308 309 311 311 310 307 309 310 311 313 313 313 312 313 311 310 310 312 312 312 312 313 311 309 309 310 312 310
298 297 299 307 306 304 302 301 300 300 302 297 297 297 302 300 297 299 304 305 303 307 310 309 309 311 309 313 313 312 313 310 313 311 312 311 311 311 312 312 311 308 307 309 311 313 309
297 297 303 307 304 303 301 299 299 302 299 297 296 299 301 298 297 298 299 300 300 301 308 303 309 309 310 312 312 311 311 309 309 310 310 310 310 312 311 313 311 307 307 310 309 307 306
296 298 300 304 303 302 300 300 299 297 297 297 297 298 299 297 296 295 295 295 295 297 300 303 305 304 306 309 309 310 309 307 308 309 308 310 310 312 310 310 308 306 307 305 303 304 303

GFSGBSN_925_thetae_075.txt.gz
Theta_e
320 321 323 323 321 319 317 314 312 312 311 310 311 311 310 310 308 308 307 309 310 308 307 308 308 308 307 307 306 307 307 309 309 308 310 312 315 319 320 320 323 327 327 326 326 328 326
318 320 321 323 324 321 320 316 312 311 311 310 311 310 310 310 307 307 307 307 309 310 307 308 309 307 308 308 305 305 306 308 309 309 309 311 315 316 320 319 322 322 323 325 327 328 328
321 320 320 323 325 323 320 318 314 310 311 310 310 311 309 309 308 308 307 306 308 309 309 308 309 307 307 307 304 306 306 306 308 307 309 310 311 316 319 320 319 322 324 326 328 327 328
324 322 322 322 325 324 321 320 316 310 311 310 309 309 308 308 306 306 306 306 307 308 308 309 308 307 306 305 303 306 306 308 308 307 308 308 308 313 318 318 321 322 321 322 323 325 325
320 323 323 322 324 325 322 320 317 311 311 310 309 308 309 306 306 305 305 305 307 308 308 308 308 307 308 305 307 306 307 307 308 307 307 308 310 316 318 321 323 321 321 319 321 326 327
315 319 321 323 324 324 323 321 317 312 310 310 309 308 307 306 305 304 305 306 306 308 305 307 307 308 307 309 306 305 306 307 310 309 311 311 314 318 319 322 324 324 321 320 319 324 326
310 313 316 319 323 324 324 322 317 314 311 310 309 308 306 305 304 305 305 306 305 305 304 307 308 309 309 305 304 305 306 308 309 309 312 311 314 319 318 319 318 320 323 321 320 323 324
307 308 310 314 317 322 325 323 319 314 310 310 308 307 306 305 305 304 304 306 305 305 306 308 308 309 309 306 307 307 307 310 310 313 311 314 318 316 319 319 320 320 321 324 323 322 323
306 306 309 310 314 318 324 323 319 314 309 309 308 306 306 303 304 305 305 306 305 305 307 310 309 309 309 309 308 308 308 310 312 313 315 315 316 316 318 320 320 319 319 321 324 325 323
306 307 307 308 310 314 320 323 318 313 308 307 306 305 305 303 306 307 305 305 303 305 307 312 312 310 311 310 310 310 310 312 313 314 317 317 317 318 319 320 317 317 318 321 323 323 323
305 306 307 307 309 311 313 322 317 313 308 306 305 305 304 303 306 306 306 304 304 306 304 311 311 310 311 310 310 310 312 313 315 317 316 318 320 320 320 319 317 319 318 321 321 323 320
304 305 306 307 307 311 312 317 317 313 307 306 305 304 304 304 305 307 305 304 306 305 301 309 312 313 312 312 312 311 314 312 314 315 317 319 317 318 319 317 317 317 316 317 318 317 315
304 304 303 306 307 311 310 315 316 312 305 305 304 303 305 306 307 306 305 306 310 303 308 310 314 312 311 313 313 314 314 314 314 314 318 316 318 317 317 316 315 315 314 316 317 313 317
303 303 304 303 306 311 309 312 315 310 304 305 302 305 306 307 306 305 307 308 306 311 311 311 311 312 311 312 312 313 314 314 314 313 314 316 317 319 316 317 316 316 314 316 318 317 315
302 304 303 303 303 310 309 310 312 307 303 304 305 306 306 307 306 306 308 304 313 309 312 312 313 313 313 313 314 314 315 313 313 315 315 317 318 316 317 316 315 315 312 313 314 312 312
300 301 302 303 303 306 309 312 310 305 302 302 305 307 307 306 305 307 309 310 309 311 312 312 316 313 315 314 313 314 313 313 313 315 314 315 318 316 316 316 316 317 313 313 308 312 314
300 300 302 303 302 303 306 309 308 304 302 303 307 307 307 306 306 308 309 310 312 311 313 313 315 316 313 312 312 312 314 314 315 315 312 314 313 317 316 317 317 316 315 315 312 312 314
299 300 300 302 300 303 306 305 308 304 302 305 306 310 307 306 307 309 308 310 311 312 312 312 311 314 313 312 312 314 314 315 313 312 313 315 311 318 316 315 315 316 317 315 312 313 309
299 299 300 301 298 302 304 308 306 304 301 306 307 307 306 306 305 308 308 312 312 313 312 313 313 312 313 314 316 316 315 314 313 313 313 312 311 315 317 312 312 316 316 317 314 312 310
298 298 299 300 299 302 303 310 305 304 303 307 305 309 307 306 305 308 308 312 313 312 313 310 312 311 313 313 313 315 315 313 314 313 313 311 312 310 310 312 312 315 315 315 314 307 316
297 298 298 301 298 301 303 307 305 304 305 307 306 306 305 307 306 307 309 311 314 313 311 309 310 312 312 314 313 315 314 316 315 313 312 312 312 307 312 312 314 314 314 314 313 314 315
298 298 298 300 299 300 305 307 305 303 304 305 307 307 304 304 305 305 308 311 310 312 311 311 310 311 313 314 311 314 312 313 315 312 313 312 309 310 309 311 311 313 312 313 313 313 314
298 298 298 300 298 299 309 306 305 301 305 304 304 303 304 307 305 306 307 310 311 311 312 310 309 309 312 310 308 308 310 310 312 312 313 313 309 307 308 309 308 309 308 311 312 312 312
298 298 299 300 298 299 307 306 305 301 305 303 302 303 304 307 306 307 309 310 312 311 312 312 310 311 310 309 307 307 307 309 310 311 313 313 312 308 309 307 309 307 306 308 310 311 311
298 299 300 299 299 300 301 305 304 302 303 300 301 302 302 305 305 307 309 309 308 309 311 311 308 306 307 309 308 310 310 311 310 309 309 314 315 317 309 306 308 307 307 307 307 310 310
299 299 299 299 299 300 303 304 304 302 302 302 300 299 299 303 300 298 305 306 306 307 309 308 307 307 309 308 311 310 310 309 311 310 308 309 312 311 310 309 313 309 308 308 308 312 308
299 299 299 298 299 305 304 305 304 301 302 298 297 298 298 298 296 297 302 304 302 305 306 306 308 309 307 308 310 309 307 309 311 309 310 308 309 312 310 308 309 308 307 308 307 307 307
299 299 299 297 304 306 305 304 302 300 303 298 296 299 298 296 295 295 296 298 298 300 305 302 306 306 306 309 309 307 308 307 307 307 308 308 308 308 308 308 309 305 306 308 306 303 303
299 299 298 298 297 305 304 303 300 300 303 300 298 298 297 294 294 295 295 295 295 296 299 300 301 302 304 305 305 306 307 304 303 309 305 308 306 307 307 308 305 304 303 300 300 301 301

GFSGBSN_925_thetae_078.txt.gz
Theta_e
323 324 322 320 320 322 324 321 319 315 313 312 311 311 311 311 310 310 308 307 307 310 310 308 308 309 306 307 306 306 306 307 309 309 309 308 309 315 318 319 320 321 325 324 326 327 327
318 320 322 323 323 322 324 322 321 317 313 312 311 311 311 310 310 308 308 307 307 308 310 309 308 308 307 307 305 305 306 306 308 308 309 310 314 314 318 319 320 322 325 326 326 327 327
314 315 319 320 322 323 323 324 321 318 315 312 311 310 309 309 309 307 307 307 306 307 309 309 309 308 306 306 305 306 306 307 308 307 308 310 309 313 317 319 319 322 325 325 327 327 327
311 313 314 315 318 320 323 324 321 319 316 313 311 310 309 309 308 307 306 306 306 306 308 308 309 308 306 305 304 306 306 307 308 307 307 308 308 312 316 317 320 322 319 327 321 323 324
308 309 311 311 313 315 319 324 322 321 317 313 311 311 309 307 307 306 305 305 306 307 308 309 308 307 308 305 306 306 306 307 309 306 307 309 310 315 315 318 322 321 322 322 322 320 323
306 306 308 308 308 311 314 317 323 322 318 313 311 310 308 306 306 305 305 306 306 308 306 307 307 308 307 308 305 305 306 305 308 309 310 312 313 316 316 316 323 323 320 320 322 321 324
306 306 306 307 308 308 311 313 316 322 318 313 311 309 308 306 306 305 305 306 304 305 304 306 307 308 309 306 305 306 305 307 309 310 311 312 315 315 316 315 319 318 320 321 319 318 321
303 304 306 305 307 308 308 311 313 318 318 313 309 309 307 305 305 305 305 305 305 304 304 306 306 308 308 306 306 306 307 309 310 312 312 314 316 315 315 315 320 320 321 323 320 319 323
303 303 305 306 306 307 309 309 312 314 318 313 309 309 306 304 304 305 305 306 305 305 306 310 309 309 308 308 307 306 308 309 312 311 313 313 315 316 318 316 320 320 321 321 324 322 323
303 304 304 305 306 306 307 308 311 312 317 312 308 308 304 302 305 306 306 305 304 305 300 309 311 310 310 310 310 309 309 312 312 315 315 316 313 316 319 319 319 320 318 318 320 322 326
303 303 304 304 305 305 305 307 309 311 315 312 307 307 305 303 306 305 305 304 304 305 300 307 310 309 310 310 308 310 311 313 317 316 315 318 315 320 320 319 318 319 317 319 319 322 322
302 302 303 304 304 305 305 305 307 311 314 311 306 306 303 304 304 307 305 304 306 301 299 310 311 312 312 312 312 311 313 312 314 316 317 319 317 317 318 317 317 317 321 320 319 318 321
302 302 301 302 302 303 304 303 307 309 313 310 306 305 303 304 306 306 304 304 303 300 305 309 313 312 311 312 313 313 313 314 315 317 317 318 318 316 315 316 316 319 319 321 323 319 319
300 301 301 301 302 304 302 301 302 311 312 308 305 303 305 306 307 305 306 302 303 305 308 310 311 310 311 312 311 313 313 312 313 312 313 314 320 317 315 316 317 317 314 316 319 319 316
299 300 300 300 302 303 304 301 304 306 311 305 303 306 306 307 306 306 303 298 304 307 311 312 312 312 312 312 312 312 313 312 312 314 312 312 315 314 316 315 314 315 314 312 312 309 314
299 299 299 300 301 301 302 301 303 312 309 303 305 306 307 306 306 307 304 306 308 310 310 312 314 312 311 313 312 313 313 312 313 313 312 313 313 315 316 315 314 314 312 313 309 313 316
298 298 299 299 299 299 301 301 303 308 305 304 307 308 307 306 306 308 306 303 310 310 312 312 314 314 313 312 310 312 312 313 314 314 311 311 310 314 314 315 316 314 314 313 310 311 314
297 298 298 298 298 298 300 300 303 305 304 306 307 308 306 306 307 308 307 308 311 311 311 312 311 313 311 310 310 310 313 313 313 312 313 313 311 309 316 314 314 315 315 312 311 313 308
297 297 298 298 298 299 299 300 303 303 303 306 308 307 306 306 308 308 306 309 311 311 311 312 312 313 312 311 312 313 314 312 312 312 312 311 309 309 311 311 311 315 316 315 311 308 307
298 298 298 298 298 299 300 299 300 305 304 307 307 307 307 307 305 305 306 310 313 311 312 310 311 311 313 314 313 314 315 314 313 312 313 310 309 308 308 310 311 315 315 315 311 305 312
298 299 298 298 298 299 300 299 300 306 306 307 306 307 306 309 307 306 306 309 313 313 311 308 310 311 313 313 312 313 314 316 315 313 311 310 310 305 311 312 313 313 313 314 313 314 313
298 299 299 298 299 299 299 299 301 306 306 306 308 306 303 303 304 305 306 309 312 311 310 310 310 310 312 311 312 313 312 315 315 312 313 310 308 308 308 311 310 312 311 312 312 313 314
298 299 299 299 299 300 298 298 302 306 305 305 305 303 304 305 303 304 304 308 312 310 311 308 308 310 310 309 307 308 309 309 311 311 311 311 307 305 307 307 307 310 308 309 311 311 312
298 298 299 300 299 299 299 298 305 305 305 302 302 302 305 307 304 306 307 309 311 310 311 310 307 309 310 307 306 306 309 310 310 311 311 310 309 305 305 305 307 308 305 307 309 310 310
298 299 299 300 299 300 299 299 300 305 304 301 299 300 302 305 304 305 307 309 310 309 310 309 307 306 306 306 309 312 311 311 309 307 309 310 312 315 306 304 307 309 306 305 307 311 307
298 299 299 300 300 298 298 301 302 305 305 304 304 297 299 304 301 297 306 307 307 307 307 307 307 306 306 307 309 310 311 308 310 310 307 311 311 308 311 309 313 306 308 307 307 309 307
299 299 299 299 299 298 301 304 304 304 304 305 300 299 298 297 294 296 303 304 303 304 304 306 308 308 305 306 309 308 306 307 309 308 310 310 312 310 309 306 307 305 307 305 305 304 305
299 299 299 299 298 299 302 305 305 303 303 302 297 298 298 295 293 294 294 298 299 302 305 303 305 305 305 307 307 306 306 306 307 306 307 307 307 307 307 309 310 304 305 305 303 302 302
299 299 299 299 299 300 301 305 305 304 301 299 297 296 297 294 294 295 295 295 295 296 299 299 300 302 303 302 303 304 306 302 304 308 304 307 305 306 306 307 304 302 303 301 300 300 301

GFSGBSN_925_thetae_081.txt.gz
Theta_e
314 315 316 317 318 320 320 321 322 323 320 316 315 313 312 312 312 311 310 310 309 308 309 310 309 308 306 306 306 306 306 305 307 309 309 309 308 308 313 315 317 319 319 320 320 326 328
310 311 313 314 315 315 318 319 320 323 322 318 315 313 311 311 310 310 309 308 308 307 308 310 310 309 306 306 304 305 305 306 306 308 308 308 309 311 314 315 317 317 318 318 318 324 327
307 308 309 310 312 313 314 315 317 318 322 319 315 313 312 310 309 309 308 307 307 307 306 309 309 309 305 304 304 304 306 307 307 307 308 309 308 312 315 317 317 319 320 317 323 325 325
306 307 307 307 309 310 310 311 313 316 321 320 316 313 311 310 309 308 307 307 306 306 306 308 309 307 307 305 306 306 306 306 308 308 306 307 309 311 315 315 318 320 319 320 321 325 323
305 305 305 306 307 308 309 310 311 312 314 315 317 313 311 310 309 307 306 306 306 307 307 308 308 307 308 306 306 306 306 306 305 308 307 308 309 313 315 318 318 319 320 319 324 322 321
304 304 305 306 306 307 307 309 310 311 313 313 318 313 310 309 308 307 306 306 306 307 307 308 307 308 306 308 305 305 305 306 306 309 310 311 312 313 314 317 321 323 319 317 324 324 320
303 304 304 306 306 306 306 307 309 310 313 312 317 313 309 308 306 306 305 306 303 304 304 306 307 308 308 306 305 306 304 306 307 310 312 312 313 314 316 312 315 318 317 319 321 320 319
302 302 305 305 305 306 307 306 307 308 309 311 315 313 309 308 305 306 305 304 304 304 304 304 305 306 308 306 305 306 307 308 310 312 312 313 314 314 315 313 314 319 321 321 320 319 322
302 302 303 304 305 305 305 306 306 307 307 311 315 312 309 307 304 305 305 306 305 305 305 308 307 308 308 307 307 306 307 309 311 311 313 314 316 315 317 315 318 319 319 320 322 320 321
302 302 302 302 302 303 303 304 305 305 305 308 312 311 308 305 304 306 306 306 304 304 299 307 310 309 309 308 309 307 307 310 312 312 314 316 314 317 317 316 316 321 318 319 321 321 326
301 302 302 302 302 302 303 304 305 304 303 305 308 311 307 303 306 305 305 304 303 303 301 304 310 309 310 310 308 311 311 312 316 315 314 316 315 318 316 319 318 319 318 318 318 320 323
300 300 300 300 301 301 302 303 304 304 303 303 310 310 306 305 305 306 304 304 305 302 301 308 310 311 312 311 312 311 313 312 313 316 317 316 316 318 318 318 318 317 319 319 319 320 324
299 299 299 299 300 301 301 301 302 303 301 302 306 309 305 303 305 305 304 303 304 304 305 308 312 311 311 311 312 312 313 314 316 317 318 318 317 316 315 319 317 319 319 322 324 321 323
299 298 299 299 300 300 300 300 300 302 300 302 302 307 304 304 306 305 305 303 308 303 308 308 311 310 310 311 310 311 312 311 312 312 310 316 320 316 316 316 320 318 316 319 322 321 316
299 298 298 298 299 299 300 299 300 302 300 302 310 306 304 305 306 304 302 301 303 304 308 311 311 311 311 311 312 311 312 312 312 312 311 313 316 313 315 314 315 318 316 312 312 310 312
298 297 297 298 298 298 299 299 300 301 300 309 305 305 306 306 305 306 304 306 304 307 310 310 310 309 309 311 311 312 312 312 312 313 311 312 313 314 315 313 314 313 311 315 312 316 316
298 298 298 298 298 298 298 299 300 301 301 305 306 307 307 306 306 307 304 302 307 309 309 310 311 311 309 311 309 311 312 312 313 314 310 310 310 312 312 314 316 313 314 311 310 311 313
296 297 299 300 299 299 299 299 300 301 300 303 305 305 306 306 308 307 304 305 309 310 311 311 312 312 310 309 309 309 313 312 311 312 313 311 309 309 315 313 313 314 314 310 310 311 306
297 297 299 299 299 299 299 299 300 301 300 302 305 305 305 305 308 308 306 307 309 311 311 311 312 312 309 309 310 310 311 312 312 311 312 310 308 304 309 309 310 315 315 311 309 307 307
297 298 299 299 299 299 299 300 301 300 300 303 305 305 307 306 306 305 305 307 311 310 311 310 311 311 312 311 311 309 315 314 312 312 313 309 308 307 307 309 310 315 314 313 310 306 311
297 298 299 299 298 299 299 300 300 299 300 305 305 304 306 307 307 306 304 308 310 312 311 308 310 312 313 314 312 312 314 315 313 313 310 308 309 305 309 311 311 312 313 313 311 311 311
297 298 299 298 299 299 300 300 299 299 300 306 306 306 305 304 307 305 305 308 311 311 309 309 309 311 311 311 311 312 312 315 314 312 312 307 308 307 307 308 309 311 310 311 312 313 312
298 298 299 299 299 300 300 300 300 299 302 305 304 303 304 304 305 306 305 307 311 309 309 307 307 309 311 309 308 308 308 309 311 311 311 309 306 305 306 305 307 309 308 308 310 310 311
298 298 299 299 299 300 300 300 299 299 304 304 301 303 305 306 304 305 305 306 311 309 310 308 307 308 308 304 305 306 308 310 309 309 309 308 307 303 303 305 306 307 304 307 308 309 309
298 298 299 299 300 300 301 298 299 303 304 304 300 299 301 304 303 305 305 307 310 308 309 307 306 305 304 306 310 313 312 312 310 306 310 308 308 309 305 303 306 309 305 305 307 309 307
298 299 299 299 300 300 299 299 302 302 303 302 300 298 297 302 299 296 305 308 309 307 306 307 307 305 305 306 310 311 311 309 311 310 309 309 308 307 312 309 313 306 306 306 306 307 307
299 299 299 299 300 300 299 300 303 304 303 303 299 298 297 296 293 295 303 307 304 304 304 306 308 308 305 305 308 308 305 306 309 309 312 313 312 314 309 306 306 304 305 304 306 304 305
299 299 298 300 300 300 299 301 305 305 303 302 297 297 297 294 293 293 294 298 301 303 306 304 306 306 305 308 307 306 305 305 305 305 306 309 311 310 310 313 309 304 306 305 302 303 302
298 298 299 300 300 298 300 302 305 305 305 302 297 296 296 293 293 294 294 294 294 295 300 298 301 302 303 301 303 302 305 301 303 307 302 308 305 306 306 306 303 302 303 301 300 300 301

GFSGBSN_925_thetae_084.txt.gz
Theta_e
308 309 309 310 310 312 313 313 315 315 317 321 322 319 316 314 313 312 311 310 309 310 308 308 311 309 308 305 304 303 307 305 306 307 309 309 309 309 311 311 311 312 316 317 319 320 323
307 306 307 307 308 309 310 311 312 313 315 322 322 319 316 313 311 310 310 310 308 308 307 308 310 309 306 307 304 304 305 305 306 307 308 308 309 309 309 311 312 315 315 318 319 321 321
305 306 306 306 306 308 308 308 310 311 314 315 316 318 317 313 310 309 310 309 308 307 307 307 309 308 307 307 303 304 304 306 306 307 307 307 309 307 311 312 310 313 317 318 319 319 320
304 305 306 306 307 307 306 307 307 310 312 315 314 314 318 313 310 308 309 308 307 307 306 307 308 308 306 305 305 305 306 306 307 307 307 306 308 309 312 314 316 316 318 319 318 319 318
304 304 305 306 307 307 307 308 306 307 308 311 312 312 317 313 310 307 308 307 306 307 307 307 308 306 306 306 306 306 305 306 305 306 307 307 309 310 313 316 317 317 321 319 318 320 318
303 304 304 305 306 306 307 307 307 306 307 308 310 312 316 313 309 308 307 306 307 307 307 308 306 307 306 308 305 305 304 305 305 307 309 310 311 309 309 317 320 322 319 318 320 322 319
303 304 303 305 305 304 305 305 305 306 306 306 307 311 316 311 308 306 305 305 304 305 305 304 305 306 307 306 305 305 304 305 306 309 311 311 314 315 310 316 316 316 317 319 319 320 321
302 303 303 304 304 304 304 304 304 305 305 306 304 307 315 310 306 304 306 304 304 303 303 303 304 305 306 306 305 306 306 308 309 312 311 312 314 315 314 314 316 318 318 318 318 319 319
301 301 302 302 302 302 302 302 304 304 305 304 305 306 311 308 305 304 305 305 305 304 305 307 306 307 307 306 307 309 307 308 311 312 312 314 314 315 316 316 318 320 319 319 320 318 320
300 300 301 300 301 301 301 301 302 303 302 304 303 304 308 306 304 305 305 305 305 304 299 306 309 308 308 307 310 307 307 309 313 312 313 315 314 316 316 317 316 322 318 319 320 320 324
300 299 300 300 299 300 301 301 301 301 302 302 302 304 306 305 306 306 305 305 304 303 303 304 309 308 309 309 308 312 310 312 315 314 313 316 317 316 317 316 315 320 317 318 319 320 322
300 301 300 300 299 299 300 300 301 300 301 301 302 303 307 305 303 306 304 303 304 305 305 308 309 310 311 310 311 312 314 312 313 315 313 315 315 317 317 318 317 317 317 318 319 320 323
300 301 300 300 299 299 299 299 300 299 300 300 302 302 303 305 304 305 304 304 303 307 304 307 311 311 310 311 311 312 313 314 316 317 317 312 317 316 316 319 318 318 318 323 323 321 323
299 299 299 298 299 299 298 298 299 299 300 299 301 303 303 305 305 305 304 304 305 304 307 307 310 309 310 310 309 311 311 312 313 311 311 315 320 317 316 317 320 317 317 320 322 321 320
299 298 299 298 299 300 300 299 299 299 299 299 300 307 307 304 305 304 304 307 304 305 307 310 309 310 310 311 311 310 311 311 311 311 311 312 320 314 315 315 316 319 315 312 312 310 312
299 299 298 298 299 300 300 299 299 300 300 300 299 304 304 303 305 304 306 308 304 304 308 308 309 308 309 310 311 311 311 311 313 313 309 311 316 314 314 315 315 315 312 316 313 316 315
299 299 298 298 299 299 300 299 299 300 300 301 301 306 306 305 305 305 309 306 306 306 308 308 309 309 307 309 308 310 312 312 312 312 308 308 310 314 311 315 316 313 313 310 311 311 314
297 298 298 298 299 299 300 300 300 300 301 300 301 304 305 306 306 307 309 305 306 309 310 309 310 310 308 308 308 309 312 311 310 310 312 310 307 312 315 312 311 314 313 309 311 312 304
297 297 298 298 299 299 300 299 300 300 301 300 302 303 305 305 308 310 306 306 307 310 310 310 312 311 308 308 310 310 312 311 311 310 311 309 307 304 308 308 309 314 313 308 306 306 308
297 297 298 299 299 300 300 300 300 300 300 301 301 305 306 305 306 307 307 307 308 309 310 310 311 310 309 309 310 309 314 313 311 312 312 308 306 307 307 309 310 314 315 311 309 304 309
297 297 298 298 299 300 300 300 300 301 300 299 302 305 306 306 307 305 304 305 310 312 311 308 310 312 312 311 312 312 313 314 312 312 309 307 308 304 308 309 311 312 313 312 308 309 310
296 297 298 299 299 300 300 300 301 300 300 300 304 305 304 304 306 304 305 305 308 311 311 309 311 312 310 310 310 311 311 312 313 310 310 305 307 306 306 306 307 311 310 310 312 312 311
296 298 299 299 299 299 300 300 300 300 300 302 304 303 304 305 306 307 305 305 308 310 309 306 308 309 311 310 308 306 306 308 309 310 309 307 305 305 306 304 306 309 308 308 310 309 310
297 299 299 299 299 300 300 300 300 299 300 302 302 303 305 307 305 306 304 304 309 309 310 307 307 309 306 303 305 306 306 308 307 306 308 308 305 302 302 304 305 306 304 306 308 308 308
298 298 299 299 300 300 300 300 300 300 304 302 302 302 303 304 303 304 304 304 308 307 307 307 306 304 303 307 310 313 313 313 309 306 308 308 307 309 304 302 305 308 305 305 306 306 306
298 298 299 299 299 299 300 300 300 302 303 301 298 298 298 301 301 295 303 306 308 306 306 308 306 305 304 307 309 312 312 310 311 310 309 307 308 308 310 308 312 305 305 304 305 305 306
298 298 299 299 300 301 301 300 301 303 303 302 297 298 297 295 293 293 303 306 304 303 304 307 308 309 305 305 310 307 305 305 309 309 311 312 312 314 313 307 306 303 305 303 306 304 305
298 299 299 299 301 300 300 301 303 304 302 303 295 297 297 293 293 293 294 299 303 303 305 304 307 307 306 308 308 306 305 304 305 305 307 307 307 311 311 312 307 303 305 306 302 303 303
298 298 299 299 300 298 302 303 304 303 303 303 297 296 296 293 293 294 294 294 294 295 299 297 301 302 303 301 302 301 304 300 301 306 302 307 304 304 305 305 302 302 302 300 299 300 300

GFSGBSN_925_thetae_087.txt.gz
Theta_e
307 307 307 307 307 308 308 308 308 309 312 314 316 320 321 319 316 312 311 308 311 310 309 310 309 310 307 305 304 304 305 306 306 306 308 308 309 309 310 309 309 311 309 310 313 316 316
306 306 306 306 307 308 308 308 309 307 309 312 314 315 314 318 317 312 309 309 311 309 309 309 308 309 307 308 305 304 305 305 305 306 307 308 308 308 309 310 311 310 309 308 306 316 318
306 306 305 306 307 308 307 308 308 307 308 308 311 312 313 313 317 313 309 310 309 308 308 308 308 308 307 307 306 304 304 304 305 306 307 306 307 307 307 309 310 311 311 309 308 318 319
304 305 304 305 306 306 306 307 306 307 307 308 307 310 311 313 317 312 309 308 308 307 306 306 307 308 308 306 305 305 306 305 306 307 307 306 306 308 306 306 311 312 309 313 316 318 317
304 304 304 305 305 306 305 305 305 305 306 306 307 307 309 311 316 311 307 308 308 307 307 307 308 306 307 306 306 306 305 305 305 305 306 307 308 309 310 312 314 312 313 318 318 319 319
303 304 304 304 304 304 305 304 304 305 306 306 305 306 307 312 313 309 308 305 306 307 307 308 307 306 305 307 306 305 304 305 306 306 308 309 310 312 311 313 318 317 317 319 320 320 319
302 302 303 303 303 303 303 303 304 305 304 305 305 305 304 315 312 308 305 306 306 307 306 307 306 305 306 306 305 305 304 304 305 308 311 311 313 314 313 313 315 315 317 319 320 320 320
302 301 300 301 302 301 302 302 302 303 303 303 302 305 304 309 309 305 304 305 304 303 304 305 305 305 305 306 304 306 306 308 310 311 310 312 314 312 311 313 317 317 318 320 321 320 318
302 302 302 301 301 300 300 301 300 301 302 301 302 304 305 305 307 304 305 304 305 304 304 306 304 305 306 306 307 309 307 308 309 311 311 315 313 314 313 314 318 317 318 318 319 318 319
301 301 301 302 301 301 301 300 300 300 300 300 301 301 303 303 305 304 305 304 305 304 302 308 309 307 307 307 310 307 308 309 311 313 311 314 314 315 315 317 317 319 317 317 319 319 321
301 301 301 301 301 300 299 299 300 299 300 300 300 301 303 302 305 306 305 305 303 303 310 306 309 307 307 308 307 312 308 309 313 313 314 316 317 315 315 316 313 320 318 319 318 320 322
302 301 301 299 300 299 300 301 301 300 299 299 300 301 302 302 304 306 304 304 304 307 310 309 309 310 311 310 310 312 313 310 313 315 313 316 315 316 316 316 317 317 318 318 318 320 322
302 301 301 300 300 298 300 300 300 300 299 299 300 300 301 302 305 304 303 304 308 310 306 310 311 310 310 310 310 312 313 315 315 316 317 312 316 317 316 319 318 317 318 320 319 319 323
302 300 300 300 299 299 299 300 300 300 300 300 301 300 300 300 303 304 303 306 309 306 308 307 310 309 310 309 309 310 311 314 312 310 314 317 321 316 316 317 319 317 316 319 322 321 322
301 300 298 299 299 299 299 300 300 300 300 300 299 300 299 304 304 304 305 308 308 308 308 310 308 308 309 310 310 309 311 311 310 311 313 314 320 315 315 315 316 318 317 311 312 310 316
301 299 298 298 299 299 299 300 300 300 300 300 300 299 301 305 304 304 306 309 307 305 308 307 308 307 308 309 310 310 311 310 312 311 308 311 318 314 314 315 315 315 312 314 313 316 315
300 298 298 298 299 299 299 300 300 300 301 301 299 300 305 304 304 304 308 305 306 306 307 307 308 307 306 309 307 309 311 311 311 310 307 307 311 314 312 316 317 314 314 310 311 310 315
299 297 298 298 299 299 300 300 300 300 301 300 300 302 301 304 303 305 309 305 307 309 308 308 308 308 306 307 307 308 311 310 309 309 311 309 307 313 315 312 310 313 313 308 315 313 306
298 297 297 298 299 299 300 300 300 301 301 300 301 302 303 304 308 308 307 307 307 309 310 309 311 309 307 307 308 309 312 310 309 309 311 308 307 307 309 308 309 313 312 307 306 307 308
297 297 298 298 299 300 300 300 300 301 301 299 301 303 303 304 305 307 309 308 308 308 309 309 310 308 307 309 306 310 313 312 310 311 311 306 305 307 307 309 310 314 314 310 308 307 310
297 297 297 298 299 300 300 300 301 301 300 299 300 304 305 307 306 307 306 307 308 310 310 307 310 310 309 310 310 312 313 312 311 310 308 306 308 304 306 307 310 312 313 312 309 308 310
296 297 297 299 300 300 300 300 300 300 300 299 302 304 303 305 306 306 306 307 308 311 310 309 310 310 309 309 309 310 311 311 312 309 308 304 307 305 306 306 306 310 310 311 312 310 310
296 297 298 299 300 300 300 300 300 300 300 300 302 303 304 303 305 307 307 305 308 309 308 306 308 309 311 309 306 305 306 306 308 309 308 306 305 305 307 303 305 309 307 309 310 309 309
296 297 299 299 299 300 300 301 300 301 300 301 301 303 305 306 307 308 305 304 306 309 309 306 307 309 306 303 304 305 305 305 306 306 307 306 304 302 303 303 306 306 303 305 307 308 307
297 298 299 299 299 300 301 300 301 300 301 303 302 302 305 305 304 303 304 304 308 307 306 307 306 304 302 306 309 310 309 310 309 308 308 307 307 307 305 303 305 307 305 305 307 306 305
298 299 298 299 300 300 301 300 300 301 304 302 302 300 299 301 300 295 303 304 308 308 306 308 306 304 305 306 307 312 310 309 310 310 309 307 307 307 309 307 311 304 304 303 303 306 306
298 298 298 299 300 301 300 301 301 302 303 302 299 298 296 295 292 293 302 305 303 304 305 307 308 308 304 306 309 307 305 305 309 309 312 312 312 312 312 309 306 303 303 303 306 304 305
299 298 299 299 300 300 300 303 303 304 303 302 296 297 296 292 292 293 294 297 301 302 306 304 308 308 306 309 308 305 304 303 304 304 307 308 306 307 310 307 306 302 304 306 302 302 303
299 298 298 299 299 299 302 305 303 304 302 300 297 296 296 292 293 294 294 294 293 294 299 298 302 302 304 301 301 301 304 300 301 305 301 306 303 304 304 305 301 301 302 300 299 302 301

GFSGBSN_925_thetae_090.txt.gz
Theta_e
306 306 307 307 308 309 308 309 309 309 309 308 309 311 313 314 314 319 315 312 309 312 310 309 310 309 308 308 308 305 305 306 308 307 306 306 308 308 308 309 309 311 311 310 308 307 309
307 306 306 306 307 307 306 307 307 307 307 308 308 307 310 312 313 316 316 312 309 312 310 309 309 308 307 311 306 305 304 305 306 307 306 306 306 308 309 309 311 310 311 310 309 309 310
306 306 306 305 306 307 307 306 306 306 307 307 307 307 307 310 310 314 316 311 310 310 308 308 308 309 309 309 306 305 303 305 305 306 307 306 306 308 308 308 308 311 313 311 309 308 311
304 304 305 305 305 305 305 305 305 305 306 306 308 306 307 307 307 312 314 310 309 308 306 307 308 308 308 307 306 305 305 306 306 307 307 307 307 308 309 307 309 313 312 314 311 307 307
304 303 303 304 304 304 304 304 304 303 305 305 305 304 306 306 308 314 312 308 308 307 307 307 308 307 309 306 307 307 307 307 307 306 307 307 308 309 309 309 313 313 314 313 312 313 313
305 304 304 303 302 303 303 303 303 303 303 304 303 303 305 306 308 313 309 307 306 308 309 309 307 307 307 307 307 306 305 306 307 307 308 309 310 312 311 313 316 316 313 313 314 318 319
304 304 304 304 304 303 302 302 301 302 302 302 302 303 303 305 309 311 307 306 308 308 307 308 309 309 306 306 305 306 305 306 306 308 310 311 313 313 315 314 314 313 313 320 318 319 320
304 304 303 303 303 303 303 302 301 301 301 301 301 301 302 304 305 307 304 306 306 305 308 307 307 307 306 307 308 306 306 309 310 311 310 312 313 313 311 312 314 315 316 320 320 320 319
304 304 303 302 302 302 301 300 301 301 301 300 300 300 301 302 304 306 305 305 305 304 306 306 306 306 306 307 309 309 307 309 309 310 312 315 313 313 314 314 318 318 317 320 322 320 319
304 304 304 303 302 301 300 300 301 301 302 301 300 300 301 301 304 306 305 305 305 304 310 310 309 308 309 309 311 308 308 309 310 313 312 315 313 314 317 317 317 318 317 319 319 322 324
303 303 303 302 301 301 301 300 301 301 301 301 300 300 301 301 302 305 305 305 305 304 317 310 310 308 309 311 311 311 308 310 313 313 314 315 315 315 316 316 316 320 318 319 320 322 323
304 303 302 301 300 301 301 300 300 301 301 301 300 300 301 301 301 303 305 305 303 311 314 311 311 311 312 312 311 313 313 310 312 315 313 315 315 316 315 315 314 318 320 320 320 322 326
304 304 302 301 299 300 300 300 300 301 301 301 301 300 300 300 302 303 304 304 311 315 307 312 311 312 312 313 313 314 315 317 316 319 319 314 316 316 317 319 318 319 320 324 325 327 325
304 303 302 300 299 300 300 300 300 301 301 301 301 300 299 300 301 303 303 306 314 309 308 309 311 311 312 311 311 312 313 315 310 310 317 323 322 316 316 318 320 319 319 323 324 325 325
304 301 301 299 299 300 299 300 301 301 301 301 301 301 300 299 300 303 304 313 315 308 309 312 311 312 312 312 312 312 315 315 314 314 318 320 320 314 316 317 318 319 318 314 317 317 321
303 301 300 298 299 299 299 300 300 301 301 301 301 299 298 300 300 303 306 312 309 307 309 310 311 310 312 312 313 313 315 313 315 312 312 315 320 316 317 316 317 317 314 318 318 321 321
300 299 299 298 299 299 300 300 301 301 301 301 300 300 300 304 304 304 310 312 308 308 309 309 309 309 309 312 311 312 314 313 314 313 311 312 317 317 316 319 319 318 316 314 315 315 319
300 300 297 298 299 300 300 301 301 301 301 301 300 303 299 303 304 304 309 308 308 308 308 309 310 309 310 310 311 312 314 314 312 311 314 312 316 319 318 314 311 314 316 313 318 316 313
301 298 297 298 299 300 300 300 300 301 301 299 301 299 303 303 310 310 308 308 308 309 311 311 313 311 309 310 311 313 314 313 312 313 313 311 314 320 317 314 313 316 314 312 312 314 314
300 297 297 298 299 300 300 301 301 301 300 299 301 305 303 302 305 307 310 309 310 308 309 310 311 309 310 312 311 314 315 314 312 313 310 309 311 313 316 315 314 316 316 314 314 323 314
298 297 298 299 300 300 300 300 301 301 301 300 301 304 303 309 308 308 308 307 310 310 311 309 312 311 311 313 313 314 315 314 313 311 311 312 314 311 311 310 313 314 315 315 316 312 316
297 297 298 299 300 300 300 301 301 301 300 300 302 305 304 305 306 308 307 308 310 308 311 312 313 311 311 312 312 314 314 313 314 313 312 311 315 311 313 310 310 313 313 314 315 312 314
297 298 299 300 299 300 301 301 301 301 300 300 301 302 305 304 305 308 308 308 308 309 309 308 312 312 313 311 310 311 311 311 312 313 313 313 314 315 316 310 310 314 311 313 314 313 314
297 298 299 299 299 300 301 301 300 300 301 300 301 302 305 306 305 306 305 307 307 310 310 309 309 312 308 307 309 310 311 312 312 311 310 312 312 312 316 313 318 310 306 308 310 311 312
297 299 299 299 300 301 301 301 301 301 302 302 302 302 305 307 306 305 305 306 307 309 309 310 309 306 307 309 313 313 312 311 311 311 311 311 312 313 317 314 311 309 307 308 310 310 308
298 299 299 299 300 301 301 301 301 302 303 303 302 302 301 305 303 297 303 305 309 309 310 309 307 306 307 310 312 314 312 312 312 313 311 309 310 312 313 315 313 309 306 305 306 311 308
298 299 299 299 300 301 301 302 304 302 303 302 300 299 298 301 296 296 305 306 305 308 309 309 309 309 309 313 312 311 312 308 312 312 313 314 313 313 312 313 311 308 307 305 310 309 309
298 299 299 299 300 301 303 305 303 303 302 301 297 297 298 299 296 295 296 301 305 305 311 309 311 310 312 314 312 310 310 309 310 309 312 313 312 312 311 312 312 306 306 309 307 305 308
298 299 299 300 299 302 305 304 302 303 302 300 297 296 296 298 297 294 294 294 295 296 302 303 307 309 310 312 308 307 309 307 308 310 305 312 309 310 310 310 305 305 306 304 304 307 307

GFSGBSN_925_thetae_093.txt.gz
Theta_e
307 307 308 307 308 308 308 308 307 307 307 308 308 309 308 308 310 312 312 318 315 313 312 310 310 310 309 310 311 306 306 307 309 309 306 307 307 308 309 307 307 309 310 310 310 311 311
306 306 306 306 306 306 305 305 306 306 306 308 307 308 307 307 308 309 310 316 314 312 312 310 309 309 309 310 308 307 306 306 306 307 307 307 308 306 307 307 309 309 311 311 311 311 311
307 306 305 305 305 305 306 305 305 305 304 306 306 305 306 305 307 308 309 312 314 311 310 309 309 309 309 309 308 307 306 305 306 307 307 306 307 307 307 308 307 309 311 312 313 312 311
306 306 306 305 304 304 304 304 304 304 304 304 305 304 304 304 305 308 308 313 313 310 308 309 308 309 310 308 308 308 307 307 307 307 307 307 307 308 308 307 308 310 311 314 312 312 311
305 306 306 305 305 305 305 304 304 303 303 303 303 303 302 304 305 306 310 313 310 308 306 307 308 309 310 307 307 307 308 307 307 307 307 307 308 309 310 311 312 312 315 315 312 311 310
306 306 306 305 305 304 305 304 303 303 302 302 302 302 302 302 304 310 312 309 306 308 308 308 308 309 308 309 308 308 307 307 307 306 307 308 309 311 312 312 315 318 316 315 314 314 315
306 305 305 305 304 304 303 303 303 301 302 302 302 301 300 301 303 306 306 307 308 309 309 311 310 309 309 309 307 307 307 307 308 308 309 310 314 315 314 313 313 314 316 317 314 315 318
305 305 305 305 305 304 303 302 302 302 302 302 302 302 301 301 302 303 306 306 307 305 310 309 309 309 308 308 309 308 307 310 310 312 311 313 315 312 314 314 315 316 316 317 319 318 319
306 306 305 305 304 303 302 302 302 302 302 302 302 302 301 301 302 305 306 306 305 305 307 309 309 309 308 308 310 310 308 309 311 310 311 314 314 314 313 315 316 316 316 320 322 320 320
307 306 305 304 303 302 301 302 302 301 301 302 302 302 301 301 302 302 304 306 305 306 312 311 309 308 309 310 311 310 309 310 310 311 312 314 313 314 315 317 318 319 316 319 321 322 324
307 307 305 304 302 301 300 300 301 301 301 301 302 301 301 301 301 302 304 305 306 305 318 311 309 309 310 312 313 311 309 311 313 313 314 317 316 314 316 318 317 320 316 321 321 322 322
309 308 305 301 300 300 300 301 301 301 301 301 301 301 301 300 301 301 302 304 303 312 317 312 311 312 312 312 312 312 312 310 312 314 315 316 314 314 315 315 316 317 319 319 321 321 328
309 310 303 299 300 299 300 301 301 301 301 301 301 301 299 299 300 302 303 304 311 316 310 312 312 312 313 314 314 315 316 315 317 320 318 315 314 313 315 317 319 320 322 326 329 328 326
310 304 300 298 299 300 300 300 301 301 301 302 302 302 302 301 301 302 303 305 315 312 311 310 311 312 313 313 313 314 314 316 312 312 318 324 323 317 316 319 322 321 319 325 329 328 323
303 301 297 299 300 300 300 300 301 301 301 302 301 300 300 301 301 302 303 310 317 311 310 312 312 313 314 313 313 314 316 319 317 313 321 324 321 316 317 317 318 319 320 316 321 320 321
301 299 299 299 300 300 300 301 301 301 301 300 301 300 298 299 300 303 305 314 310 310 310 310 312 312 313 313 315 315 317 315 316 313 313 317 322 317 317 318 318 318 315 321 321 327 323
302 301 299 299 300 300 301 301 301 302 301 301 301 301 301 300 302 304 309 312 311 310 310 311 310 311 312 312 314 315 316 315 315 314 313 315 318 319 318 319 318 319 318 316 316 317 322
302 299 298 299 299 300 301 301 301 302 301 301 301 304 302 303 306 306 313 310 309 310 310 311 311 310 311 312 313 315 316 316 314 313 315 314 318 321 319 316 314 316 315 315 319 317 318
301 298 298 299 300 301 301 301 301 302 302 302 302 300 303 303 310 311 309 309 309 310 312 312 313 311 311 311 313 315 316 314 314 314 314 313 317 322 319 316 316 317 316 315 314 318 316
299 298 299 299 301 301 301 301 301 302 302 301 304 307 304 305 308 309 309 308 311 309 311 312 312 310 311 312 312 315 316 315 314 314 312 313 315 317 320 317 316 317 316 314 317 325 316
298 298 299 300 300 301 301 301 301 301 300 302 304 304 304 311 308 309 309 308 310 312 312 312 313 311 311 312 313 316 315 315 314 313 313 314 316 315 313 313 315 315 315 315 316 314 317
297 298 299 300 300 301 301 301 300 299 301 301 304 305 305 305 305 307 308 309 311 311 312 313 314 312 312 313 313 313 314 313 314 314 314 314 317 314 315 313 313 314 315 315 315 314 315
297 298 300 300 300 301 301 301 300 300 301 302 302 302 306 305 306 308 309 309 310 310 311 311 312 312 313 312 313 312 312 313 313 314 314 315 315 318 318 313 313 315 312 314 315 315 315
298 299 300 300 300 301 301 302 301 301 301 302 302 303 307 306 306 307 306 307 309 311 312 312 312 313 310 311 312 312 312 312 312 312 312 314 314 316 319 315 322 313 309 309 312 313 314
298 299 300 300 300 301 301 302 302 302 303 303 301 304 306 307 306 307 306 307 308 310 312 311 310 310 309 312 313 313 313 312 312 312 312 312 314 316 320 315 312 311 310 310 311 311 310
298 299 300 300 300 300 301 302 303 302 303 304 304 302 304 306 305 300 306 307 309 311 312 311 308 308 310 312 312 314 314 313 313 313 311 311 312 314 314 316 312 311 308 307 308 312 309
298 299 300 300 300 301 303 304 304 303 303 304 301 301 300 305 301 300 306 308 308 309 311 311 310 311 312 314 313 312 313 311 313 313 313 313 313 315 314 315 313 309 308 307 311 313 310
297 299 300 300 300 303 304 303 303 303 302 301 299 298 301 303 300 298 299 306 308 310 312 311 312 313 314 315 314 312 311 311 311 311 312 313 313 313 312 314 314 308 308 310 309 308 310
298 299 299 299 300 304 304 302 303 301 300 300 300 297 298 302 300 297 297 296 297 298 306 309 310 312 313 315 312 311 310 310 310 311 309 313 312 312 312 312 308 308 309 306 307 309 309

GFSGBSN_925_thetae_096.txt.gz
Theta_e
308 308 307 307 307 306 307 307 306 306 306 306 307 307 307 306 306 307 308 310 312 318 314 313 311 310 309 310 311 310 312 312 312 310 309 307 308 308 309 308 308 308 308 309 309 309 309
308 309 308 308 306 306 305 306 305 304 305 305 306 306 306 305 305 305 306 310 310 313 313 312 310 310 310 310 309 309 307 307 307 309 308 307 307 308 307 307 307 308 308 308 309 309 311
308 307 308 307 307 307 306 306 306 305 305 304 304 304 305 304 304 304 305 307 308 313 313 311 310 310 310 310 308 307 306 306 306 307 308 307 306 307 307 308 307 308 310 309 310 310 311
308 308 308 307 307 305 306 306 306 305 304 304 303 303 303 303 303 303 306 310 309 314 310 309 310 310 309 309 309 307 307 306 307 307 306 306 307 307 307 307 308 308 310 311 309 310 311
308 308 307 306 307 306 306 306 305 304 303 303 303 303 304 303 302 303 304 310 312 310 309 309 309 309 311 308 308 308 308 308 307 307 307 307 307 308 308 310 311 311 311 312 312 312 312
308 308 307 306 306 306 306 305 304 303 303 303 303 303 304 303 302 302 303 308 308 307 308 308 308 310 309 310 308 308 308 307 307 307 308 308 308 308 310 311 312 312 315 314 315 313 313
309 309 308 307 306 306 305 303 303 303 303 303 302 303 303 303 302 302 303 302 307 308 310 311 310 310 310 309 308 308 307 307 307 307 308 308 309 310 310 311 310 311 314 314 314 315 316
310 310 309 308 307 306 304 303 302 302 303 303 302 303 303 303 302 302 304 303 305 305 310 309 311 309 309 308 310 308 307 309 309 309 309 311 314 310 311 314 315 315 316 314 315 317 318
309 309 312 311 307 301 300 301 301 302 302 302 302 302 303 302 302 303 302 303 305 304 308 310 310 309 309 308 309 310 308 309 311 311 311 313 312 313 314 314 316 316 315 315 319 319 318
308 309 310 304 300 298 300 301 301 302 302 302 302 302 302 302 301 300 303 303 304 305 312 310 310 309 309 308 310 309 308 310 309 310 310 311 311 313 316 315 315 318 317 316 317 321 324
310 304 302 300 299 299 300 301 301 301 302 302 302 302 302 301 301 301 301 301 304 304 317 311 309 308 309 311 312 312 310 310 312 313 314 316 316 317 316 316 317 318 319 319 319 322 319
305 303 300 299 299 300 301 301 301 301 302 302 302 302 301 299 300 300 302 302 303 311 317 314 310 312 311 311 313 311 311 309 311 314 314 315 314 314 314 314 315 316 318 319 319 321 326
303 302 299 299 300 301 300 300 301 301 302 302 302 302 302 301 301 301 301 304 310 312 312 312 312 312 311 312 313 314 314 314 315 316 317 315 313 310 312 317 317 318 322 325 326 326 327
302 301 300 301 301 301 301 301 302 302 302 302 301 301 301 302 302 302 301 305 312 315 313 311 311 311 316 314 315 314 316 316 312 313 316 321 321 315 316 319 321 319 319 324 326 330 326
304 301 299 300 300 301 302 302 302 302 300 302 301 300 300 301 302 302 303 309 311 313 312 312 312 314 315 313 313 315 315 314 316 312 319 323 321 317 317 317 318 321 321 315 320 322 324
303 300 299 300 301 301 302 302 302 302 303 302 301 299 299 301 302 302 305 311 312 312 311 311 312 313 315 313 317 316 318 315 317 314 314 317 324 317 317 318 318 319 316 320 320 328 327
302 299 300 300 301 301 302 302 302 303 302 301 301 302 300 301 302 305 309 311 312 310 311 311 312 312 313 313 317 317 316 315 314 314 313 314 320 319 318 318 317 318 316 315 315 316 322
301 299 300 300 301 301 302 302 302 303 302 302 301 302 301 303 306 306 312 310 309 310 311 312 312 311 312 313 314 316 317 316 313 314 315 314 318 321 318 315 314 315 315 315 316 317 316
300 299 300 301 301 300 302 302 303 302 302 303 302 303 303 303 311 310 309 309 309 310 311 313 312 311 311 311 315 315 316 314 314 313 313 312 315 318 318 316 315 316 314 314 315 319 315
299 299 300 301 300 301 301 302 302 302 301 303 304 306 305 308 309 309 309 308 310 309 311 312 312 310 311 312 313 316 316 315 314 313 313 312 313 315 315 316 315 316 314 313 316 314 314
298 299 300 301 300 301 301 302 300 300 302 303 305 305 305 308 308 308 308 308 310 311 312 312 312 311 311 312 314 315 315 315 314 313 313 313 314 310 312 313 314 314 315 313 313 313 314
298 299 300 301 301 301 301 302 301 300 303 302 305 306 306 306 306 307 309 309 310 311 312 314 312 312 312 313 313 314 313 313 313 313 313 313 313 314 314 312 313 313 313 314 315 313 313
297 299 300 301 301 301 301 302 302 301 302 303 303 303 305 305 306 309 309 310 310 311 311 312 313 313 313 313 311 311 310 311 312 312 312 313 314 314 314 312 312 313 310 313 314 313 314
296 299 300 301 301 300 300 301 302 302 301 302 303 304 307 307 307 306 306 308 309 311 313 312 311 313 311 309 310 311 310 310 310 310 310 312 313 313 313 313 312 311 308 309 311 313 312
293 299 300 301 301 301 301 302 303 303 302 303 303 305 306 306 305 306 306 308 309 311 312 311 310 309 308 310 313 313 312 312 311 310 310 310 312 312 312 311 310 309 309 310 310 310 309
291 298 300 301 301 302 304 304 303 303 302 303 304 303 304 306 303 301 306 308 308 311 312 311 308 308 310 313 312 313 312 312 312 312 311 310 310 311 312 313 313 310 308 306 307 311 309
290 298 300 300 301 304 304 304 304 303 303 303 302 301 301 304 300 301 305 307 308 309 310 311 311 311 312 313 312 311 311 310 312 312 312 312 311 312 312 312 312 309 308 307 310 311 309
290 297 300 300 302 304 303 303 303 302 302 302 301 300 301 303 300 299 300 302 305 308 311 310 311 311 313 314 313 310 309 310 310 311 312 311 310 311 310 311 310 307 307 310 307 308 308
293 297 299 298 302 303 303 303 301 300 300 301 301 298 299 301 299 298 298 297 297 297 299 308 310 311 310 312 310 309 309 308 309 309 309 310 309 309 309 310 306 307 307 306 305 307 308

GFSGBSN_925_thetae_099.txt.gz
Theta_e
310 309 309 309 309 308 308 308 307 307 307 306 306 306 305 306 306 305 304 305 307 310 311 316 313 312 309 311 310 312 314 314 314 312 312 309 307 307 308 306 306 307 308 308 308 308 308
309 309 309 309 309 309 307 308 307 307 306 306 306 305 304 305 305 304 304 305 309 309 310 315 311 310 310 310 310 312 311 312 311 310 309 307 307 307 307 306 306 306 306 307 307 307 308
310 309 309 309 308 308 308 307 307 307 306 305 305 305 304 304 304 303 303 305 306 310 310 314 311 309 309 309 309 308 306 307 307 309 308 307 307 307 307 306 306 306 306 306 307 307 308
311 311 310 310 309 308 308 308 307 306 305 304 304 304 304 304 304 303 303 304 306 312 312 312 310 310 310 309 308 306 306 306 306 306 306 306 306 307 308 306 307 307 308 308 308 309 309
312 312 312 311 310 309 308 307 306 305 304 304 304 303 304 304 304 303 303 304 309 312 311 309 308 309 310 309 309 307 307 307 307 306 306 306 307 308 308 309 307 310 307 308 309 310 311
311 311 311 310 310 310 309 306 304 303 304 304 303 303 303 304 304 303 303 301 308 310 309 309 308 310 308 310 308 308 308 307 307 308 308 308 308 309 307 308 309 307 307 312 312 313 314
311 311 311 309 310 307 303 300 301 302 302 303 303 303 303 303 303 303 303 301 303 309 309 309 310 310 309 308 308 308 307 307 306 307 307 307 306 306 305 307 307 308 310 312 312 313 314
307 305 306 304 301 300 299 300 299 300 302 302 302 302 303 303 302 302 303 302 301 301 308 309 310 310 308 308 309 308 307 308 307 309 308 310 310 307 307 308 310 314 316 313 313 312 316
306 306 304 302 300 300 302 301 301 302 302 302 302 302 302 302 300 299 301 302 302 303 307 310 310 310 309 308 310 309 308 309 310 310 310 311 310 311 311 312 317 313 316 316 314 313 316
304 304 302 301 301 301 301 302 302 302 302 302 302 302 302 299 300 299 303 301 302 304 310 314 312 310 309 309 310 308 308 310 311 310 310 311 309 311 311 314 314 317 314 318 319 319 322
304 301 301 301 302 302 302 302 302 302 302 302 301 302 302 299 299 301 301 303 303 303 314 310 310 308 308 310 311 310 308 310 311 311 313 314 315 315 317 316 316 318 317 318 320 322 317
305 302 301 301 302 301 302 302 302 302 302 302 302 302 301 300 299 301 301 303 303 309 314 313 309 309 310 309 312 311 311 309 311 312 312 313 313 314 314 313 313 314 316 318 320 321 323
304 301 300 301 301 302 302 302 303 302 302 302 302 300 301 301 300 301 300 303 307 312 312 310 313 310 310 312 314 312 313 313 315 315 317 315 313 311 311 315 315 317 319 323 322 324 325
303 300 300 301 302 302 302 303 303 304 303 302 301 300 300 301 301 301 301 305 313 316 313 311 311 311 315 312 314 314 316 316 313 313 314 318 318 316 315 318 320 320 319 323 323 328 326
303 300 301 301 302 302 302 303 304 303 301 300 300 300 300 301 301 302 302 309 311 314 312 312 312 316 316 314 314 315 315 315 316 311 317 321 319 316 316 317 317 320 323 317 322 324 326
302 300 301 301 302 302 302 303 303 303 302 300 300 300 301 302 301 302 302 311 312 312 311 311 312 313 313 314 317 314 316 316 317 313 312 317 322 317 316 317 317 318 317 319 319 323 329
302 300 301 302 301 302 303 303 303 303 302 301 301 299 301 302 302 301 309 310 310 310 311 310 312 313 312 315 317 318 316 314 313 314 312 315 319 316 317 317 316 317 316 315 315 317 323
301 300 301 301 301 302 302 304 303 303 302 302 299 298 302 303 302 306 307 308 308 309 310 311 310 310 310 311 313 315 315 314 313 313 315 313 317 319 317 315 313 313 315 313 315 316 315
301 300 301 301 301 301 301 302 303 303 304 303 302 303 302 303 309 303 308 308 308 309 310 312 310 309 309 310 314 315 315 314 313 312 311 311 313 313 314 313 311 315 313 312 313 313 313
300 299 301 301 301 301 301 302 301 301 302 303 301 303 301 305 306 309 307 307 308 308 310 311 312 309 310 313 312 315 315 314 313 312 313 312 311 312 311 313 313 313 313 312 312 312 314
299 299 301 301 301 302 301 302 302 300 302 303 299 304 305 306 306 306 307 307 309 309 310 311 310 311 310 312 313 314 314 313 313 312 312 311 311 307 311 312 313 312 312 313 311 311 312
299 297 301 301 301 302 302 301 302 301 302 302 301 305 303 305 304 305 306 307 309 310 311 312 313 312 311 312 310 312 311 311 312 310 311 310 308 312 311 310 309 310 310 312 313 312 311
299 294 300 301 302 302 302 302 302 302 302 302 303 303 303 303 303 305 306 308 310 311 310 310 310 311 311 311 309 307 308 308 308 310 309 311 310 309 311 309 310 310 308 309 312 311 312
299 293 300 301 301 301 302 304 303 302 302 302 302 303 303 304 305 306 305 306 308 310 311 310 308 310 309 306 307 309 308 308 308 307 307 310 310 307 307 308 307 309 307 307 309 309 310
300 291 299 300 301 302 304 304 304 302 302 302 302 303 305 304 304 305 305 306 306 309 310 309 308 307 305 309 310 310 309 309 310 309 309 307 309 308 308 304 308 309 308 309 309 309 307
300 291 297 300 302 304 304 303 304 303 302 302 303 302 301 303 300 299 302 307 307 308 307 310 308 306 308 311 309 311 310 311 310 309 309 308 307 308 309 310 312 309 307 305 306 308 308
300 293 297 298 303 303 304 304 303 302 303 303 302 301 300 301 297 300 302 303 305 307 306 306 308 308 309 309 309 308 306 309 310 310 311 309 308 309 309 309 309 308 306 306 308 307 308
299 293 297 298 302 303 303 302 302 302 302 301 299 299 300 297 296 298 299 300 301 302 306 305 307 307 308 310 309 307 307 307 307 308 310 309 307 308 307 308 307 306 306 308 305 307 307
298 293 297 297 302 303 302 301 301 300 300 301 300 298 299 298 298 298 298 298 298 298 299 299 306 307 306 303 306 305 307 304 305 306 307 306 307 307 306 307 304 305 306 304 303 305 307

GFSGBSN_925_thetae_102.txt.gz
Theta_e
312 312 312 311 311 311 310 310 309 309 308 308 307 306 306 306 305 306 304 304 305 308 310 311 318 315 310 310 310 313 315 314 312 308 310 310 307 306 307 306 305 306 306 307 307 308 308
313 312 313 313 313 313 311 310 309 308 308 307 306 305 305 304 305 305 304 303 305 306 308 309 314 310 309 311 309 314 314 314 311 311 311 306 306 306 306 305 305 305 306 306 306 306 306
311 312 312 313 313 313 311 312 309 308 307 306 305 304 304 304 305 305 304 303 304 306 308 312 313 309 310 310 310 314 314 312 312 309 308 307 306 306 306 306 305 306 306 306 306 305 306
312 312 309 307 307 307 308 312 310 307 305 304 305 305 304 304 304 304 304 303 304 308 311 313 312 308 310 309 311 309 307 307 307 308 306 306 306 307 307 305 306 306 306 307 306 307 307
308 308 307 306 303 303 303 303 303 302 303 303 303 304 304 303 304 304 303 304 302 310 313 313 309 309 311 309 307 306 306 306 306 306 306 306 307 307 308 308 308 307 309 307 308 308 309
307 306 304 304 304 303 303 302 301 300 301 301 303 303 303 303 303 303 304 304 306 311 310 308 309 309 308 310 309 306 306 306 307 307 307 308 308 308 308 308 303 306 308 308 309 310 311
305 303 303 302 302 303 303 303 302 301 302 303 303 303 303 303 302 303 302 301 302 306 309 308 309 311 309 308 308 307 307 306 307 306 306 306 308 305 304 304 304 305 308 310 310 310 312
303 302 302 303 303 302 302 302 303 302 302 303 303 303 303 300 300 302 301 299 299 299 307 309 309 309 308 308 308 307 307 307 307 307 307 308 307 305 305 305 306 308 310 312 312 312 312
303 302 302 302 302 303 303 303 302 302 303 302 302 302 301 299 301 300 301 300 301 302 306 309 309 309 309 308 309 308 307 308 308 308 309 307 308 309 308 308 310 312 313 312 314 315 316
302 301 301 302 302 303 303 303 303 303 303 303 302 303 302 299 299 300 301 302 302 304 310 308 309 310 308 308 310 307 307 310 311 311 310 311 310 310 310 310 312 315 312 314 317 319 320
302 301 302 301 302 303 303 303 304 304 301 301 301 301 300 299 299 301 301 302 303 303 312 310 309 308 309 310 309 308 308 310 311 309 311 309 314 315 316 315 312 316 315 316 315 318 319
302 301 301 302 303 303 303 304 304 304 304 303 301 301 301 299 299 301 301 303 303 306 311 312 309 311 309 310 311 311 310 309 310 312 311 311 311 313 313 312 312 313 314 316 317 318 322
302 301 301 302 302 303 304 304 304 303 302 302 303 302 301 301 299 300 301 303 302 308 310 309 313 310 310 312 312 312 312 311 313 315 315 314 314 312 311 314 314 314 318 319 322 324 323
302 302 302 302 302 304 304 304 304 302 300 300 301 301 301 301 301 301 301 298 309 312 311 311 310 310 311 312 314 313 313 316 313 313 315 313 317 316 313 315 319 319 319 321 322 326 326
301 301 302 302 303 304 304 303 304 303 300 300 300 300 301 301 301 302 298 310 312 312 313 312 312 314 314 313 315 315 313 315 314 311 314 320 318 316 316 316 317 320 322 319 321 321 324
302 301 302 302 303 304 304 304 304 303 301 301 300 300 301 301 302 301 305 312 313 311 311 311 312 312 313 315 317 315 317 314 316 312 311 317 319 315 315 315 316 318 318 321 317 322 327
302 301 302 302 302 303 304 304 304 302 302 302 300 296 302 302 303 301 309 309 309 308 309 310 311 311 314 315 315 318 316 313 313 314 312 314 316 313 316 317 316 317 318 317 316 317 323
302 300 301 302 302 302 303 303 303 302 303 302 299 298 304 303 302 303 305 308 308 308 308 310 309 309 310 312 315 314 315 314 312 312 314 312 315 317 316 314 313 313 315 314 316 319 313
302 299 301 302 302 302 303 303 300 302 303 302 301 298 303 304 308 301 304 307 307 308 309 311 311 308 308 310 314 314 314 313 312 312 311 311 312 315 314 309 310 313 312 312 312 312 312
302 299 301 302 302 302 302 303 301 302 302 303 298 298 299 302 303 306 304 306 307 307 309 310 311 308 310 311 311 314 314 313 312 312 312 310 310 311 309 312 311 312 312 311 312 314 316
303 299 301 302 302 302 302 302 303 301 302 302 297 299 303 299 304 304 305 306 308 309 309 309 311 310 310 311 310 311 310 310 311 310 310 309 311 306 310 309 311 310 310 312 311 311 316
303 298 299 301 302 302 303 303 303 301 302 302 299 301 300 300 301 303 303 306 309 309 310 311 311 310 310 311 310 311 309 310 311 308 309 308 307 310 309 308 307 309 308 310 312 311 311
304 299 297 301 301 302 304 303 303 302 302 301 302 302 300 301 301 301 303 306 309 310 310 309 309 310 311 310 307 307 305 306 307 309 308 309 308 307 308 308 308 308 308 308 310 310 311
304 300 296 300 302 303 303 304 304 302 302 302 302 302 299 301 302 303 304 305 307 307 310 309 307 310 309 305 306 307 307 307 306 306 305 309 308 305 304 305 303 306 306 307 308 308 309
304 301 293 300 302 303 304 303 304 302 302 302 302 302 302 300 300 303 303 304 304 307 309 309 308 307 304 308 308 308 307 306 307 308 307 305 307 306 307 302 305 308 308 308 309 309 307
305 301 293 297 302 303 304 304 303 302 302 303 302 302 299 300 300 299 300 303 305 306 306 308 307 305 307 307 306 310 309 309 309 306 305 306 304 307 307 308 310 307 306 304 305 306 307
305 301 294 297 302 303 302 302 302 303 303 303 301 300 299 298 296 299 301 302 302 304 304 304 305 306 306 307 308 307 305 307 309 309 309 307 306 308 308 307 307 306 306 305 307 303 307
305 302 295 297 302 302 302 302 301 300 301 300 298 298 299 296 296 297 298 300 301 302 305 304 305 305 306 308 308 306 305 305 306 305 309 307 306 307 306 307 306 304 305 306 303 305 306
305 302 294 297 301 302 301 301 301 301 301 301 300 298 298 297 297 298 298 299 299 299 299 299 304 305 304 301 304 303 306 302 303 305 304 307 305 306 305 305 303 303 305 303 302 304 306

GFSGBSN_925_thetae_105.txt.gz
Theta_e
313 311 310 309 307 305 305 306 307 310 309 308 308 307 306 306 305 306 306 305 304 305 307 309 311 316 310 309 310 314 315 317 315 313 309 308 306 305 307 305 305 306 306 306 306 306 306
310 309 307 307 304 304 305 304 305 311 312 308 307 306 305 305 305 305 305 305 304 305 307 308 313 311 310 313 309 313 316 315 313 308 310 306 305 305 306 305 305 304 305 305 305 305 305
309 308 305 305 304 304 303 303 302 303 304 306 305 305 304 304 305 305 305 305 304 305 306 309 312 310 309 311 310 313 314 311 309 310 307 306 306 305 305 306 305 305 306 305 305 305 305
308 304 303 303 304 304 303 303 303 302 302 302 303 303 304 304 304 304 305 304 305 305 309 311 312 309 310 309 312 312 312 309 310 308 306 306 306 305 305 305 304 305 305 305 304 306 306
304 303 304 304 303 303 303 303 303 303 303 303 302 302 303 303 303 304 304 304 306 310 312 313 309 309 311 309 310 310 307 306 306 306 306 306 306 305 307 304 303 304 300 307 306 307 307
304 303 304 303 303 304 303 303 303 303 303 303 303 303 303 302 303 303 303 302 309 310 310 309 308 311 308 310 307 306 306 306 307 306 306 307 305 305 306 306 300 304 305 306 307 308 309
303 302 303 303 304 304 304 304 304 303 303 303 303 303 303 303 303 302 300 302 302 306 305 310 309 311 309 309 306 306 306 307 307 306 305 306 307 303 302 303 303 303 305 306 306 307 309
303 302 302 303 304 304 304 304 304 304 304 303 303 303 303 303 302 300 300 299 300 300 310 309 309 309 309 308 308 307 306 307 307 306 306 306 306 304 303 304 305 306 308 309 308 309 312
302 302 302 303 304 304 305 305 305 305 304 303 303 303 302 301 300 300 301 301 302 301 308 309 310 309 309 308 309 308 307 307 306 307 307 305 306 307 306 306 307 308 309 309 311 311 312
302 302 303 303 303 305 305 306 304 305 305 303 303 303 301 298 299 301 301 303 302 303 310 307 309 309 309 309 309 307 307 308 310 309 308 308 307 308 310 309 308 309 309 311 313 316 320
302 302 302 303 304 305 305 305 303 302 303 304 303 303 300 298 299 300 301 302 303 302 311 306 307 306 307 309 308 308 307 309 311 309 310 306 310 312 314 314 310 312 312 314 315 317 316
302 302 302 303 304 304 305 305 302 301 302 303 302 300 300 299 300 300 301 303 302 301 311 311 307 311 310 310 311 310 309 308 310 311 311 310 309 311 312 311 312 312 312 313 314 316 319
301 302 303 302 304 305 305 305 303 302 301 301 302 301 300 301 300 301 301 303 299 308 308 310 311 310 310 312 311 311 311 311 312 314 314 313 313 313 312 314 312 313 316 318 316 323 322
302 302 302 303 304 304 305 305 300 300 300 300 300 300 300 301 301 301 301 299 308 312 312 309 310 309 312 312 312 312 313 315 310 313 315 312 310 315 313 315 319 318 320 320 321 324 323
302 302 302 302 303 304 305 305 302 299 300 300 299 300 302 302 301 302 298 309 310 313 311 310 312 313 313 314 315 315 314 315 314 312 312 319 314 315 314 315 317 320 321 319 321 321 323
303 301 302 302 302 303 304 305 305 302 303 302 300 299 301 303 303 300 305 312 312 310 310 311 312 311 313 313 313 313 316 314 315 310 311 316 319 314 315 314 315 317 318 321 319 321 324
303 300 302 302 303 303 304 305 304 304 303 303 300 299 304 305 303 301 307 309 308 307 308 310 310 311 313 314 314 316 314 313 313 312 311 314 316 315 315 316 315 318 320 319 319 319 322
304 301 302 302 303 303 303 303 304 304 303 303 299 301 305 305 302 299 304 306 307 308 307 310 308 308 311 313 315 314 314 313 312 311 315 313 315 316 315 313 312 313 315 315 318 318 313
304 301 300 302 302 303 303 303 302 302 303 302 298 296 304 304 303 300 302 306 306 307 308 310 311 309 308 310 313 313 313 311 311 311 311 310 312 316 312 310 312 313 311 311 311 311 314
305 302 298 301 302 302 303 303 302 302 302 302 296 299 298 298 300 304 304 305 306 306 309 308 309 308 309 309 308 311 311 312 311 311 312 310 309 311 310 312 311 311 311 311 312 316 318
306 303 296 301 301 302 303 303 303 302 302 301 296 298 302 298 301 302 303 305 307 308 308 308 309 309 310 310 309 309 309 308 309 309 309 308 311 306 309 308 309 309 309 312 314 313 319
306 304 299 298 301 303 303 303 303 302 302 301 298 299 297 299 300 302 301 305 308 309 309 310 310 309 308 310 310 311 309 308 310 306 308 307 307 309 309 308 308 308 308 309 311 311 312
307 304 301 295 300 303 303 304 304 302 301 300 301 301 298 298 300 300 302 304 307 307 309 308 308 308 309 309 307 306 305 305 305 307 307 308 307 306 305 306 307 308 308 308 310 310 310
307 305 302 293 300 303 304 304 304 302 302 301 301 300 298 300 301 302 303 304 305 305 309 308 307 308 308 303 304 305 304 305 306 306 304 308 307 303 304 303 302 305 305 306 309 308 308
307 305 303 294 302 303 303 304 303 302 302 303 302 301 297 298 299 302 301 303 303 303 307 308 307 306 302 305 307 307 306 305 306 306 307 304 305 305 306 301 302 307 306 307 308 310 307
308 306 303 294 302 303 303 302 302 302 302 302 302 302 298 298 299 299 301 301 303 304 304 306 304 304 305 305 305 309 307 308 306 305 305 304 303 306 306 307 307 305 306 304 304 305 305
307 306 303 295 302 302 302 302 302 302 302 302 301 300 299 297 295 297 301 302 301 303 303 302 304 305 304 304 308 306 304 305 307 307 307 305 304 306 306 306 305 303 305 303 306 302 305
307 307 304 294 301 302 302 301 300 300 300 300 298 298 298 295 295 296 298 299 300 301 304 303 304 303 305 306 307 305 304 303 304 303 307 305 305 306 305 307 304 304 304 305 301 304 306
307 307 304 294 299 302 301 301 301 301 301 301 300 298 298 297 297 297 298 300 300 300 299 298 303 303 303 301 302 302 305 301 301 305 301 307 304 305 304 305 301 302 302 302 301 304 305

GFSGBSN_925_thetae_108.txt.gz
Theta_e
309 306 304 305 305 305 304 304 306 305 304 310 310 310 306 306 306 306 306 306 305 305 305 307 309 311 313 311 311 313 316 317 314 314 309 305 305 305 306 305 305 306 305 305 305 305 304
305 304 306 305 304 304 305 304 304 305 302 305 304 305 305 305 305 306 306 306 306 305 305 307 309 313 311 315 311 314 314 313 313 309 307 306 305 304 305 304 304 304 305 305 304 305 305
304 304 305 306 305 305 305 304 304 304 305 302 302 303 304 305 305 305 305 305 305 305 306 307 311 310 311 312 311 313 312 310 309 309 305 305 305 304 304 305 304 305 304 303 303 304 304
304 304 305 305 304 305 305 305 304 304 304 304 304 304 304 304 304 305 305 304 306 309 307 310 311 310 311 310 312 312 311 309 308 306 306 306 305 305 305 304 303 304 303 303 302 305 305
304 304 304 304 305 305 305 305 304 304 304 303 303 303 304 304 304 304 303 304 310 311 311 312 309 310 312 310 312 311 309 306 306 305 306 306 305 304 305 302 301 302 299 305 306 305 306
303 304 303 305 305 306 306 306 306 305 304 303 303 303 303 303 303 302 299 308 309 309 309 309 309 310 309 311 307 306 306 306 306 305 305 305 303 302 303 300 299 302 299 304 305 306 307
303 304 304 304 305 306 307 306 305 305 304 304 303 303 303 302 302 300 302 305 305 308 307 310 310 310 310 308 307 306 306 306 306 304 304 305 303 300 302 302 301 303 304 304 304 305 306
303 304 304 304 306 307 306 306 305 305 305 304 303 303 303 302 301 301 301 301 301 302 310 309 309 309 307 307 308 307 307 307 306 305 305 303 303 303 303 302 304 304 304 306 306 307 308
303 303 304 305 306 306 305 303 303 302 303 304 303 303 301 301 300 301 302 301 301 302 309 308 308 310 309 308 309 308 307 306 306 306 306 305 304 306 305 305 305 305 305 306 308 308 309
303 303 304 304 306 306 304 303 303 304 302 302 301 300 298 299 299 300 301 302 302 303 303 307 308 307 308 308 309 307 307 307 308 307 307 305 305 306 306 307 307 310 306 307 309 312 315
303 303 303 304 305 306 305 303 303 304 303 302 301 300 299 299 299 301 301 303 303 303 308 307 308 306 308 310 308 308 307 309 311 310 309 306 307 310 312 312 309 311 309 311 313 316 316
302 303 303 303 304 305 306 305 304 301 301 301 301 300 300 300 301 301 301 301 303 302 310 310 308 309 309 309 310 309 307 307 308 311 310 308 308 310 310 311 310 310 312 312 312 315 317
303 303 303 303 303 304 305 305 306 305 300 300 300 300 300 300 300 301 302 303 301 304 308 311 310 310 311 312 311 311 310 310 311 312 309 310 311 311 312 313 312 312 316 315 312 322 319
304 302 303 303 303 304 304 305 305 306 304 300 302 303 302 302 301 302 301 299 305 311 311 308 309 310 310 311 311 312 311 312 309 310 314 310 307 313 312 313 317 318 320 319 320 318 320
305 301 303 303 304 304 304 304 305 305 306 303 300 301 302 302 301 302 298 306 312 311 310 310 310 312 313 314 314 312 313 313 314 310 314 319 314 314 313 314 315 319 320 318 321 320 321
306 303 302 303 303 304 304 304 305 305 305 302 300 299 302 304 302 301 304 310 309 309 309 310 312 311 312 313 314 314 316 314 315 312 311 316 317 312 314 313 314 317 317 320 319 321 322
307 304 301 302 302 303 304 304 304 304 304 303 300 299 304 304 303 301 308 309 308 306 307 310 309 312 313 313 314 315 314 312 313 312 311 314 315 313 314 316 315 318 320 318 317 319 321
306 304 300 301 302 302 303 304 304 304 303 302 298 299 304 303 302 297 302 305 307 307 307 309 308 308 310 312 314 314 313 312 310 310 313 312 313 313 315 312 312 313 314 316 318 320 315
307 305 302 296 302 302 303 303 303 304 303 301 297 294 303 304 302 299 302 306 306 307 308 309 310 308 308 309 312 312 312 311 311 311 311 311 311 315 312 312 311 311 310 310 312 312 313
308 306 304 295 301 301 303 303 303 303 302 301 296 298 299 298 298 302 303 304 306 305 308 308 308 307 309 308 307 310 309 310 308 309 311 308 308 311 313 313 310 312 311 312 311 315 317
308 306 304 297 300 302 303 304 304 304 301 301 295 297 299 298 301 301 302 304 307 308 307 306 308 308 308 309 308 309 308 307 308 307 308 307 310 306 308 308 308 309 309 312 315 313 319
308 307 305 300 297 303 304 305 304 303 301 301 298 299 296 298 299 302 300 304 306 306 308 309 309 308 307 309 309 309 308 307 309 305 307 305 307 309 309 307 308 308 308 310 310 311 314
307 307 306 301 298 304 304 304 304 301 301 300 299 300 296 297 299 300 302 304 306 305 308 308 307 307 309 309 306 305 304 304 304 305 306 306 306 306 306 304 305 307 309 309 310 310 311
307 307 306 302 299 303 303 303 302 301 302 301 301 298 297 300 300 302 302 303 305 304 308 307 307 308 308 303 303 304 303 303 303 304 302 306 305 302 304 302 301 304 305 306 308 308 307
306 307 306 303 298 302 302 302 301 302 302 302 302 299 296 298 298 301 301 303 303 302 306 307 307 305 301 304 306 306 304 304 305 304 304 303 304 304 304 301 301 305 306 306 308 308 305
306 307 307 304 297 302 302 302 302 302 302 302 301 300 296 297 299 298 301 302 303 304 304 304 303 302 303 303 304 308 305 307 306 304 304 303 301 304 305 306 304 302 305 303 304 306 303
306 306 307 305 296 302 302 302 301 302 302 301 300 299 298 297 295 297 300 301 300 301 302 301 304 305 303 304 308 306 303 304 306 306 307 304 303 305 305 305 304 302 304 302 306 302 304
305 306 307 306 296 301 302 301 301 300 301 301 299 298 298 295 295 295 297 299 299 300 303 301 302 302 303 305 307 305 302 302 303 302 305 305 304 303 303 306 303 302 304 304 301 302 304
306 306 306 306 299 298 302 301 301 301 301 301 300 299 298 297 296 297 298 299 300 300 299 298 300 301 302 301 302 301 305 299 300 305 300 305 303 303 304 303 300 300 301 301 299 302 304

GFSGBSN_925_thetae_111.txt.gz
Theta_e
305 306 306 306 307 306 306 305 304 305 305 305 304 304 305 306 306 306 306 306 306 306 305 307 309 312 313 312 314 313 316 316 315 312 309 306 305 305 306 305 305 306 305 305 305 305 305
305 306 306 306 307 307 306 306 305 304 305 305 306 303 303 305 305 305 305 306 306 306 305 307 309 311 311 313 312 313 314 310 311 310 306 305 306 304 304 303 304 304 305 305 304 305 305
305 306 305 307 307 307 307 306 305 305 304 304 304 304 304 304 305 305 305 305 306 306 306 308 311 312 312 312 312 312 311 309 309 307 305 305 305 305 304 304 304 304 304 303 303 304 304
305 305 306 306 307 308 308 307 306 305 304 304 304 304 304 304 304 304 304 306 311 311 308 309 310 310 311 310 312 311 307 306 306 306 305 305 305 304 304 303 303 304 303 304 302 305 305
305 305 306 306 307 308 307 307 306 306 304 304 304 303 303 303 303 301 303 310 312 309 310 310 309 308 308 311 311 309 308 306 306 306 305 305 304 304 304 303 302 302 304 305 306 305 306
305 305 305 306 307 307 307 306 306 306 304 304 303 303 303 303 299 299 308 308 309 310 309 309 309 310 308 311 308 308 306 306 305 304 305 305 303 303 303 302 303 303 303 304 306 305 306
305 305 305 306 307 307 304 304 304 306 304 303 301 303 302 303 301 302 308 306 305 309 310 311 310 311 310 307 306 306 306 305 305 303 305 305 305 303 302 302 301 302 304 304 304 304 305
304 304 305 306 307 307 304 304 304 305 305 304 303 301 301 301 301 302 303 301 301 303 309 307 309 308 307 308 307 307 306 306 306 305 304 303 304 303 302 302 303 304 305 305 305 306 307
304 304 304 305 306 307 305 304 304 306 305 304 303 298 299 300 300 301 301 302 302 303 309 307 307 309 309 308 308 307 306 306 306 306 305 304 304 304 304 304 305 305 305 305 306 306 308
303 304 304 304 305 306 306 306 304 304 304 302 300 299 298 298 300 300 301 302 302 303 302 307 308 307 308 308 309 307 307 307 307 306 306 305 304 305 305 306 305 310 306 307 308 310 314
304 304 304 304 304 305 306 306 306 304 303 302 300 299 300 301 300 300 301 302 303 302 301 307 308 306 307 309 307 307 307 309 310 311 306 305 306 308 310 311 308 312 309 310 310 313 315
305 303 304 304 305 305 305 305 305 306 304 300 300 300 300 300 301 302 302 303 302 301 307 310 308 308 309 308 309 308 307 307 307 310 309 305 306 309 308 310 309 310 311 312 312 315 317
307 303 304 304 304 305 305 305 305 305 305 303 300 302 302 301 300 302 302 300 301 303 306 310 310 310 310 311 310 310 308 309 309 310 306 307 310 310 309 312 311 312 314 316 313 319 319
307 305 302 303 304 304 305 305 305 305 304 304 301 300 302 301 301 302 301 300 305 310 310 308 309 308 309 310 310 311 310 309 307 309 311 311 308 311 311 312 316 317 318 320 320 319 319
308 306 303 303 303 304 304 305 305 305 304 304 301 300 301 302 301 302 301 307 309 309 309 308 308 311 312 313 312 311 312 311 312 309 313 317 312 312 312 313 314 319 321 317 321 321 321
308 308 305 301 303 302 304 305 305 305 303 303 300 299 301 303 302 301 303 310 308 307 308 309 311 310 311 311 313 312 314 311 314 311 311 315 317 311 313 312 313 317 316 321 319 320 322
308 307 305 302 301 302 304 305 305 305 303 302 300 298 302 303 301 301 307 308 307 306 307 309 308 312 312 312 313 314 313 312 313 313 312 314 316 313 313 316 317 318 319 318 317 319 321
308 307 305 303 299 302 303 304 304 305 302 302 298 299 302 302 302 296 302 304 306 306 306 308 308 307 310 311 313 313 313 311 310 310 313 311 313 316 314 312 311 312 315 315 317 319 316
308 307 306 304 297 302 303 303 304 304 302 301 296 294 302 302 303 298 302 305 305 307 307 308 309 308 307 309 312 311 311 310 310 311 312 311 311 313 312 312 311 312 313 312 314 312 313
307 308 307 305 296 302 304 304 304 304 301 301 295 298 298 296 297 302 304 305 306 305 307 307 307 307 308 308 307 309 308 309 307 309 311 309 308 310 313 313 310 311 310 313 313 313 317
307 307 307 305 296 303 304 305 304 302 301 301 294 296 297 298 300 300 302 304 307 308 306 305 308 307 308 308 306 308 308 306 307 306 308 306 309 306 307 308 308 309 309 312 313 313 316
306 307 307 306 296 303 304 303 301 302 302 301 298 298 295 297 298 301 301 305 307 306 307 308 308 307 307 310 309 310 308 306 307 304 305 304 308 309 308 307 307 309 307 309 311 313 314
306 306 307 306 297 302 303 302 301 302 302 300 298 299 297 296 298 299 301 303 305 304 307 307 307 307 308 309 305 304 304 304 305 305 304 305 305 305 307 304 304 306 305 309 309 308 311
306 306 307 306 300 302 302 302 301 302 303 302 301 297 297 301 299 301 302 303 304 304 307 307 305 307 307 302 302 302 302 302 302 302 301 305 305 302 304 301 299 303 304 306 308 307 307
305 306 306 307 303 300 302 302 302 302 302 302 301 299 295 299 298 301 301 301 302 302 304 306 306 304 300 302 305 305 303 303 304 303 302 301 303 304 303 302 300 304 304 306 308 308 304
307 306 306 306 305 298 302 302 301 301 302 302 300 300 296 296 298 299 300 301 302 301 302 303 302 301 302 302 304 307 304 306 306 303 301 301 301 303 304 304 302 299 304 302 303 305 301
308 306 306 306 306 297 302 301 301 300 301 300 298 299 298 297 295 296 299 301 299 300 300 299 301 304 301 303 307 305 303 302 305 305 305 303 302 304 304 304 303 299 303 302 307 302 303
309 307 306 305 306 301 301 301 301 301 301 301 299 298 298 295 295 294 297 298 298 298 302 300 301 300 302 304 306 303 302 301 303 301 303 303 302 303 303 305 303 301 303 305 302 300 303
310 308 306 306 305 305 297 301 301 301 301 300 300 299 297 296 297 298 298 299 300 300 298 297 300 300 301 300 301 300 305 298 299 304 298 302 302 302 302 303 300 299 301 300 298 301 303

GFSGBSN_925_thetae_114.txt.gz
Theta_e
306 307 307 308 308 309 309 308 306 305 305 307 305 306 306 307 307 307 307 307 306 306 306 307 310 313 314 314 315 313 314 317 311 309 308 308 308 309 310 309 309 310 309 308 308 308 308
306 307 307 308 308 309 308 308 307 305 305 305 305 305 305 306 306 306 306 306 306 306 306 307 309 313 312 315 312 312 315 313 310 308 308 309 308 308 308 307 307 307 307 308 307 307 307
306 307 307 308 309 308 308 308 307 306 305 304 304 305 304 301 305 305 305 306 306 306 306 307 309 312 312 314 309 312 312 309 310 307 307 306 306 307 307 307 306 306 307 307 307 306 307
306 307 307 308 309 307 306 306 307 306 305 304 304 304 304 304 299 302 308 310 311 309 308 310 311 310 314 311 309 308 306 306 307 306 306 306 306 307 307 306 306 307 307 310 306 307 307
306 306 306 308 308 305 305 306 306 306 304 304 304 304 304 300 299 308 309 311 310 310 311 309 308 308 312 309 310 308 308 307 307 307 306 306 306 307 306 308 309 308 313 309 308 307 308
306 306 306 308 308 307 305 306 306 306 304 304 303 303 304 301 303 309 309 310 309 309 309 308 308 308 308 310 309 308 306 307 307 307 307 307 307 308 308 308 313 309 310 308 308 308 307
306 306 306 307 308 308 306 305 306 306 304 304 303 302 303 302 307 307 307 306 310 310 309 311 311 309 307 307 307 307 307 305 305 306 309 307 309 310 307 306 305 306 307 308 309 308 309
305 306 306 305 307 307 307 307 305 305 304 304 303 300 301 302 305 306 305 305 303 306 309 308 308 308 308 306 308 306 307 307 307 309 307 309 310 308 306 305 306 307 309 311 310 308 310
304 305 305 305 305 307 307 307 307 304 304 304 303 301 299 300 303 304 303 302 302 303 310 307 307 308 309 308 308 307 307 307 307 308 307 309 308 307 307 307 308 309 311 312 312 310 312
306 304 305 305 306 305 306 306 307 306 301 300 303 301 300 299 302 301 303 302 303 303 312 307 308 308 308 308 309 307 307 308 309 308 308 308 306 306 307 308 308 312 310 310 311 313 317
307 304 304 305 305 305 305 306 306 306 305 302 302 302 300 300 302 303 303 303 303 304 314 308 309 306 308 309 308 308 308 309 311 311 309 308 310 310 312 312 309 313 311 313 313 314 315
307 306 303 304 305 305 305 305 305 305 305 304 302 302 302 301 302 301 302 303 303 320 312 309 308 309 310 309 309 308 308 308 308 311 310 310 307 310 310 311 311 311 312 314 314 315 319
308 307 304 303 304 304 305 305 305 305 305 304 302 301 302 302 303 302 302 304 319 312 307 309 309 309 310 310 309 310 309 310 311 316 314 311 312 311 309 313 313 312 314 321 323 322 322
308 308 306 303 303 303 304 305 305 305 305 304 302 301 301 302 302 303 302 313 312 309 309 308 310 310 310 312 311 311 311 312 310 311 313 314 318 314 313 314 317 316 318 322 323 322 321
308 307 307 305 302 303 304 305 305 305 304 303 302 302 302 303 302 302 311 314 312 309 310 310 311 312 313 313 312 312 312 312 311 310 314 316 317 313 313 314 315 319 321 317 322 320 323
308 307 307 305 302 303 304 304 304 305 304 302 301 302 303 303 303 304 315 311 311 309 310 310 313 312 314 312 313 313 314 313 313 311 310 314 317 313 315 314 314 316 316 322 320 322 323
308 307 307 306 299 303 304 304 305 305 302 301 301 310 302 302 301 311 312 311 310 308 308 311 311 314 314 314 314 315 315 314 314 315 312 314 316 316 314 318 319 317 320 318 318 318 323
307 308 307 306 297 303 304 304 304 305 301 302 303 316 302 302 313 309 312 308 306 309 308 310 310 309 312 314 315 315 315 313 313 313 314 313 315 317 316 314 315 314 317 317 319 321 318
307 307 307 306 298 303 304 305 303 303 301 301 307 307 301 302 316 312 307 308 307 310 310 310 311 310 310 311 314 314 313 311 312 313 314 313 315 317 314 314 313 314 315 313 314 315 318
307 307 307 306 298 303 304 302 301 302 301 300 305 315 309 306 303 310 311 310 311 307 309 308 310 309 310 311 309 311 310 310 309 311 312 312 313 314 316 314 313 313 312 314 314 318 319
307 306 307 306 299 302 303 301 302 302 302 300 303 306 302 312 310 307 308 309 311 312 309 309 310 310 310 311 310 311 311 310 309 307 310 310 314 312 312 312 311 311 311 315 315 315 320
306 306 306 307 302 301 302 301 302 303 302 301 306 307 301 304 303 306 307 310 310 309 310 311 311 310 311 312 312 313 311 310 309 309 309 308 314 310 311 310 311 311 311 311 316 316 316
306 306 306 307 305 299 302 301 302 303 303 302 298 299 305 301 305 306 308 308 309 307 309 309 310 310 310 311 310 310 309 310 310 310 309 309 311 312 313 307 307 309 309 311 313 313 317
307 306 306 306 306 299 302 302 302 302 302 302 300 299 304 307 305 306 305 304 307 307 308 309 308 309 308 306 305 305 306 308 308 309 307 310 310 310 314 309 310 307 307 309 312 311 312
309 307 306 306 306 299 302 302 301 302 302 302 301 300 303 304 303 303 304 305 305 305 306 307 308 306 305 307 310 309 308 306 307 307 307 307 309 312 312 310 307 306 304 309 310 312 308
310 308 306 306 306 303 301 301 301 301 301 301 299 299 299 302 303 302 305 304 307 307 307 307 304 303 306 307 309 309 308 307 308 307 304 305 307 310 308 309 306 305 306 305 306 310 305
311 310 308 306 305 305 299 301 301 301 301 300 299 299 298 302 300 300 304 306 304 305 307 305 306 307 305 309 309 309 309 305 308 308 306 308 308 310 310 309 308 304 306 304 310 307 305
311 311 310 307 306 305 304 299 301 301 301 301 299 298 299 300 300 296 299 302 302 304 307 304 306 305 309 310 309 309 309 307 307 306 307 307 307 308 308 310 310 305 305 308 307 304 306
311 311 310 309 306 305 305 299 301 301 301 300 300 299 298 298 301 297 298 299 300 301 304 302 305 306 308 310 308 308 310 307 306 308 302 307 307 307 307 308 304 304 307 304 303 305 305

GFSGBSN_925_thetae_117.txt.gz
Theta_e
308 308 309 310 310 308 308 309 308 306 305 305 305 306 305 307 307 307 307 307 307 306 307 308 311 313 314 314 314 313 315 318 310 308 309 309 309 310 311 312 311 310 311 310 310 310 309
308 308 309 310 307 307 307 307 308 306 305 305 305 305 305 305 304 306 306 306 307 306 306 308 312 313 313 315 312 313 315 311 309 308 308 309 309 310 310 311 311 310 311 310 309 309 309
308 308 309 310 308 307 307 307 308 306 305 305 305 305 304 304 305 305 305 306 306 306 306 308 312 312 312 312 309 311 312 310 308 309 309 308 308 309 309 309 308 308 309 309 309 309 308
308 307 308 309 309 308 306 307 307 306 305 304 304 304 305 305 305 310 311 310 308 307 308 308 311 311 314 309 308 308 308 307 308 308 308 307 307 308 309 307 307 309 309 313 310 309 309
307 308 307 308 309 309 307 307 306 306 305 304 303 304 305 305 309 310 308 309 310 310 309 309 309 310 311 310 309 308 308 308 308 307 307 306 307 308 308 311 311 310 317 312 311 309 310
307 307 307 307 308 308 309 305 306 305 305 303 303 303 304 307 309 310 310 308 308 308 308 308 309 309 308 310 308 307 307 308 309 309 308 308 309 310 310 312 317 314 313 310 310 311 310
306 307 307 307 307 308 308 309 305 305 305 304 303 300 304 307 308 307 307 308 310 309 308 308 307 308 308 307 307 307 306 306 307 308 311 309 313 316 312 308 308 308 308 309 310 311 311
305 306 307 307 307 307 307 308 308 306 305 303 304 299 300 304 307 306 308 308 304 306 309 308 309 308 307 307 308 307 308 308 309 311 309 311 314 309 308 307 308 308 310 312 313 311 312
308 305 305 307 307 306 307 307 307 307 306 302 301 301 300 305 306 307 305 304 304 306 309 308 309 309 309 309 309 309 308 308 309 310 310 313 311 308 309 309 310 311 311 313 313 313 314
308 306 305 305 306 306 306 306 306 307 306 303 303 301 300 304 307 306 307 305 306 306 313 309 309 309 309 310 309 308 309 310 310 310 309 310 308 308 309 310 310 314 311 312 313 315 319
308 307 304 305 304 305 306 306 307 307 306 305 302 303 301 304 306 308 306 305 306 308 314 309 309 308 309 310 309 309 308 310 310 311 312 311 311 311 313 313 311 314 312 314 314 314 316
308 307 306 304 304 304 305 306 306 307 307 306 304 301 302 304 306 304 304 304 307 317 313 311 309 310 311 310 310 309 309 309 309 312 311 311 308 310 313 311 312 312 314 315 314 315 319
308 308 307 305 304 304 305 305 306 306 305 304 303 302 303 303 307 304 304 308 319 314 308 311 311 310 310 311 311 311 311 312 312 318 315 314 314 312 310 314 314 314 316 321 325 323 324
308 308 307 306 303 304 305 305 306 305 305 302 302 303 303 303 304 304 306 315 313 310 311 310 311 312 313 312 312 312 313 314 313 312 313 317 319 315 314 316 318 316 318 323 324 326 322
308 307 308 307 303 305 305 305 306 305 304 302 302 305 306 304 303 304 313 315 311 312 311 312 313 313 314 313 313 314 314 314 312 312 314 318 318 314 314 315 316 319 321 318 321 320 322
308 308 307 307 303 305 305 306 306 305 302 302 306 308 306 304 304 308 316 313 312 311 311 312 315 314 314 313 314 314 315 314 315 312 311 314 318 315 316 315 315 317 317 323 321 324 327
307 308 307 307 299 304 305 305 305 302 302 302 307 313 306 304 307 315 319 314 312 310 311 313 313 314 315 315 314 315 316 315 314 314 313 314 316 317 315 319 319 319 319 317 318 319 324
307 307 306 306 298 304 302 302 302 302 302 304 308 317 305 306 318 315 316 312 308 311 310 312 312 312 313 315 315 315 315 314 313 314 316 314 315 317 317 315 316 315 317 317 321 323 318
307 307 307 306 299 302 302 302 302 302 302 304 311 313 307 308 320 316 311 311 310 312 312 312 313 312 312 313 315 314 314 313 313 314 315 314 316 319 318 316 314 316 317 315 315 315 319
308 307 306 307 302 301 302 302 303 302 302 304 309 316 313 311 310 313 313 313 313 310 311 311 312 311 312 312 311 313 311 312 311 313 311 312 316 316 317 314 314 314 314 315 315 318 320
306 306 306 306 305 300 302 302 303 303 302 305 309 311 307 317 312 311 311 312 313 313 311 311 312 312 312 312 312 311 311 311 311 310 312 313 315 315 314 313 312 313 314 313 317 316 320
308 307 306 306 306 299 302 302 302 303 303 305 310 311 307 309 308 311 310 313 312 312 312 312 312 312 312 312 312 312 312 312 311 311 310 311 315 313 312 311 312 313 313 313 313 315 317
309 307 307 306 306 300 302 302 302 302 303 306 303 303 308 307 310 311 311 311 311 310 311 311 311 311 311 312 310 310 310 311 312 311 311 311 312 313 314 310 310 310 310 310 311 313 316
310 309 308 306 306 303 301 302 302 302 302 304 303 304 307 311 309 309 308 308 310 310 311 310 310 311 310 308 309 309 309 310 311 311 311 312 311 312 315 313 314 311 310 311 310 312 313
311 310 309 307 306 306 300 302 302 301 301 301 301 305 306 307 306 307 306 308 308 308 308 309 310 309 308 309 311 310 311 309 310 310 311 310 311 312 314 311 310 308 306 310 312 312 312
312 311 310 308 306 305 303 301 301 301 302 300 299 300 303 305 306 304 307 307 309 309 309 308 307 306 308 310 310 311 308 308 309 309 306 309 309 311 311 311 307 308 308 307 308 310 308
310 311 311 309 307 306 305 300 301 301 301 301 299 299 302 305 304 303 305 307 307 308 309 308 308 309 308 310 310 310 310 308 308 308 310 310 310 311 312 312 310 308 307 306 310 309 308
310 311 311 310 309 306 305 305 299 301 301 300 301 300 300 304 304 300 302 304 305 306 309 308 308 308 310 311 310 310 309 309 308 308 308 309 309 310 309 310 311 306 306 309 308 307 307
310 309 310 311 310 308 306 305 303 300 301 301 302 300 299 299 303 299 300 301 303 304 306 306 308 309 310 313 310 310 310 309 308 307 306 308 308 308 308 309 307 307 309 308 306 306 306